Date StartTime U_cm/s V_cm/s W_cm/s Ustd_cm/s Vstd_cm/s Wstd_cm/s Uvar_(cm/s)^2 Vvar_(cm/s)^2 Wvar_(cm/s)^2 KE_(m/s)^2 TurbulentKE_(m/s)^2 HorizWindSpeed_cm/s FrictionSpeec_cm/s DragCoef SpeedOfSound_m/s SonicTemperature_C Pressure_mb 
09/02/2014  00:00:00      -95.536      -70.696        0.150       39.341       29.185       23.618     1547.750      851.784      557.818        0.854        0.148      118.849       15.355        0.017      343.925       20.379      859.975
09/02/2014  00:01:00     -103.480      -55.573       -0.848       35.749       20.272       20.712     1277.966      410.967      428.971        0.796        0.106      117.459       11.325        0.009      343.886       20.314      859.974
09/02/2014  00:02:00      -90.016      -60.867        2.368       41.650       33.409       20.907     1734.737     1116.180      437.122        0.755        0.164      108.663       17.037        0.025      343.906       20.347      859.971
09/02/2014  00:03:00      -80.002      -58.025        0.192       34.617       22.810       19.461     1198.318      520.278      378.731        0.593        0.105       98.830       17.091        0.030      343.882       20.307      859.973
09/02/2014  00:04:00     -116.194      -53.253       -6.564       23.229       25.669       14.293      539.603      658.879      204.276        0.889        0.070      127.816        7.378        0.003      343.897       20.334      859.986
09/02/2014  00:05:00      -91.162      -40.680       -1.346       26.037       29.394       15.196      677.912      864.022      230.933        0.587        0.089       99.827       11.205        0.013      343.896       20.330      859.984
09/02/2014  00:06:00      -77.892      -51.606        3.932       49.881       24.105       19.453     2488.134      581.042      378.425        0.610        0.172       93.436       24.694        0.070      343.775       20.125      859.999
09/02/2014  00:07:00      -71.472      -64.364        4.652       56.977       39.608       23.276     3246.410     1568.817      541.781        0.731        0.268       96.182       29.310        0.093      343.745       20.073      860.004
09/02/2014  00:08:00      -86.959      -50.907       -1.996       47.382       30.235       19.376     2245.082      914.150      375.413        0.685        0.177      100.764       19.311        0.037      343.813       20.188      859.997
09/02/2014  00:09:00      -71.508      -45.511        2.793       32.351       23.838       16.384     1046.555      568.242      268.435        0.454        0.094       84.763       13.135        0.024      343.768       20.112      860.005
09/02/2014  00:10:00      -67.421      -25.816       -1.919       30.345       16.792       13.842      920.834      281.978      191.591        0.330        0.070       72.195       13.258        0.034      343.743       20.068      859.999
09/02/2014  00:11:00     -109.797      -43.767       -5.752       11.210       14.643        7.549      125.658      214.407       56.984        0.720        0.020      118.199        5.767        0.002      343.693       19.982      859.994
09/02/2014  00:12:00     -114.756      -62.065       -0.541       32.073       24.233       21.986     1028.661      587.233      483.380        0.956        0.105      130.464       21.511        0.027      343.623       19.864      860.003
09/02/2014  00:13:00     -119.840      -42.008      -11.035       43.779       22.768       19.773     1916.637      518.383      390.975        0.954        0.141      126.989       25.292        0.040      343.591       19.812      860.007
09/02/2014  00:14:00     -131.692      -72.512       -1.826       27.320       23.443       20.353      746.356      549.591      414.255        1.216        0.086      150.335       16.359        0.012      343.509       19.671      860.003
09/02/2014  00:15:00     -106.131      -59.841       -1.107       40.741       25.613       20.305     1659.829      656.032      412.292        0.879        0.136      121.839       14.573        0.014      343.556       19.750      859.991
09/02/2014  00:16:00     -104.601      -72.845       -0.757       52.108       37.997       25.080     2715.194     1443.753      629.025        1.052        0.239      127.467       22.674        0.032      343.524       19.697      859.991
09/02/2014  00:17:00     -137.729      -66.996       -1.283       40.218       22.739       17.320     1617.517      517.072      299.976        1.295        0.122      153.159       12.920        0.007      343.564       19.765      859.983
09/02/2014  00:18:00      -97.498      -57.738        2.261       34.316       24.006       14.278     1177.610      576.280      203.850        0.740        0.098      113.311       13.351        0.014      343.448       19.566      859.973
09/02/2014  00:19:00     -120.583      -50.678       -1.865       27.620       24.337       18.569      762.843      592.277      344.797        0.941        0.085      130.800       16.632        0.016      343.492       19.642      859.977
09/02/2014  00:20:00     -135.779      -40.802       -3.763       30.813       23.922       18.043      949.457      572.239      325.567        1.098        0.092      141.777       16.760        0.014      343.454       19.578      859.985
09/02/2014  00:21:00     -127.745      -29.773       -2.846       29.307       23.603       15.458      858.892      557.086      238.937        0.943        0.083      131.169       14.216        0.012      343.433       19.542      859.973
09/02/2014  00:22:00     -104.778      -46.375        5.416       29.485       24.076       15.874      869.366      579.674      251.969        0.743        0.085      114.582       13.824        0.015      343.428       19.533      859.966
09/02/2014  00:23:00      -95.986      -35.914        2.978       40.599       22.614       17.466     1648.291      511.390      305.046        0.649        0.123      102.484        9.189        0.008      343.386       19.461      859.976
09/02/2014  00:24:00      -57.488      -36.717        4.519       50.810       26.519       19.363     2581.642      703.231      374.934        0.417        0.183       68.213       21.578        0.100      343.397       19.480      859.976
09/02/2014  00:25:00      -63.244      -60.446       -2.898       34.174       25.733       19.048     1167.837      662.173      362.820        0.493        0.110       87.484        7.052        0.006      343.384       19.457      859.977
09/02/2014  00:26:00      -85.914      -52.378        0.575       34.830       29.086       23.404     1213.105      846.008      547.765        0.637        0.130      100.621       18.324        0.033      343.334       19.372      859.982
09/02/2014  00:27:00      -81.349      -60.622        5.844       31.821       21.519       19.891     1012.565      463.073      395.641        0.610        0.094      101.453       13.564        0.018      343.356       19.410      859.980
09/02/2014  00:28:00      -80.729      -49.109        1.078       41.705       23.384       16.792     1739.344      546.802      281.959        0.575        0.128       94.492       17.968        0.036      343.368       19.429      859.991
09/02/2014  00:29:00      -70.164      -36.870        8.972       32.735       24.939       17.764     1071.579      621.933      315.569        0.419        0.100       79.262       16.555        0.044      343.330       19.365      859.995
09/02/2014  00:30:00      -64.201      -38.728        5.785       34.168       25.605       18.807     1167.459      655.625      353.701        0.392        0.109       74.977       12.249        0.027      343.339       19.382      859.986
09/02/2014  00:31:00      -88.688      -89.211       -6.002       50.065       28.320       20.177     2506.486      802.039      407.095        0.979        0.186      125.794       26.320        0.044      343.380       19.451      859.993
09/02/2014  00:32:00      -74.909      -70.319        7.135       42.792       24.864       19.677     1831.136      618.214      387.194        0.672        0.142      102.743       17.722        0.030      343.357       19.413      859.991
09/02/2014  00:33:00      -85.923      -53.855       -2.368       42.720       28.611       21.312     1824.962      818.570      454.209        0.669        0.155      101.406       21.550        0.045      343.366       19.426      859.976
09/02/2014  00:34:00     -120.746      -77.683       -1.006       45.898       29.426       22.787     2106.614      865.909      519.240        1.205        0.175      143.576       20.097        0.020      343.376       19.446      859.963
09/02/2014  00:35:00     -125.505      -81.107       -8.067       42.790       38.772       20.606     1830.999     1503.237      424.590        1.308        0.188      149.431       16.370        0.012      343.329       19.365      859.953
09/02/2014  00:36:00     -110.596      -66.917       -0.448       41.338       35.825       21.401     1708.822     1283.397      457.996        1.008        0.173      129.265       16.854        0.017      343.297       19.310      859.928
09/02/2014  00:37:00     -107.706      -49.522        4.795       39.712       25.118       20.472     1577.004      630.889      419.102        0.835        0.131      118.546       21.582        0.033      343.266       19.256      859.916
09/02/2014  00:38:00     -125.252      -59.370        0.312       23.086       18.602       20.114      532.945      346.051      404.569        1.025        0.064      138.610       13.417        0.009      343.265       19.255      859.922
09/02/2014  00:39:00     -105.132      -39.663        2.103       43.042       39.947       20.971     1852.611     1595.799      439.783        0.826        0.194      112.365       22.961        0.042      343.279       19.278      859.921
09/02/2014  00:40:00     -118.942      -54.480       -4.010       31.341       28.507       16.478      982.262      812.671      271.533        0.960        0.103      130.825       14.789        0.013      343.248       19.225      859.919
09/02/2014  00:41:00     -115.728      -52.687       -3.883       28.057       22.790       16.447      787.201      519.382      270.494        0.888        0.079      127.157       15.185        0.014      343.280       19.280      859.919
09/02/2014  00:42:00      -79.142      -39.897        2.072       30.154       26.938       17.243      909.281      725.636      297.308        0.490        0.097       88.630       17.537        0.039      343.256       19.239      859.931
09/02/2014  00:43:00      -43.226      -36.935        5.916       31.721       21.664       17.798     1006.248      469.329      316.766        0.253        0.090       56.856       17.792        0.098      343.285       19.289      859.925
09/02/2014  00:44:00      -10.936      -23.001       12.093       22.778       20.279       14.928      518.836      411.222      222.838        0.097        0.058       25.468        9.691        0.145      343.311       19.334      859.933
09/02/2014  00:45:00      -24.845      -43.350       12.711       38.034       24.957       19.928     1446.613      622.876      397.144        0.256        0.123       49.965       19.094        0.146      343.195       19.136      859.938
09/02/2014  00:46:00      -39.162      -35.338       10.171       32.514       21.958       22.130     1057.133      482.137      489.724        0.246        0.101       52.749       20.067        0.145      343.230       19.195      859.936
09/02/2014  00:47:00      -53.267      -52.497        5.437       31.794       49.326       23.441     1010.860     2433.038      549.495        0.481        0.200       74.788       19.518        0.068      343.209       19.160      859.933
09/02/2014  00:48:00      -21.517      -11.436       16.908       33.952       26.423       20.529     1152.736      698.191      421.446        0.158        0.114       24.368       17.251        0.501      343.127       19.019      859.935
09/02/2014  00:49:00     -101.746      -50.759       -5.800       44.883       44.557       31.529     2014.495     1985.340      994.085        0.898        0.250      113.705       18.511        0.027      343.056       18.899      859.923
09/02/2014  00:50:00     -144.595      -99.930       -3.188       51.238       39.349       29.802     2625.348     1548.340      888.174        1.798        0.253      175.766       25.483        0.021      343.002       18.807      859.906
09/02/2014  00:51:00     -139.994     -106.704        0.309       59.528       39.332       34.426     3543.547     1546.991     1185.150        1.863        0.314      176.023       39.043        0.049      343.048       18.883      859.895
09/02/2014  00:52:00     -134.283     -100.701       -1.137       42.552       36.608       27.637     1810.656     1340.116      763.804        1.604        0.196      167.847       25.546        0.023      343.060       18.906      859.897
09/02/2014  00:53:00      -91.525      -64.439        0.452       40.860       41.279       21.758     1669.542     1703.922      473.399        0.819        0.192      111.934       15.909        0.020      343.097       18.969      859.875
09/02/2014  00:54:00      -83.195      -51.366        5.652       48.450       35.674       24.640     2347.438     1272.644      607.148        0.691        0.211       97.775       24.704        0.064      343.070       18.923      859.861
09/02/2014  00:55:00     -100.530      -60.838       -6.374       33.630       20.530       17.558     1130.965      421.472      308.285        0.785        0.093      117.506        8.803        0.006      343.071       18.924      859.853
09/02/2014  00:56:00      -40.556      -47.969        3.456       40.998       26.424       18.925     1680.860      698.233      358.173        0.335        0.137       62.816       15.070        0.058      343.024       18.846      859.852
09/02/2014  00:57:00      -65.044      -48.661        4.145       40.036       23.615       22.452     1602.893      557.676      504.099        0.464        0.133       81.232       19.676        0.059      343.031       18.857      859.845
09/02/2014  00:58:00      -41.951      -28.239        5.738       38.425       21.259       18.875     1476.474      451.926      356.262        0.244        0.114       50.571       21.472        0.180      342.997       18.798      859.836
09/02/2014  00:59:00      -78.277      -54.897        1.446       33.473       21.340       17.238     1120.423      455.375      297.135        0.551        0.094       95.608       13.698        0.021      343.053       18.895      859.831
09/02/2014  01:00:00     -103.944      -43.185       -2.306       22.309       17.190       14.013      497.696      295.479      196.377        0.683        0.049      112.558        8.905        0.006      343.007       18.815      859.824
09/02/2014  01:01:00     -107.691      -45.871        1.360       20.012       18.099       14.258      400.471      327.577      203.285        0.732        0.047      117.054        9.458        0.007      342.951       18.721      859.808
09/02/2014  01:02:00      -78.031      -48.325        3.992       33.008       19.839       15.735     1089.543      393.594      247.602        0.509        0.087       91.783       14.274        0.024      342.906       18.644      859.813
09/02/2014  01:03:00      -80.097      -32.053        5.007       31.974       19.501       18.768     1022.360      380.299      352.228        0.461        0.088       86.272       15.410        0.032      342.828       18.510      859.807
09/02/2014  01:04:00      -86.314      -43.276        2.626       35.651       20.894       16.564     1270.969      436.579      274.371        0.566        0.099       96.556       18.959        0.039      342.807       18.476      859.798
09/02/2014  01:05:00     -100.614      -40.879       -5.990       20.957       24.496       15.115      439.208      600.037      228.467        0.655        0.063      108.602        9.756        0.008      342.809       18.478      859.797
09/02/2014  01:06:00      -98.251      -42.091       -5.497       19.375       19.395        9.631      375.383      376.161       92.765        0.615        0.042      106.887        5.106        0.002      342.798       18.460      859.789
09/02/2014  01:07:00      -96.972      -41.158       -3.556       28.360       17.345       14.859      804.311      300.845      220.781        0.622        0.066      105.345       11.912        0.013      342.733       18.350      859.786
09/02/2014  01:08:00      -99.457      -47.536       -7.002       24.184       16.755       14.516      584.851      280.735      210.705        0.664        0.054      110.234       13.686        0.015      342.733       18.348      859.796
09/02/2014  01:09:00     -101.447      -57.804       -1.923       28.853       20.044       17.329      832.483      401.776      300.288        0.759        0.077      116.760        8.633        0.005      342.707       18.306      859.803
09/02/2014  01:10:00      -98.212      -51.887       -1.502       30.121       19.152       18.117      907.295      366.811      328.241        0.697        0.080      111.076       16.287        0.022      342.669       18.241      859.796
09/02/2014  01:11:00      -93.414      -62.963       -5.213       15.393       14.940       13.266      236.951      223.201      175.991        0.668        0.032      112.653        8.418        0.006      342.694       18.284      859.798
09/02/2014  01:12:00      -92.165      -47.859       -7.244       19.529       18.367       15.604      381.373      337.343      243.492        0.590        0.048      103.851       11.577        0.012      342.707       18.306      859.803
09/02/2014  01:13:00      -96.093      -43.262       -6.794       13.674       10.802        9.187      186.977      116.689       84.398        0.577        0.019      105.382        6.154        0.003      342.701       18.295      859.802
09/02/2014  01:14:00     -100.238      -45.407       -3.438       15.108       14.298       11.840      228.264      204.439      140.191        0.635        0.029      110.043        7.408        0.005      342.700       18.291      859.803
09/02/2014  01:15:00     -113.434      -47.616       -3.411       16.563       17.488       12.059      274.327      305.841      145.429        0.794        0.036      123.022        7.078        0.003      342.723       18.332      859.805
09/02/2014  01:16:00     -117.592      -42.152       -4.580       19.931       15.177        8.859      397.233      230.328       78.484        0.817        0.035      124.919        4.728        0.001      342.755       18.384      859.797
09/02/2014  01:17:00      -89.778      -40.155       -1.709       16.162       18.814       12.315      261.225      353.951      151.650        0.522        0.038       98.349       10.556        0.012      342.711       18.312      859.789
09/02/2014  01:18:00      -97.166      -36.843       -4.589       13.571        8.631       10.828      184.185       74.493      117.241        0.560        0.019      103.917        7.892        0.006      342.679       18.257      859.806
09/02/2014  01:19:00     -105.347      -48.451      -10.177        9.478       13.497        8.875       89.823      182.178       78.757        0.695        0.018      115.955        4.007        0.001      342.718       18.324      859.804
09/02/2014  01:20:00      -96.374      -50.118       -9.677        9.409       11.198        8.713       88.535      125.393       75.908        0.609        0.014      108.626        7.564        0.005      342.681       18.260      859.809
09/02/2014  01:21:00      -90.595      -55.112       -6.134       19.497       16.452       12.638      380.134      270.668      159.727        0.605        0.041      106.041        8.179        0.006      342.661       18.226      859.823
09/02/2014  01:22:00      -68.168      -60.898       -3.020       36.680       15.537       16.676     1345.452      241.401      278.091        0.511        0.093       91.408       14.294        0.024      342.663       18.230      859.823
09/02/2014  01:23:00      -74.701      -56.033       -1.381       30.798       23.500       21.626      948.539      552.247      467.697        0.534        0.098       93.381       19.518        0.044      342.628       18.170      859.821
09/02/2014  01:24:00      -56.954      -39.964        2.126       38.109       27.177       20.992     1452.312      738.586      440.684        0.374        0.132       69.576       19.066        0.075      342.573       18.078      859.831
09/02/2014  01:25:00      -61.440      -49.899       -4.367       32.815       26.204       21.064     1076.857      686.665      443.706        0.425        0.110       79.150       17.121        0.047      342.616       18.150      859.830
09/02/2014  01:26:00      -41.276      -32.997        7.004       29.902       21.793       17.157      894.130      474.933      294.352        0.225        0.083       52.844       12.720        0.058      342.632       18.177      859.829
09/02/2014  01:27:00      -66.355      -55.143       -0.329       19.668       23.966       16.671      386.828      574.387      277.916        0.434        0.062       86.276       11.830        0.019      342.636       18.185      859.835
09/02/2014  01:28:00      -77.101      -36.482       -5.371       18.684       15.335       13.041      349.094      235.153      170.077        0.403        0.038       85.296        8.195        0.009      342.667       18.236      859.840
09/02/2014  01:29:00      -31.500      -38.574        8.535       39.350       34.411       20.863     1548.447     1184.091      435.279        0.286        0.158       49.801       23.185        0.217      342.603       18.127      859.832
09/02/2014  01:30:00      -72.123      -39.912       -4.860       19.471       19.748       12.383      379.111      389.970      153.341        0.387        0.046       82.430        9.105        0.012      342.589       18.103      859.835
09/02/2014  01:31:00      -64.888      -59.133        1.416       26.757       20.927       18.033      715.949      437.919      325.179        0.459        0.074       87.790       16.480        0.035      342.628       18.171      859.834
09/02/2014  01:32:00      -53.789      -49.578        6.597       30.116       22.734       18.975      906.960      516.838      360.054        0.359        0.089       73.152       17.854        0.060      342.557       18.051      859.833
09/02/2014  01:33:00      -74.950      -53.139       -0.142       37.216       22.539       20.658     1385.037      508.017      426.750        0.538        0.116       91.876       19.040        0.043      342.530       18.005      859.818
09/02/2014  01:34:00      -83.663      -54.973       -0.749       39.988       26.578       19.354     1599.070      706.402      374.593        0.635        0.134      100.107       20.572        0.042      342.505       17.961      859.818
09/02/2014  01:35:00      -58.037      -45.096        2.498       36.757       24.500       21.619     1351.114      600.242      467.403        0.391        0.121       73.498       15.041        0.042      342.425       17.827      859.814
09/02/2014  01:36:00      -68.606      -33.448        5.828       30.997       21.976       19.652      960.805      482.924      386.191        0.384        0.091       76.325       17.966        0.055      342.457       17.880      859.795
09/02/2014  01:37:00      -58.077      -38.425        4.561       40.619       25.085       19.630     1649.870      629.267      385.334        0.377        0.133       69.638       18.925        0.074      342.471       17.903      859.789
09/02/2014  01:38:00      -65.043      -34.419        2.105       37.836       29.140       22.618     1431.530      849.152      511.578        0.411        0.140       73.589       20.415        0.077      342.499       17.951      859.786
09/02/2014  01:39:00      -83.829      -54.627       -7.975       25.456       22.687       14.527      648.022      514.705      211.044        0.572        0.069      100.057        6.730        0.005      342.517       17.982      859.779
09/02/2014  01:40:00      -78.510      -54.141       -7.049       24.213       14.060       13.241      586.285      197.687      175.320        0.505        0.048       95.368       12.016        0.016      342.566       18.065      859.767
09/02/2014  01:41:00      -99.280      -41.411       -6.913       33.878       17.743       10.720     1147.739      314.811      114.927        0.660        0.079      107.571       10.880        0.010      342.562       18.057      859.767
09/02/2014  01:42:00     -125.123      -57.033      -12.569       13.272       18.246        9.996      176.150      332.930       99.911        0.984        0.030      137.508        4.736        0.001      342.540       18.022      859.765
09/02/2014  01:43:00     -117.441      -56.208       -7.777       15.569       15.888       10.835      242.387      252.418      117.400        0.881        0.031      130.199        7.349        0.003      342.504       17.961      859.757
09/02/2014  01:44:00     -101.807      -49.196       -5.072       25.703       17.361       14.595      660.652      301.389      213.002        0.699        0.059      113.070       13.978        0.015      342.422       17.820      859.754
09/02/2014  01:45:00     -112.686      -49.671       -4.966       24.351       19.423       15.212      592.996      377.242      231.402        0.820        0.060      123.148        8.405        0.005      342.367       17.727      859.753
09/02/2014  01:46:00     -122.334      -47.437       -7.467       19.140       17.228       12.688      366.354      296.817      160.978        0.905        0.041      131.210        9.218        0.005      342.327       17.660      859.750
09/02/2014  01:47:00     -123.016      -52.038       -3.862       18.213       15.501       13.306      331.728      240.273      177.057        0.930        0.037      133.570       12.256        0.008      342.316       17.638      859.735
09/02/2014  01:48:00     -122.361      -49.420       -6.775       19.960       12.108       12.832      398.417      146.613      164.670        0.908        0.035      131.964        9.182        0.005      342.393       17.771      859.731
09/02/2014  01:49:00     -113.560      -52.467       -4.115       22.886       20.204       14.607      523.773      408.193      213.366        0.841        0.057      125.095       13.567        0.012      342.323       17.652      859.736
09/02/2014  01:50:00     -114.707      -55.901        0.684       23.733       22.477       15.089      563.264      505.202      227.689        0.879        0.065      127.604       12.291        0.009      342.456       17.877      859.720
09/02/2014  01:51:00     -117.695      -37.300       -8.529       26.589       22.081       13.343      706.988      487.590      178.041        0.834        0.069      123.465        9.989        0.007      342.420       17.817      859.714
09/02/2014  01:52:00      -94.764      -38.203        1.682       25.275       20.936       15.025      638.834      438.329      225.741        0.587        0.065      102.175       12.307        0.015      342.410       17.799      859.724
09/02/2014  01:53:00     -106.419      -28.985       -1.965       21.925       21.283       11.689      480.698      452.970      136.643        0.662        0.054      110.295        9.506        0.007      342.451       17.870      859.712
09/02/2014  01:54:00     -131.501      -36.931       -0.802       29.738       22.181       15.699      884.376      491.975      246.445        1.014        0.081      136.589       14.809        0.012      342.385       17.757      859.709
09/02/2014  01:55:00      -86.063      -45.545       -1.682       26.420       21.728       12.751      697.991      472.122      162.595        0.541        0.067       97.372        9.197        0.009      342.456       17.879      859.711
09/02/2014  01:56:00      -83.782      -38.633       -7.434       21.922       17.473       13.910      480.588      305.307      193.497        0.477        0.049       92.260       12.777        0.019      342.516       17.982      859.708
09/02/2014  01:57:00     -118.257      -37.851      -10.561       16.072       13.841       10.877      258.313      191.566      118.317        0.805        0.028      124.167       10.432        0.007      342.446       17.860      859.698
09/02/2014  01:58:00      -99.958      -20.419      -16.339       15.899       11.900        8.690      252.766      141.602       75.522        0.557        0.023      102.022        3.102        0.001      342.386       17.761      859.694
09/02/2014  01:59:00      -89.495      -18.022      -18.409       12.372       13.341        8.860      153.069      177.985       78.507        0.454        0.020       91.292        7.310        0.006      342.379       17.748      859.696
09/02/2014  02:00:00     -136.643      -43.650      -21.171       10.905       10.837        9.750      118.917      117.435       95.059        1.068        0.017      143.445        4.652        0.001      342.196       17.439      859.692
09/02/2014  02:01:00     -123.022      -49.432      -18.006       10.771       19.049       11.801      116.024      362.849      139.269        0.926        0.031      132.582        6.829        0.003      342.091       17.257      859.693
09/02/2014  02:02:00     -119.710      -27.504      -15.878       11.719       11.141        7.436      137.344      124.111       55.294        0.783        0.016      122.829        5.192        0.002      342.059       17.204      859.697
09/02/2014  02:03:00     -118.417      -21.566      -20.666       12.834       13.784        8.379      164.704      190.005       70.199        0.767        0.021      120.365        3.416        0.001      342.081       17.240      859.702
09/02/2014  02:04:00     -116.879      -20.212      -16.971       21.927       18.173       13.537      480.814      330.253      183.263        0.768        0.050      118.614       14.548        0.015      342.105       17.281      859.696
09/02/2014  02:05:00     -122.145      -33.489      -20.769       12.907        9.429        8.544      166.581       88.910       72.997        0.840        0.016      126.653        5.174        0.002      342.096       17.267      859.687
09/02/2014  02:06:00     -110.156      -45.668      -11.927       15.189       16.684       12.838      230.718      278.352      164.826        0.752        0.034      119.247       10.436        0.008      342.140       17.340      859.686
09/02/2014  02:07:00     -105.600      -27.445      -10.430       12.277       15.878       10.342      150.726      252.100      106.954        0.626        0.025      109.109        6.255        0.003      342.241       17.512      859.687
09/02/2014  02:08:00     -103.765      -40.836      -16.623       13.266        9.840        9.144      175.981       96.826       83.610        0.653        0.018      111.511        5.443        0.002      342.166       17.385      859.675
09/02/2014  02:09:00     -124.918      -39.045      -20.033        8.837       12.423        6.967       78.100      154.328       48.541        0.891        0.014      130.878        6.429        0.002      342.149       17.357      859.666
09/02/2014  02:10:00     -102.594      -50.649      -17.870       14.001       19.714       10.767      196.035      388.652      115.926        0.706        0.035      114.415        6.763        0.003      342.220       17.476      859.667
09/02/2014  02:11:00     -108.540      -43.604      -17.663        9.036       12.692        6.456       81.650      161.090       41.683        0.714        0.014      116.972        2.776        0.001      342.265       17.553      859.652
09/02/2014  02:12:00     -100.605      -40.928       -8.216       15.128       15.141       11.521      228.870      229.251      132.741        0.623        0.030      108.612        4.527        0.002      342.366       17.726      859.644
09/02/2014  02:13:00      -55.231      -28.721        9.709       35.998       17.901       18.779     1295.876      320.435      352.643        0.297        0.098       62.252       19.289        0.096      342.300       17.612      859.649
09/02/2014  02:14:00      -55.739      -37.933       -0.593       34.621       19.500       17.510     1198.609      380.251      306.583        0.322        0.094       67.422       13.249        0.039      342.185       17.418      859.660
09/02/2014  02:15:00      -65.181      -51.879       -2.419       34.073       31.287       16.399     1160.960      978.847      268.920        0.468        0.120       83.307        9.075        0.012      342.149       17.357      859.662
09/02/2014  02:16:00      -93.872      -75.596       -4.604       28.075       34.241       20.778      788.183     1172.435      431.706        0.847        0.120      120.527       18.403        0.023      342.207       17.456      859.655
09/02/2014  02:17:00      -81.340      -63.407       -5.899       44.842       24.391       18.206     2010.764      594.930      331.477        0.680        0.147      103.134       21.094        0.042      342.255       17.535      859.651
09/02/2014  02:18:00      -73.839      -46.140       -1.500       34.019       22.967       19.029     1157.275      527.475      362.085        0.481        0.102       87.070       17.909        0.042      342.303       17.617      859.659
09/02/2014  02:19:00      -70.336      -58.778       -4.532       28.507       26.326       15.990      812.673      693.041      255.678        0.509        0.088       91.663        7.891        0.007      342.295       17.604      859.661
09/02/2014  02:20:00      -76.069      -52.258       -6.159       25.454       27.869       18.023      647.887      776.689      324.843        0.515        0.087       92.290       17.754        0.037      342.253       17.534      859.656
09/02/2014  02:21:00      -32.637      -31.819        0.210       33.310       20.772       19.661     1109.574      431.465      386.574        0.200        0.096       45.581       20.508        0.202      342.135       17.332      859.647
09/02/2014  02:22:00      -68.568      -48.927       -3.587       30.362       22.875       14.852      921.832      523.243      220.583        0.439        0.083       84.234       12.737        0.023      342.195       17.434      859.644
09/02/2014  02:23:00      -94.679      -52.782      -10.303       17.883       15.392       13.048      319.790      236.910      170.238        0.629        0.036      108.397        9.157        0.007      342.236       17.505      859.636
09/02/2014  02:24:00      -71.600      -42.095       -7.773       16.272       12.918       11.455      264.793      166.867      131.215        0.376        0.028       83.057        9.616        0.013      342.288       17.593      859.614
09/02/2014  02:25:00      -78.024      -42.285       -9.738        9.010       10.920        8.022       81.175      119.238       64.350        0.412        0.013       88.745        2.837        0.001      342.311       17.632      859.601
09/02/2014  02:26:00      -99.067      -34.810      -10.343        9.627        9.858        6.450       92.685       97.178       41.607        0.568        0.012      105.004        4.540        0.002      342.239       17.510      859.605
09/02/2014  02:27:00     -101.986      -39.649      -10.165       10.185       14.506        8.738      103.733      210.415       76.345        0.623        0.020      109.422        5.659        0.003      342.255       17.536      859.604
09/02/2014  02:28:00      -90.699      -45.083       -1.327       18.781       12.922       10.652      352.737      166.981      113.475        0.545        0.032      101.286        9.408        0.009      342.226       17.488      859.597
09/02/2014  02:29:00      -87.422      -23.855      -14.452       13.650       17.827       11.585      186.332      317.810      134.223        0.453        0.032       90.619        9.002        0.010      342.194       17.433      859.607
09/02/2014  02:30:00      -87.317      -36.720       -9.639       13.849       13.319       11.374      191.793      177.392      129.379        0.478        0.025       94.724        7.146        0.006      342.136       17.334      859.610
09/02/2014  02:31:00      -91.288      -46.059       -6.842       19.798       16.480        9.957      391.959      271.584       99.148        0.563        0.038      102.249        6.974        0.005      342.156       17.368      859.615
09/02/2014  02:32:00     -104.508      -59.969       -7.693       14.662       13.658        9.548      214.976      186.539       91.170        0.753        0.025      120.491        6.111        0.003      342.130       17.324      859.621
09/02/2014  02:33:00     -101.835      -44.472       -7.737       15.435       18.344       12.678      238.234      336.493      160.731        0.657        0.037      111.122        7.106        0.004      342.122       17.310      859.636
09/02/2014  02:34:00      -99.731      -45.271       -4.457       12.566       15.287       10.421      157.916      233.696      108.598        0.626        0.025      109.525        5.579        0.003      342.165       17.385      859.648
09/02/2014  02:35:00      -70.103      -54.891       -2.814       33.352       21.878       15.017     1112.353      478.662      225.512        0.488        0.091       89.036       15.378        0.030      342.173       17.397      859.649
09/02/2014  02:36:00      -58.523      -50.465       -2.946       34.819       18.339       13.393     1212.331      336.317      179.384        0.385        0.086       77.277       14.564        0.036      342.110       17.290      859.637
09/02/2014  02:37:00      -88.661      -60.867       -7.684       23.965       22.570       12.940      574.314      509.389      167.444        0.644        0.063      107.544       11.855        0.012      342.087       17.252      859.645
09/02/2014  02:38:00      -79.690      -51.508       -4.237       27.917       18.974       14.806      779.380      360.028      219.223        0.519        0.068       94.887       11.389        0.014      342.077       17.234      859.643
09/02/2014  02:39:00      -67.441      -54.136       -0.442       28.788       25.280       17.118      828.724      639.073      293.024        0.462        0.088       86.481       13.162        0.023      342.010       17.121      859.638
09/02/2014  02:40:00      -86.659      -52.194       -6.718       22.843       16.159       11.032      521.803      261.114      121.709        0.559        0.045      101.164        8.903        0.008      341.970       17.053      859.638
09/02/2014  02:41:00      -70.598      -33.273        2.551       22.395       15.229       11.859      501.533      231.908      140.626        0.349        0.044       78.046       10.105        0.017      341.925       16.976      859.650
09/02/2014  02:42:00      -82.706      -30.396       -3.607       24.689       14.605       12.215      609.551      213.320      149.214        0.437        0.049       88.115       13.160        0.022      341.981       17.071      859.660
09/02/2014  02:43:00      -98.485      -43.018      -11.212       14.264       11.855       11.308      203.467      140.550      127.865        0.607        0.024      107.470        4.736        0.002      341.947       17.015      859.663
09/02/2014  02:44:00     -102.406      -43.673      -11.653       17.365       19.138       12.011      301.548      366.253      144.266        0.667        0.041      111.330        4.819        0.002      341.905       16.942      859.661
09/02/2014  02:45:00     -102.561      -49.541       -5.707       14.979       15.296        9.720      224.376      233.959       94.481        0.678        0.028      113.899        3.652        0.001      341.953       17.025      859.675
09/02/2014  02:46:00     -100.950      -56.982       -7.154       16.653       11.979       12.600      277.336      143.499      158.763        0.703        0.029      115.922        6.864        0.004      342.056       17.199      859.678
09/02/2014  02:47:00     -100.906      -50.476       -3.396       15.869       15.026       13.694      251.821      225.772      187.516        0.670        0.033      112.827        7.868        0.005      342.017       17.132      859.677
09/02/2014  02:48:00     -104.611      -53.620      -10.266       15.956       13.536       10.555      254.593      183.217      111.411        0.724        0.027      117.553        8.040        0.005      342.038       17.167      859.679
09/02/2014  02:49:00     -113.538      -50.655       -8.768       10.214       10.672        7.011      104.326      113.888       49.151        0.790        0.013      124.326        4.358        0.001      342.017       17.133      859.692
09/02/2014  02:50:00     -108.781      -47.233      -11.594        9.591        9.654        8.101       91.990       93.195       65.621        0.722        0.013      118.593        4.901        0.002      341.939       16.999      859.704
09/02/2014  02:51:00      -66.064      -39.176       -4.585       37.994       18.150       21.092     1443.549      329.412      444.871        0.407        0.111       76.806       20.560        0.072      341.861       16.868      859.716
09/02/2014  02:52:00      -49.890      -41.699        1.597       34.788       22.161       15.708     1210.235      491.093      246.741        0.309        0.097       65.022       18.254        0.079      341.850       16.850      859.723
09/02/2014  02:53:00      -67.401      -49.776        0.593       20.675       20.511       14.510      427.436      420.681      210.543        0.404        0.053       83.789        7.437        0.008      341.905       16.943      859.735
09/02/2014  02:54:00      -84.936      -58.704       -7.413       14.616       17.253       12.191      213.631      297.651      148.631        0.569        0.033      103.249        5.903        0.003      341.976       17.062      859.752
09/02/2014  02:55:00      -86.285      -47.806       -5.614       12.363       12.941        9.981      152.844      167.482       99.613        0.509        0.021       98.643        5.362        0.003      342.004       17.108      859.760
09/02/2014  02:56:00      -93.893      -36.272       -9.786       10.558       11.237        7.908      111.477      126.269       62.530        0.526        0.015      100.656        4.002        0.002      341.959       17.035      859.771
09/02/2014  02:57:00      -96.509      -35.635       -5.447       12.462       15.886       10.491      155.295      252.359      110.058        0.557        0.026      102.878        6.904        0.005      341.995       17.096      859.779
09/02/2014  02:58:00      -90.344      -17.695       -7.951       13.081       18.315       10.062      171.104      335.438      101.243        0.457        0.030       92.061        3.445        0.001      341.989       17.084      859.786
09/02/2014  02:59:00      -85.783      -13.057       -7.621       16.235       13.334       10.657      263.571      177.804      113.575        0.407        0.028       86.771        8.607        0.010      342.060       17.204      859.788
09/02/2014  03:00:00      -61.669      -19.628       -5.515       22.999       15.009        9.587      528.953      225.277       91.907        0.253        0.042       64.717        7.902        0.015      342.094       17.262      859.788
09/02/2014  03:01:00      -78.663       -3.828      -10.229       15.068       10.510        9.874      227.036      110.453       97.494        0.337        0.022       78.757        5.400        0.005      342.209       17.459      859.782
09/02/2014  03:02:00      -99.501       -7.552      -13.122       12.896       11.312        8.411      166.299      127.971       70.751        0.525        0.018       99.788        4.690        0.002      342.257       17.540      859.783
09/02/2014  03:03:00      -82.073      -21.332      -15.981       10.470       12.381        7.503      109.618      153.292       56.288        0.388        0.016       84.800        5.977        0.005      342.025       17.146      859.771
09/02/2014  03:04:00      -95.788      -10.502      -14.737        9.416       11.294        7.021       88.661      127.550       49.296        0.488        0.013       96.362        4.916        0.003      342.076       17.233      859.763
09/02/2014  03:05:00      -83.696      -30.137      -11.762       10.901       11.119        9.012      118.824      123.625       81.222        0.419        0.016       88.957        6.017        0.005      341.901       16.935      859.757
09/02/2014  03:06:00      -83.943      -45.247      -12.020       17.093       20.665       15.390      292.181      427.051      236.856        0.510        0.048       95.361        6.582        0.005      341.725       16.638      859.764
09/02/2014  03:07:00     -106.958      -39.673      -15.755       16.148       16.904       11.382      260.756      285.731      129.549        0.697        0.034      114.079        5.830        0.003      341.618       16.454      859.760
09/02/2014  03:08:00     -120.227      -32.891      -17.311       21.950       18.757       16.229      481.811      351.817      263.374        0.847        0.055      124.645       14.284        0.013      341.534       16.313      859.750
09/02/2014  03:09:00     -139.095       -8.024      -21.531        7.474       12.509        7.726       55.861      156.472       59.693        1.007        0.014      139.326        3.809        0.001      341.518       16.286      859.741
09/02/2014  03:10:00     -141.026      -11.645      -19.741        8.751        8.923        6.430       76.572       79.623       41.342        1.031        0.010      141.506        4.355        0.001      341.511       16.273      859.729
09/02/2014  03:11:00     -128.923      -22.328      -21.693       23.084       13.826       11.350      532.870      191.160      128.822        0.922        0.043      130.842       12.029        0.008      341.427       16.132      859.735
09/02/2014  03:12:00     -127.072      -34.125      -19.624       20.899       19.887       13.415      436.773      395.504      179.961        0.935        0.051      131.574       11.361        0.007      341.344       15.992      859.728
09/02/2014  03:13:00     -124.713      -33.134      -19.662       22.814       19.231       14.015      520.469      369.841      196.430        0.906        0.054      129.039       10.324        0.006      341.392       16.072      859.718
09/02/2014  03:14:00     -126.667      -43.547      -13.005       29.689       22.199       13.299      881.440      492.813      176.854        0.983        0.078      133.943       10.717        0.006      341.381       16.055      859.697
09/02/2014  03:15:00     -116.980      -45.106      -13.776       28.302       31.374       22.739      801.023      984.315      517.063        0.911        0.115      125.375       14.440        0.013      341.353       16.006      859.689
09/02/2014  03:16:00      -83.098      -43.800       -3.943       40.613       26.019       18.575     1649.456      676.971      345.017        0.575        0.134       93.934       18.004        0.037      341.374       16.042      859.690
09/02/2014  03:17:00      -68.488      -38.596        0.817       35.749       26.434       21.110     1277.964      698.743      445.642        0.430        0.121       78.614       18.738        0.057      341.377       16.048      859.685
09/02/2014  03:18:00     -105.424      -36.078       -7.930       38.800       25.939       17.580     1505.425      672.835      309.046        0.748        0.124      111.427       20.763        0.035      341.419       16.118      859.681
09/02/2014  03:19:00      -82.207       -4.236       -4.656       46.798       34.895       24.672     2190.063     1217.683      608.710        0.541        0.201       82.316       24.799        0.091      341.484       16.228      859.682
09/02/2014  03:20:00      -68.504       -3.895        1.178       40.905       33.954       25.712     1673.218     1152.882      661.098        0.410        0.174       68.615       20.044        0.085      341.477       16.217      859.686
09/02/2014  03:21:00      -94.262       -6.401      -11.311       33.856       28.772       18.718     1146.202      827.805      350.369        0.569        0.116       94.480       14.824        0.025      341.558       16.351      859.678
09/02/2014  03:22:00     -114.887       10.396       -8.204       35.731       31.694       23.902     1276.711     1004.515      571.302        0.811        0.143      115.356       17.914        0.024      341.645       16.501      859.675
09/02/2014  03:23:00     -156.826       36.646       -9.248       37.864       29.895       19.388     1433.699      893.699      375.905        1.436        0.135      161.051       14.881        0.009      341.730       16.647      859.677
09/02/2014  03:24:00     -170.795       36.195      -14.276       39.942       31.232       21.533     1595.362      975.450      463.679        1.686        0.152      174.588       17.292        0.010      341.746       16.673      859.675
09/02/2014  03:25:00     -132.981        3.594       -9.197       28.688       34.357       19.030      823.001     1180.426      362.152        1.007        0.118      133.030       14.363        0.012      341.707       16.609      859.667
09/02/2014  03:26:00     -137.956       37.794       -9.061       42.470       34.478       22.707     1803.686     1188.728      515.617        1.202        0.175      143.040       20.380        0.020      341.766       16.707      859.660
09/02/2014  03:27:00     -112.452       16.764      -13.981       43.791       34.387       20.954     1917.612     1182.466      439.065        0.833        0.177      113.694       15.947        0.020      341.790       16.746      859.663
09/02/2014  03:28:00      -90.440      -30.760        3.215       42.239       47.327       29.687     1784.092     2239.844      881.301        0.702        0.245       95.528       27.272        0.081      341.717       16.624      859.666
09/02/2014  03:29:00     -104.376      -10.583      -12.642       36.526       39.253       19.031     1334.163     1540.834      362.185        0.720        0.162      104.911       11.077        0.011      341.697       16.589      859.658
09/02/2014  03:30:00      -76.343      -13.107       -7.626       22.430       32.828       20.996      503.114     1077.688      440.815        0.404        0.101       77.460       12.902        0.028      341.697       16.589      859.650
09/02/2014  03:31:00     -119.461       10.351       -4.929       32.525       29.701       22.773     1057.876      882.163      518.600        0.843        0.123      119.909       18.273        0.023      341.735       16.654      859.655
09/02/2014  03:32:00     -107.616       -9.618      -12.359       23.260       24.471       15.907      541.030      598.817      253.032        0.661        0.070      108.045        4.924        0.002      341.686       16.572      859.650
09/02/2014  03:33:00      -97.141      -48.739       -6.846       25.058       20.837       13.773      627.894      434.182      189.689        0.655        0.063      108.682       11.670        0.012      341.666       16.538      859.645
09/02/2014  03:34:00      -98.724      -39.605       -6.094       26.150       24.367       15.598      683.841      593.734      243.313        0.644        0.076      106.372       11.034        0.011      341.589       16.406      859.659
09/02/2014  03:35:00     -104.956      -29.305       -1.645       40.424       29.612       19.305     1634.063      876.845      372.665        0.738        0.144      108.970       20.016        0.034      341.595       16.418      859.656
09/02/2014  03:36:00      -83.121      -34.580        3.829       36.086       20.030       13.905     1302.190      401.197      193.350        0.501        0.095       90.027       15.683        0.030      341.652       16.514      859.654
09/02/2014  03:37:00      -59.543      -20.688        0.491       14.757       23.106       10.715      217.756      533.887      114.801        0.242        0.043       63.035        7.002        0.012      341.756       16.691      859.658
09/02/2014  03:38:00      -14.667      -18.477        7.864       30.019       17.708       12.862      901.154      313.574      165.439        0.100        0.069       23.590       15.498        0.432      341.821       16.800      859.661
09/02/2014  03:39:00      -28.272      -33.883        2.072       27.854       30.366       16.391      775.870      922.111      268.649        0.196        0.098       44.129       18.303        0.172      341.821       16.800      859.661
09/02/2014  03:40:00      -18.252      -24.927        2.702       21.549       18.704       14.382      464.373      349.853      206.853        0.099        0.051       30.895       13.196        0.182      341.790       16.747      859.657
09/02/2014  03:41:00        1.259      -16.985        9.202        9.569       10.167       11.522       91.559      103.361      132.760        0.035        0.016       17.031        7.166        0.177      341.772       16.716      859.674
09/02/2014  03:42:00       -6.754      -14.724        7.816        8.493       10.021        8.714       72.137      100.425       75.940        0.029        0.012       16.199        7.132        0.194      341.743       16.667      859.680
09/02/2014  03:43:00      -12.125      -32.758        2.363       15.572        9.453       10.120      242.498       89.361      102.412        0.083        0.022       34.930        4.607        0.017      341.888       16.915      859.674
09/02/2014  03:44:00      -15.701      -21.515       -1.235       14.620       13.270       11.216      213.742      176.081      125.791        0.061        0.026       26.635        7.631        0.082      341.822       16.801      859.666
09/02/2014  03:45:00      -68.616      -30.383       -6.809       24.794       11.385       10.270      614.723      129.623      105.468        0.326        0.042       75.042        5.868        0.006      341.784       16.737      859.669
09/02/2014  03:46:00      -48.832      -36.512       -2.680       22.928       15.328       17.092      525.688      234.940      292.129        0.239        0.053       60.973       10.609        0.030      341.787       16.742      859.674
09/02/2014  03:47:00      -90.613      -72.481       -8.248       16.687       23.686       13.639      278.459      561.047      186.035        0.728        0.051      116.035        4.592        0.002      341.847       16.843      859.665
09/02/2014  03:48:00      -69.376      -40.420       -5.538       23.601       15.805       11.680      556.996      249.803      136.433        0.371        0.047       80.292        9.760        0.015      341.764       16.702      859.663
09/02/2014  03:49:00      -66.147      -52.299        0.195       37.736       15.672       17.886     1423.976      245.611      319.919        0.455        0.099       84.324       19.401        0.053      341.671       16.547      859.666
09/02/2014  03:50:00      -69.574      -47.267       -9.237       19.242       16.096       10.616      370.266      259.096      112.691        0.395        0.037       84.112        5.990        0.005      341.702       16.597      859.673
09/02/2014  03:51:00      -81.505      -41.020       -6.541       32.920       20.174       16.427     1083.694      406.995      269.830        0.506        0.088       91.245       18.593        0.042      341.789       16.746      859.673
09/02/2014  03:52:00      -69.160      -42.288        4.308       35.099       21.758       19.348     1231.932      473.399      374.346        0.433        0.104       81.064       19.860        0.060      341.637       16.488      859.672
09/02/2014  03:53:00     -109.017      -38.060       -5.256       18.605       22.513       12.691      346.148      506.833      161.059        0.719        0.051      115.469        6.168        0.003      341.653       16.515      859.666
09/02/2014  03:54:00     -110.069      -36.637       -7.526       12.438       18.054       13.205      154.701      325.957      174.359        0.708        0.033      116.007        7.973        0.005      341.580       16.391      859.656
09/02/2014  03:55:00      -99.395      -28.245       -3.851       18.897       18.388       13.354      357.088      338.112      178.328        0.578        0.044      103.330       10.406        0.010      341.549       16.338      859.653
09/02/2014  03:56:00     -106.940      -35.553       -1.028       16.714       19.819       11.347      279.366      392.796      128.757        0.675        0.040      112.695        5.841        0.003      341.548       16.336      859.651
09/02/2014  03:57:00     -102.122      -26.906       -2.938       23.728       27.129       15.769      563.024      735.978      248.676        0.635        0.077      105.607       10.188        0.009      341.472       16.208      859.645
09/02/2014  03:58:00     -110.070      -44.747        0.973       22.525       21.737       14.168      507.391      472.501      200.725        0.765        0.059      118.818       12.353        0.011      341.461       16.190      859.647
09/02/2014  03:59:00      -83.484      -21.534       -3.217       22.666       21.269       11.850      513.770      452.388      140.433        0.427        0.055       86.216        8.605        0.010      341.464       16.194      859.637
09/02/2014  04:00:00     -106.472      -24.965        0.589       43.889       21.733       19.358     1926.269      472.305      374.746        0.737        0.139      109.360       20.203        0.034      341.301       15.919      859.636
09/02/2014  04:01:00     -104.445      -17.604       -6.852       32.277       22.671       17.557     1041.795      513.955      308.251        0.656        0.093      105.918       18.501        0.031      341.296       15.910      859.624
09/02/2014  04:02:00      -82.699      -23.721        1.766       30.463       23.300       15.511      927.996      542.878      240.597        0.456        0.086       86.034       16.574        0.037      341.268       15.864      859.620
09/02/2014  04:03:00      -77.268      -25.417        7.650       40.443       25.637       18.152     1635.668      657.262      329.503        0.465        0.131       81.341       17.934        0.049      341.214       15.772      859.618
09/02/2014  04:04:00     -118.603      -31.343        2.401       32.776       26.087       18.815     1074.288      680.546      353.993        0.858        0.105      122.675       16.629        0.018      341.231       15.800      859.620
09/02/2014  04:05:00      -76.215      -21.038        8.507       40.030       29.072       18.867     1602.384      845.200      355.961        0.456        0.140       79.066       21.617        0.075      341.219       15.780      859.618
09/02/2014  04:06:00      -66.938      -20.664       -1.516       27.712       26.262       15.307      767.973      689.688      234.300        0.330        0.085       70.055       14.860        0.045      341.275       15.874      859.607
09/02/2014  04:07:00      -74.168      -18.625       -2.120       37.471       21.858       14.938     1404.083      477.786      223.142        0.398        0.105       76.470       12.325        0.026      341.264       15.855      859.596
09/02/2014  04:08:00      -87.969      -11.182       -3.669       28.935       25.877       15.213      837.249      669.628      231.434        0.481        0.087       88.677       12.405        0.020      341.224       15.788      859.596
09/02/2014  04:09:00      -86.487       -5.560        0.928       31.467       28.556       19.308      990.186      815.425      372.817        0.484        0.109       86.665       13.550        0.024      341.245       15.823      859.587
09/02/2014  04:10:00      -80.568       -9.700        2.469       30.467       27.524       20.837      928.212      757.578      434.166        0.436        0.106       81.150       16.139        0.040      341.218       15.778      859.575
09/02/2014  04:11:00      -64.961      -20.479        3.939       27.279       24.347       14.616      744.118      592.775      213.621        0.310        0.078       68.112       13.408        0.039      341.309       15.933      859.560
09/02/2014  04:12:00      -70.109      -32.825        6.849       32.604       21.498       14.892     1063.035      462.155      221.769        0.389        0.087       77.413        9.592        0.015      341.370       16.036      859.539
09/02/2014  04:13:00      -86.966      -46.702       -0.685       29.281       17.434       14.348      857.373      303.934      205.860        0.556        0.068       98.713       15.222        0.024      341.415       16.112      859.538
09/02/2014  04:14:00     -105.368      -39.913       -1.208       17.853       15.318       11.840      318.716      234.636      140.178        0.670        0.035      112.674        8.233        0.005      341.435       16.144      859.537
09/02/2014  04:15:00      -80.081      -49.102        0.578       25.166       19.108       12.577      633.342      365.115      158.170        0.499        0.058       93.936       11.316        0.015      341.425       16.129      859.530
09/02/2014  04:16:00      -48.027      -37.210        2.680       28.994       21.921       14.811      840.627      480.511      219.360        0.262        0.077       60.755       13.603        0.050      341.389       16.066      859.531
09/02/2014  04:17:00      -71.441      -35.919        0.493       31.738       16.032       14.623     1007.290      257.035      213.819        0.394        0.074       79.963       16.937        0.045      341.328       15.962      859.523
09/02/2014  04:18:00      -82.874      -31.602       -6.236       18.917       15.450       11.514      357.842      238.699      132.567        0.432        0.036       88.695        8.739        0.010      341.297       15.913      859.525
09/02/2014  04:19:00      -72.178      -23.361        0.616       17.020       16.621       11.586      289.695      276.255      134.236        0.323        0.035       75.865        8.322        0.012      341.221       15.784      859.530
09/02/2014  04:20:00      -67.448      -32.780        3.121       22.799       14.866       13.057      519.779      220.995      170.474        0.327        0.046       74.992        9.303        0.015      341.190       15.731      859.526
09/02/2014  04:21:00      -97.604      -43.281       -1.849       19.483       20.958       12.427      379.589      439.248      154.440        0.619        0.049      106.770        6.924        0.004      341.242       15.818      859.528
09/02/2014  04:22:00      -54.338      -38.312        0.519       32.002       19.276       13.995     1024.101      371.566      195.855        0.301        0.080       66.486       15.128        0.052      341.257       15.845      859.546
09/02/2014  04:23:00      -49.962      -41.134       -3.093       31.613       14.376       16.362      999.391      206.671      267.702        0.284        0.074       64.717       15.935        0.061      341.348       15.999      859.550
09/02/2014  04:24:00      -48.208      -33.953        3.746       41.923       25.777       19.267     1757.497      664.441      371.227        0.314        0.140       58.965       22.623        0.147      341.280       15.883      859.543
09/02/2014  04:25:00      -21.636      -27.170        7.603       32.816       17.094       17.354     1076.880      292.218      301.167        0.147        0.084       34.732       17.023        0.240      341.242       15.820      859.551
09/02/2014  04:26:00      -25.286      -19.143        4.630       26.437       15.147       15.246      698.907      229.438      232.444        0.109        0.058       31.715       11.236        0.126      341.265       15.857      859.558
09/02/2014  04:27:00      -52.255      -23.383       -2.087       18.137       15.450       12.061      328.958      238.710      145.465        0.200        0.036       57.248       11.101        0.038      341.305       15.925      859.571
09/02/2014  04:28:00      -30.101      -19.197       -3.546       28.432       11.467       10.307      808.402      131.484      106.233        0.117        0.052       35.702        3.168        0.008      341.348       16.000      859.576
09/02/2014  04:29:00      -66.508      -27.958       -1.141       10.719       13.477        8.723      114.904      181.637       76.098        0.279        0.019       72.146        5.672        0.006      341.358       16.015      859.575
09/02/2014  04:30:00      -53.980      -31.421       -2.046       32.907       18.461       11.197     1082.888      340.804      125.377        0.273        0.077       62.458       11.305        0.033      341.266       15.859      859.572
09/02/2014  04:31:00      -71.164      -43.280        1.293       19.019       19.445       12.183      361.716      378.114      148.424        0.391        0.044       83.291        8.695        0.011      341.294       15.907      859.566
09/02/2014  04:32:00      -61.026      -26.739        3.279       27.077       17.460       13.350      733.168      304.849      178.233        0.283        0.061       66.627       13.787        0.043      341.298       15.913      859.559
09/02/2014  04:33:00      -23.843      -15.058        4.101       18.273       12.476       15.466      333.914      155.648      239.206        0.077        0.036       28.200       12.661        0.202      341.209       15.763      859.563
09/02/2014  04:34:00      -65.312      -13.762        2.561       18.656       12.412       10.879      348.054      154.052      118.349        0.254        0.031       66.747       11.035        0.027      341.219       15.780      859.565
09/02/2014  04:35:00      -71.524      -21.869       -3.885       16.108       17.624        8.005      259.452      310.598       64.085        0.312        0.032       74.793        7.170        0.009      341.161       15.682      859.564
09/02/2014  04:36:00      -97.012      -28.131       -4.169       14.522       11.423        8.465      210.895      130.485       71.657        0.532        0.021      101.008        4.430        0.002      341.126       15.622      859.563
09/02/2014  04:37:00     -102.109      -43.794       -6.965        9.950       13.250        7.733       99.000      175.567       59.797        0.636        0.017      111.105        2.850        0.001      341.142       15.648      859.561
09/02/2014  04:38:00     -113.424      -23.891       -6.513       28.159       17.818       14.829      792.932      317.481      219.901        0.740        0.067      115.913        9.963        0.007      341.098       15.573      859.563
09/02/2014  04:39:00     -109.196      -24.829       -3.903       35.967       20.372       19.110     1293.644      415.014      365.211        0.731        0.104      111.983       19.291        0.030      340.982       15.377      859.561
09/02/2014  04:40:00      -96.503       -5.692       -4.134       37.255       16.839       16.711     1387.898      283.547      279.261        0.566        0.098       96.671       17.170        0.032      340.937       15.302      859.550
09/02/2014  04:41:00      -83.987      -25.637        2.055       26.781       25.995       15.513      717.248      675.749      240.657        0.467        0.082       87.813       13.163        0.022      340.946       15.319      859.540
09/02/2014  04:42:00     -114.363      -29.083       -2.518       35.131       24.260       16.234     1234.187      588.553      263.544        0.801        0.104      118.003       17.478        0.022      340.966       15.351      859.537
09/02/2014  04:43:00     -111.962      -31.810       -4.297       25.912       18.415       16.127      671.437      339.128      260.077        0.742        0.064      116.393       14.848        0.016      340.939       15.307      859.537
09/02/2014  04:44:00      -83.555      -23.665        3.837       31.920       22.555       19.566     1018.906      508.746      382.837        0.473        0.096       86.842       20.649        0.057      340.856       15.167      859.532
09/02/2014  04:45:00      -88.991      -19.188       -6.280       23.602       18.336       13.158      557.068      336.195      173.133        0.470        0.053       91.036        9.274        0.010      340.818       15.100      859.538
09/02/2014  04:46:00     -103.787      -20.966       -8.073       17.360       16.279       13.477      301.383      265.019      181.638        0.601        0.037      105.884        5.550        0.003      340.831       15.122      859.541
09/02/2014  04:47:00     -113.651      -24.048      -13.978       24.402       14.152       11.817      595.475      200.272      139.635        0.731        0.047      116.167        6.027        0.003      340.888       15.220      859.546
09/02/2014  04:48:00     -129.019      -45.566      -20.932       13.626       18.890        9.346      185.671      356.821       87.346        0.989        0.031      136.829        4.987        0.001      340.827       15.117      859.547
09/02/2014  04:49:00     -114.545      -64.504      -14.995       23.231       15.121       12.564      539.674      228.654      157.863        0.922        0.046      131.459       10.811        0.007      340.700       14.902      859.547
09/02/2014  04:50:00      -97.653      -59.497       -3.205       37.684       24.124       15.912     1420.069      581.968      253.190        0.767        0.113      114.350       13.508        0.014      340.636       14.793      859.538
09/02/2014  04:51:00      -98.403      -26.927       -1.018       25.606       17.679       16.849      655.666      312.561      283.898        0.583        0.063      102.021       13.294        0.017      340.722       14.939      859.533
09/02/2014  04:52:00     -119.850      -39.072      -13.848       23.888       24.626       14.763      570.644      606.435      217.945        0.874        0.070      126.058        9.016        0.005      340.696       14.894      859.542
09/02/2014  04:53:00     -111.536      -35.798      -15.558       30.259       26.020       18.103      915.608      677.016      327.724        0.794        0.096      117.140       11.367        0.009      340.747       14.981      859.554
09/02/2014  04:54:00       -4.215      -58.002        2.545       51.065       27.745       21.883     2607.610      769.774      478.874        0.362        0.193       58.155       21.434        0.136      340.768       15.016      859.550
09/02/2014  04:55:00      -39.166      -20.924        2.339       36.514       22.528       19.745     1333.299      507.490      389.849        0.210        0.112       44.405       20.037        0.204      340.723       14.940      859.547
09/02/2014  04:56:00      -44.560      -37.193       -0.435       27.931       23.460       18.492      780.151      550.349      341.940        0.252        0.084       58.042       17.884        0.095      340.768       15.015      859.551
09/02/2014  04:57:00      -15.743      -17.100       -1.357       22.277       23.485       15.909      496.274      551.546      253.101        0.092        0.065       23.243       13.817        0.353      340.761       15.004      859.551
09/02/2014  04:58:00      -86.445      -54.475      -12.819       43.546       21.404       15.402     1896.252      458.139      237.223        0.660        0.130      102.177       17.276        0.029      340.744       14.977      859.552
09/02/2014  04:59:00     -109.420      -62.553       -6.502       25.649       24.523       20.902      657.892      601.383      436.877        0.881        0.085      126.038       15.936        0.016      340.796       15.063      859.557
09/02/2014  05:00:00     -137.269      -78.491       -6.037       40.054       23.705       18.573     1604.348      561.942      344.955        1.378        0.126      158.125       18.754        0.014      340.855       15.163      859.576
09/02/2014  05:01:00     -129.293      -77.829       -6.962       36.700       24.208       18.513     1346.926      586.008      342.738        1.255        0.114      150.911       11.190        0.005      340.946       15.317      859.574
09/02/2014  05:02:00     -112.676      -54.394       -3.717       37.648       27.294       23.184     1417.389      744.987      537.519        0.918        0.135      125.118       22.185        0.031      340.948       15.321      859.572
09/02/2014  05:03:00     -108.506      -71.182       -5.168       34.836       18.976       18.170     1213.528      360.074      330.162        0.939        0.095      129.771       12.373        0.009      340.955       15.333      859.572
09/02/2014  05:04:00     -110.364      -58.409       -8.168       25.456       21.450       14.466      647.985      460.122      209.268        0.849        0.066      124.867       11.962        0.009      340.996       15.403      859.591
09/02/2014  05:05:00     -108.064      -42.559      -10.677       22.971       18.514       14.082      527.681      342.769      198.310        0.734        0.053      116.143       10.919        0.009      340.994       15.400      859.586
09/02/2014  05:06:00     -116.277      -44.080        4.169       32.883       26.820       16.581     1081.278      719.300      274.921        0.878        0.104      124.352       14.161        0.013      340.900       15.241      859.578
09/02/2014  05:07:00     -140.515      -40.274       -9.241       17.738       15.387       13.781      314.635      236.750      189.919        1.110        0.037      146.172       10.001        0.005      340.858       15.168      859.579
09/02/2014  05:08:00      -96.748      -50.865       -4.955       26.200       17.232       15.073      686.440      296.956      227.182        0.659        0.061      109.304       11.178        0.010      340.794       15.060      859.570
09/02/2014  05:09:00     -116.183      -50.969       -9.962       21.860       23.190       11.638      477.873      537.753      135.454        0.867        0.058      126.872        9.201        0.005      340.769       15.020      859.560
09/02/2014  05:10:00      -86.823      -37.689       -2.066       30.173       29.936       15.227      910.407      896.158      231.860        0.550        0.102       94.650        8.972        0.009      340.794       15.060      859.570
09/02/2014  05:11:00     -101.494      -50.223        1.176       49.195       43.106       19.335     2420.190     1858.101      373.835        0.874        0.233      113.240       16.798        0.022      340.821       15.105      859.573
09/02/2014  05:12:00      -92.433        3.099       -1.013       57.234       40.049       29.437     3275.707     1603.910      866.559        0.715        0.287       92.485       31.834        0.118      340.817       15.100      859.577
09/02/2014  05:13:00      -91.653      -21.547       -3.864       65.067       54.301       29.884     4233.743     2948.619      893.024        0.848        0.404       94.151       31.007        0.108      340.861       15.173      859.576
09/02/2014  05:14:00     -103.709      -36.136       -8.737       40.402       38.495       21.331     1632.303     1481.863      455.026        0.785        0.178      109.825       19.022        0.030      340.860       15.172      859.580
09/02/2014  05:15:00     -135.732        7.488      -12.719       34.007       27.502       21.247     1156.502      756.371      451.436        1.050        0.118      135.938       19.806        0.021      340.846       15.149      859.575
09/02/2014  05:16:00      -95.928      -21.334       -2.013       43.332       26.658       19.408     1877.693      710.626      376.682        0.631        0.148       98.272       14.586        0.022      340.858       15.170      859.562
09/02/2014  05:17:00     -143.100      -70.170      -10.745       28.317       21.431       17.146      801.836      459.274      293.983        1.354        0.078      159.378       13.358        0.007      340.924       15.282      859.549
09/02/2014  05:18:00     -144.288      -31.815       -8.095       29.814       25.923       21.826      888.859      672.025      476.372        1.197        0.102      147.754       16.536        0.013      340.980       15.375      859.545
09/02/2014  05:19:00      -88.067      -26.919       -1.925       51.403       22.546       21.066     2642.226      508.312      443.778        0.604        0.180       92.089       24.307        0.070      340.889       15.220      859.545
09/02/2014  05:20:00     -112.702      -25.876       -4.979       45.152       27.233       23.096     2038.670      741.625      533.411        0.835        0.166      115.635       22.322        0.037      340.903       15.245      859.550
09/02/2014  05:21:00     -130.358      -54.793       -6.218       26.787       24.023       18.539      717.520      577.127      343.707        1.084        0.082      141.405       13.664        0.009      340.998       15.406      859.559
09/02/2014  05:22:00      -41.808      -30.410        8.410       41.243       28.759       19.626     1701.019      827.073      385.165        0.283        0.146       51.698       20.542        0.158      340.940       15.307      859.575
09/02/2014  05:23:00      -65.650      -45.005        4.431       44.637       31.289       20.019     1992.490      978.996      400.765        0.486        0.169       79.595       21.530        0.073      341.009       15.425      859.579
09/02/2014  05:24:00      -93.801      -60.137       -0.467       42.830       34.777       19.543     1834.432     1209.431      381.939        0.792        0.171      111.423       16.806        0.023      341.008       15.423      859.586
09/02/2014  05:25:00      -72.002      -48.146        4.902       55.021       33.082       25.263     3027.263     1094.407      638.232        0.614        0.238       86.615       26.087        0.091      341.027       15.455      859.600
09/02/2014  05:26:00      -86.356      -67.831       -4.079       42.560       39.008       23.157     1811.378     1521.620      536.246        0.797        0.193      109.810       22.519        0.042      341.140       15.646      859.595
09/02/2014  05:27:00     -108.214      -54.480       -4.763       49.024       35.830       21.752     2403.361     1283.756      473.155        0.943        0.208      121.154       24.482        0.041      341.044       15.484      859.591
09/02/2014  05:28:00      -98.232      -60.485        1.625       44.626       24.137       18.532     1991.444      582.575      343.451        0.811        0.146      115.361       20.969        0.033      340.992       15.395      859.614
09/02/2014  05:29:00     -101.470      -48.687       -1.020       52.118       28.643       21.519     2716.336      820.403      463.070        0.833        0.200      112.546       24.384        0.047      341.032       15.463      859.634
09/02/2014  05:30:00     -100.806      -61.577        1.550       47.732       29.127       21.881     2278.343      848.394      478.788        0.878        0.180      118.126       24.086        0.042      341.143       15.652      859.637
09/02/2014  05:31:00      -89.787      -56.183       -5.662       31.712       21.026       20.006     1005.660      442.079      400.234        0.655        0.092      105.917       19.805        0.035      341.214       15.771      859.643
09/02/2014  05:32:00      -49.858      -33.950        2.412       31.649       35.564       14.263     1001.656     1264.788      203.436        0.306        0.123       60.320       11.837        0.039      341.280       15.884      859.649
09/02/2014  05:33:00      -25.910      -14.936        4.134       28.666       16.784       16.409      821.743      281.691      269.264        0.114        0.069       29.907       15.812        0.280      341.223       15.786      859.653
09/02/2014  05:34:00      -31.450      -19.043        0.942       40.024       19.971       12.499     1601.903      398.861      156.217        0.175        0.108       36.766       16.445        0.200      341.208       15.762      859.646
09/02/2014  05:35:00      -87.058      -50.797       -2.750       33.734       26.883       19.251     1137.957      722.672      370.585        0.620        0.112      100.794       18.947        0.035      341.207       15.759      859.651
09/02/2014  05:36:00      -85.956      -38.211        2.352       40.670       19.012       12.000     1654.073      361.454      143.993        0.551        0.108       94.067       17.152        0.033      341.169       15.695      859.648
09/02/2014  05:37:00     -127.532      -45.475       -5.985       11.758       18.118        6.541      138.262      328.272       42.790        0.944        0.025      135.397        5.968        0.002      341.202       15.752      859.662
09/02/2014  05:38:00     -100.922      -47.970       -4.189       18.023       16.355       11.354      324.825      267.472      128.924        0.661        0.036      111.743        7.587        0.005      341.258       15.847      859.671
09/02/2014  05:39:00      -89.790      -51.699       -2.419       32.649       20.766       13.878     1065.965      431.207      192.601        0.621        0.084      103.610        8.151        0.006      341.168       15.695      859.673
09/02/2014  05:40:00      -62.207      -51.410       -1.909       26.130       16.744       13.304      682.764      280.347      177.002        0.383        0.057       80.702       12.896        0.026      341.082       15.548      859.669
09/02/2014  05:41:00      -81.652      -59.850       -3.737       21.640       17.003       12.528      468.289      289.091      156.942        0.559        0.046      101.238        8.522        0.007      340.990       15.391      859.667
09/02/2014  05:42:00      -53.860      -40.282       -6.934       23.003       19.121       12.195      529.126      365.612      148.709        0.281        0.052       67.257        7.695        0.013      340.930       15.291      859.675
09/02/2014  05:43:00      -58.067      -33.702        0.315       28.916       22.464       15.712      836.137      504.614      246.852        0.305        0.079       67.139       15.755        0.055      340.917       15.269      859.688
09/02/2014  05:44:00      -20.597      -25.696        6.987       30.323       23.933       16.182      919.477      572.775      261.845        0.144        0.088       32.932       15.138        0.211      340.867       15.184      859.686
09/02/2014  05:45:00      -33.391      -41.348        8.925       31.591       19.218       21.193      998.021      369.342      449.151        0.236        0.091       53.148       17.829        0.113      340.806       15.080      859.683
09/02/2014  05:46:00      -35.041      -50.446        1.603       24.234       15.739       15.647      587.308      247.729      244.836        0.243        0.054       61.422       14.524        0.056      341.024       15.449      859.670
09/02/2014  05:47:00      -38.833      -18.898        1.899       22.065       12.145       12.610      486.866      147.510      159.020        0.133        0.040       43.187       11.319        0.069      341.046       15.487      859.666
09/02/2014  05:48:00      -52.917      -11.994       -5.923        6.351        8.125        7.142       40.333       66.016       51.006        0.157        0.008       54.259        3.771        0.005      341.015       15.434      859.676
09/02/2014  05:49:00      -55.016      -14.271       -9.075       10.316       11.417        7.964      106.430      130.359       63.431        0.181        0.015       56.836        2.939        0.003      340.990       15.390      859.683
09/02/2014  05:50:00      -50.073      -17.437       -5.211        7.654        8.337        5.760       58.586       69.509       33.175        0.150        0.008       53.022        4.155        0.006      340.965       15.350      859.694
09/02/2014  05:51:00      -60.766      -16.296      -11.031       17.393        5.960        7.157      302.500       35.523       51.220        0.223        0.019       62.914        3.725        0.004      340.943       15.313      859.706
09/02/2014  05:52:00      -92.935       -9.223       -9.608        9.356       11.318        9.894       87.533      128.091       97.894        0.456        0.016       93.391        5.389        0.003      340.862       15.175      859.716
09/02/2014  05:53:00      -82.990      -41.286       -5.891       16.177       11.465       10.426      261.697      131.442      108.707        0.456        0.025       92.692        8.050        0.008      340.808       15.085      859.723
09/02/2014  05:54:00      -38.960      -27.798        4.112       28.472       20.756       14.892      810.683      430.830      221.775        0.189        0.073       47.861       13.429        0.079      340.764       15.010      859.731
09/02/2014  05:55:00      -75.081      -50.390       -0.748       31.805       22.398       15.475     1011.551      501.678      239.466        0.496        0.088       90.423       16.395        0.033      340.758       15.001      859.732
09/02/2014  05:56:00      -60.266      -44.875        0.488       40.610       28.328       20.475     1649.172      802.471      419.245        0.426        0.144       75.138       15.971        0.045      340.759       15.001      859.727
09/02/2014  05:57:00      -94.942      -60.904       -6.007       33.528       26.255       17.337     1124.132      689.337      300.562        0.744        0.106      112.798       15.803        0.020      340.858       15.169      859.735
09/02/2014  05:58:00      -77.292      -55.730       -2.864       31.791       27.327       10.987     1010.686      746.787      120.707        0.548        0.094       95.288       12.182        0.016      340.832       15.124      859.729
09/02/2014  05:59:00      -63.935      -29.665       -2.685       24.411       19.853       15.193      595.898      394.155      230.827        0.310        0.061       70.482       13.129        0.035      340.768       15.017      859.735
09/02/2014  06:00:00      -77.115       -5.607       -9.861       15.013       12.331       12.473      225.380      152.044      155.573        0.330        0.027       77.319        9.813        0.016      340.718       14.931      859.748
09/02/2014  06:01:00      -98.296      -25.263       -3.657       20.732       18.255       13.798      429.818      333.233      190.396        0.563        0.048      101.490       11.321        0.012      340.770       15.020      859.765
09/02/2014  06:02:00     -132.843      -18.771      -19.824       14.399       13.692       14.494      207.319      187.461      210.069        0.950        0.030      134.163        6.453        0.002      340.696       14.896      859.784
09/02/2014  06:03:00     -138.406      -21.579      -17.269       11.062       12.009        9.865      122.361      144.218       97.315        1.014        0.018      140.078        6.373        0.002      340.753       14.992      859.799
09/02/2014  06:04:00     -133.460      -37.739      -14.179       14.103       13.654       11.543      198.900      186.435      133.233        0.998        0.026      138.693        6.131        0.002      340.868       15.185      859.802
09/02/2014  06:05:00     -105.865      -26.802       -5.024       21.133       17.430       14.316      446.584      303.817      204.959        0.645        0.048      109.205       14.011        0.016      340.771       15.022      859.792
09/02/2014  06:06:00     -106.858      -34.509       -9.355       12.394       15.529        7.691      153.619      241.138       59.153        0.658        0.023      112.292        2.223        0.000      340.882       15.211      859.783
09/02/2014  06:07:00      -91.108      -35.896       -5.429       20.940       14.134       16.230      438.490      199.781      263.416        0.526        0.045       97.925       15.623        0.025      340.799       15.070      859.783
09/02/2014  06:08:00     -106.668      -24.401       -7.107       13.441       15.219       10.243      180.656      231.606      104.923        0.627        0.026      109.424       10.158        0.009      340.792       15.056      859.794
09/02/2014  06:09:00     -103.996      -41.126      -13.844       14.522       15.384       10.317      210.880      236.663      106.440        0.663        0.028      111.833        6.570        0.003      340.923       15.278      859.799
09/02/2014  06:10:00      -96.615      -45.822      -14.782       18.408       15.762       11.865      338.856      248.436      140.770        0.619        0.036      106.930        8.477        0.006      340.889       15.220      859.806
09/02/2014  06:11:00      -84.884      -38.965      -11.609       15.220       10.606       11.587      231.663      112.478      134.248        0.467        0.024       93.400        5.463        0.003      340.939       15.308      859.815
09/02/2014  06:12:00      -86.404      -35.097       -8.995       29.134       23.752       17.165      848.802      564.150      294.630        0.524        0.085       93.260       13.939        0.022      340.953       15.331      859.820
09/02/2014  06:13:00     -103.690      -10.548      -10.514       62.186       22.740       21.609     3867.107      517.108      466.936        0.791        0.243      104.225       30.613        0.086      340.819       15.102      859.826
09/02/2014  06:14:00     -132.091      -42.863      -14.248       13.316       18.874        9.331      177.313      356.243       87.073        1.005        0.031      138.871        8.397        0.004      340.639       14.800      859.837
09/02/2014  06:15:00     -114.478      -25.789       -7.544       14.346       15.866       11.519      205.805      251.726      132.684        0.721        0.030      117.347        5.053        0.002      340.520       14.597      859.838
09/02/2014  06:16:00     -109.393      -36.418      -21.526       16.904       11.789        8.608      285.758      138.981       74.096        0.713        0.025      115.295        5.724        0.002      340.432       14.446      859.829
09/02/2014  06:17:00     -102.311      -49.940      -20.558       18.277       14.168        8.704      334.063      200.740       75.754        0.700        0.031      113.848        4.537        0.002      340.388       14.373      859.831
09/02/2014  06:18:00     -121.124      -49.462      -16.925       18.082       17.926       13.123      326.971      321.351      172.203        0.911        0.041      130.834        7.497        0.003      340.358       14.323      859.832
09/02/2014  06:19:00     -122.149      -48.065      -16.810       17.402       19.639       11.303      302.844      385.685      127.757        0.916        0.041      131.266        7.715        0.003      340.379       14.358      859.830
09/02/2014  06:20:00     -100.528      -42.214      -13.210       26.564       16.762       10.870      705.634      280.961      118.161        0.658        0.055      109.032        3.384        0.001      340.371       14.344      859.827
09/02/2014  06:21:00      -72.909      -53.716      -20.355       20.370       23.852       13.861      414.946      568.932      192.113        0.490        0.059       90.560        2.784        0.001      340.370       14.344      859.820
09/02/2014  06:22:00      -71.729      -41.278      -15.985       22.939       24.407       13.532      526.212      595.724      183.127        0.420        0.065       82.758       12.258        0.022      340.381       14.363      859.820
09/02/2014  06:23:00      -98.182      -29.305      -23.288       16.596       11.520       11.085      275.427      132.722      122.873        0.579        0.027      102.462        6.529        0.004      340.381       14.364      859.816
09/02/2014  06:24:00     -123.460      -24.917      -23.765       14.504       17.504       11.903      210.380      306.373      141.676        0.854        0.033      125.950        5.528        0.002      340.358       14.322      859.819
09/02/2014  06:25:00     -101.962      -36.711      -19.235       14.985       17.149       11.080      224.545      294.098      122.763        0.638        0.032      108.369        9.106        0.007      340.334       14.282      859.828
09/02/2014  06:26:00      -95.806      -65.201      -16.771       20.639       17.514       15.106      425.961      306.738      228.202        0.734        0.048      115.887       10.486        0.008      340.385       14.368      859.838
09/02/2014  06:27:00      -72.159      -55.577      -14.588       26.917       32.722       16.058      724.522     1070.729      257.861        0.528        0.103       91.082       11.504        0.016      340.429       14.443      859.849
09/02/2014  06:28:00      -73.441      -73.476      -14.323       21.429       21.420       13.573      459.187      458.823      184.219        0.605        0.055      103.886       11.213        0.012      340.365       14.336      859.853
09/02/2014  06:29:00      -88.744      -56.216      -21.876       26.436       14.738       13.887      698.845      217.223      192.849        0.631        0.055      105.051        8.941        0.007      340.412       14.415      859.853
09/02/2014  06:30:00      -85.368      -60.919      -11.573       17.565       14.655       14.092      308.536      214.758      198.587        0.593        0.036      104.875        8.776        0.007      340.487       14.541      859.861
09/02/2014  06:31:00      -66.870      -61.206       -6.511       22.845       28.712       16.876      521.894      824.365      284.788        0.495        0.082       90.652       10.621        0.014      340.452       14.482      859.863
09/02/2014  06:32:00      -94.701      -59.895       -8.523       15.644       15.439       13.533      244.737      238.354      183.153        0.665        0.033      112.052        8.359        0.006      340.445       14.470      859.866
09/02/2014  06:33:00      -86.783      -34.607       -9.671       10.282       13.901       11.509      105.728      193.235      132.456        0.463        0.022       93.429        7.338        0.006      340.501       14.565      859.865
09/02/2014  06:34:00      -90.569      -29.546      -12.172        8.953       12.184        7.155       80.154      148.445       51.189        0.475        0.014       95.267        3.734        0.002      340.505       14.570      859.863
09/02/2014  06:35:00      -97.191      -51.545      -14.789       18.843       11.554       10.210      355.069      133.490      104.237        0.646        0.030      110.014        6.675        0.004      340.627       14.776      859.865
09/02/2014  06:36:00      -80.248      -51.570      -13.633       13.788        7.611        8.024      190.096       57.932       64.385        0.480        0.016       95.390        7.224        0.006      340.603       14.737      859.869
09/02/2014  06:37:00      -87.152      -46.977      -17.650        8.982       10.590        8.195       80.670      112.157       67.161        0.519        0.013       99.007        6.915        0.005      340.696       14.894      859.879
09/02/2014  06:38:00      -87.067      -59.211      -13.808       19.175       11.439       12.268      367.686      130.840      150.514        0.596        0.032      105.293        8.534        0.007      340.719       14.933      859.901
09/02/2014  06:39:00     -112.414      -38.957      -17.015       20.578       15.336       13.904      423.440      235.190      193.311        0.765        0.043      118.973       11.388        0.009      340.600       14.733      859.915
09/02/2014  06:40:00     -114.703      -52.470      -26.395       14.635       17.377       12.430      214.185      301.967      154.508        0.864        0.034      126.134        7.954        0.004      340.487       14.540      859.931
09/02/2014  06:41:00     -108.014      -49.175      -15.951       19.934       12.747       12.203      397.378      162.474      148.905        0.752        0.035      118.681        4.322        0.001      340.409       14.411      859.938
09/02/2014  06:42:00     -126.421      -46.229      -13.995       14.225       15.629       13.858      202.350      244.267      192.052        0.948        0.032      134.608        7.725        0.003      340.435       14.452      859.951
09/02/2014  06:43:00     -103.230      -35.235       -6.007       16.863       18.302       11.730      284.368      334.967      137.597        0.635        0.038      109.077        9.533        0.008      340.468       14.509      859.962
09/02/2014  06:44:00      -88.460      -29.966      -14.354       11.799       13.058        7.779      139.208      170.513       60.513        0.465        0.019       93.398        6.280        0.005      340.511       14.582      859.964
09/02/2014  06:45:00      -99.291      -48.289      -17.982       16.529       12.236        9.454      273.205      149.722       89.374        0.651        0.026      110.410        4.856        0.002      340.701       14.904      859.962
09/02/2014  06:46:00     -103.073      -47.778      -15.232       14.321       12.149       11.020      205.105      147.597      121.438        0.681        0.024      113.608        4.796        0.002      340.637       14.795      859.976
09/02/2014  06:47:00     -122.408      -47.788      -12.896       15.911        8.000        9.205      253.154       64.002       84.740        0.892        0.020      131.406        5.536        0.002      340.645       14.810      859.988
09/02/2014  06:48:00      -84.237      -41.608      -15.552        9.917        9.012        8.924       98.356       81.213       79.646        0.466        0.013       93.952        3.799        0.002      340.838       15.135      859.992
09/02/2014  06:49:00      -81.908      -46.823      -14.401       10.805        9.768        8.921      116.754       95.405       79.590        0.470        0.015       94.347        5.228        0.003      340.775       15.028      859.998
09/02/2014  06:50:00      -66.698      -44.302       -8.212       22.429       14.768       12.321      503.070      218.096      151.796        0.368        0.044       80.071        7.096        0.008      340.708       14.915      860.006
09/02/2014  06:51:00      -55.958      -31.355       -6.646       14.911        9.020       10.815      222.345       81.357      116.968        0.229        0.021       64.144        8.966        0.020      340.794       15.060      860.019
09/02/2014  06:52:00      -67.174      -46.107       -5.039       33.709       18.820       16.776     1136.272      354.190      281.450        0.422        0.089       81.475        9.557        0.014      340.732       14.957      860.032
09/02/2014  06:53:00      -65.479      -62.893       -0.772       41.396       26.420       24.153     1713.618      698.014      583.370        0.562        0.150       90.791       18.917        0.043      340.579       14.696      860.048
09/02/2014  06:54:00     -100.428      -61.415        5.236       40.156       34.222       24.873     1612.483     1171.117      618.647        0.864        0.170      117.718       25.385        0.047      340.655       14.827      860.060
09/02/2014  06:55:00      -83.397      -60.923       -0.563       30.298       19.780       14.075      917.991      391.264      198.112        0.609        0.075      103.280       14.856        0.021      340.750       14.987      860.056
09/02/2014  06:56:00      -96.930      -54.674       -6.004       19.948       28.146       10.675      397.906      792.178      113.948        0.686        0.065      111.287        9.783        0.008      340.679       14.868      860.056
09/02/2014  06:57:00      -48.611      -25.301        7.327       31.180       15.311       16.464      972.177      234.430      271.072        0.227        0.074       54.801       11.836        0.047      340.658       14.833      860.063
09/02/2014  06:58:00      -62.298      -32.218       -7.415       12.030       13.122       10.668      144.729      172.193      113.817        0.270        0.022       70.136        5.876        0.007      340.683       14.873      860.059
09/02/2014  06:59:00      -58.426      -41.021      -12.682        8.466       10.578        7.500       71.666      111.891       56.254        0.275        0.012       71.388        4.527        0.004      340.810       15.087      860.049
09/02/2014  07:00:00      -76.526      -38.922      -12.814       20.289       14.342       12.500      411.653      205.685      156.255        0.415        0.039       85.855       10.993        0.016      340.790       15.054      860.048
09/02/2014  07:01:00     -103.719      -32.593      -18.561       11.341        9.579        9.665      128.620       91.753       93.417        0.624        0.016      108.720        2.443        0.001      340.901       15.241      860.056
09/02/2014  07:02:00      -92.233      -46.189      -12.755       18.794       12.730       12.473      353.231      162.044      155.574        0.574        0.034      103.152        7.905        0.006      341.054       15.503      860.044
09/02/2014  07:03:00      -37.476      -44.472       -3.690       23.938       16.392       12.480      573.020      268.699      155.743        0.220        0.050       58.157       15.345        0.070      341.004       15.416      860.045
09/02/2014  07:04:00      -29.165      -39.107        2.457       15.524       11.328       13.647      240.994      128.320      186.231        0.147        0.028       48.784       11.164        0.052      341.025       15.451      860.051
09/02/2014  07:05:00      -43.591      -29.804        0.984       16.979       10.095       13.192      288.299      101.913      174.039        0.168        0.028       52.805        9.775        0.034      341.009       15.426      860.054
09/02/2014  07:06:00      -69.090      -37.012       -8.071        7.981        6.499        5.585       63.696       42.241       31.187        0.317        0.007       78.379        2.555        0.001      340.990       15.390      860.074
09/02/2014  07:07:00      -65.842      -43.876       -9.485        9.001       10.076        7.326       81.012      101.535       53.671        0.329        0.012       79.122        6.150        0.006      340.966       15.351      860.079
09/02/2014  07:08:00      -70.286      -42.072      -15.709       11.348        9.913        7.935      128.776       98.271       62.960        0.362        0.015       81.916        4.235        0.003      340.952       15.326      860.092
09/02/2014  07:09:00      -77.886      -44.611      -10.735        6.530        7.076        6.794       42.635       50.071       46.159        0.416        0.007       89.757        5.245        0.003      340.979       15.374      860.100
09/02/2014  07:10:00      -70.537      -45.604      -15.707       11.834       11.026        9.078      140.052      121.576       82.408        0.382        0.017       83.995        8.658        0.011      341.057       15.505      860.093
09/02/2014  07:11:00      -61.360      -42.231      -10.690        8.322       10.600        5.638       69.250      112.361       31.786        0.294        0.011       74.488        4.907        0.004      341.068       15.524      860.102
09/02/2014  07:12:00      -52.340      -31.128       -8.375        8.232        6.610        5.269       67.772       43.686       27.768        0.196        0.007       60.897        2.407        0.002      340.995       15.401      860.096
09/02/2014  07:13:00      -27.429      -18.960       -7.255        7.730        5.067        6.801       59.749       25.672       46.253        0.065        0.007       33.344        4.510        0.018      341.041       15.476      860.108
09/02/2014  07:14:00       -7.515       -7.007       10.791       10.754        8.150        8.416      115.640       66.415       70.833        0.024        0.013       10.274        6.688        0.424      341.383       16.058      860.113
09/02/2014  07:15:00       12.639        7.745       -0.016        8.330        7.836        7.551       69.382       61.409       57.016        0.020        0.009       14.823        1.187        0.006      341.390       16.069      860.127
09/02/2014  07:16:00       18.763       17.213        5.660       13.979        8.597       13.021      195.422       73.900      169.548        0.056        0.022       25.462        5.126        0.041      341.526       16.299      860.140
09/02/2014  07:17:00       18.627       17.715       32.344       20.736       21.632       14.115      429.966      467.962      199.225        0.140        0.055       25.706       11.229        0.191      341.605       16.433      860.140
09/02/2014  07:18:00       -3.846        3.319        8.489        9.227       10.759        8.575       85.144      115.747       73.531        0.019        0.014        5.080        4.576        0.811      341.716       16.622      860.151
09/02/2014  07:19:00       -5.136       13.245       28.214        7.248       12.401        8.651       52.535      153.794       74.832        0.064        0.014       14.206        8.550        0.362      341.924       16.975      860.140
09/02/2014  07:20:00       15.417       17.744       22.147       18.751       12.307       11.863      351.617      151.467      140.723        0.084        0.032       23.506        9.561        0.165      341.611       16.444      860.138
09/02/2014  07:21:00       17.479       19.765        8.756       15.792       13.108       12.578      249.384      171.822      158.217        0.068        0.029       26.385       10.542        0.160      341.647       16.505      860.139
09/02/2014  07:22:00       24.035       14.219        8.084       18.085       10.812       15.247      327.063      116.892      232.479        0.076        0.034       27.926        9.337        0.112      341.696       16.590      860.155
09/02/2014  07:23:00       20.869        7.647        7.097       11.060        7.611        9.679      122.321       57.930       93.674        0.041        0.014       22.226        4.225        0.036      341.586       16.402      860.168
09/02/2014  07:24:00       19.661       24.452       -1.709       12.005       10.193       13.566      144.124      103.899      184.033        0.071        0.022       31.376        8.571        0.075      341.546       16.333      860.190
09/02/2014  07:25:00        5.884       14.828       -1.028        9.345        8.796        9.249       87.337       77.372       85.540        0.025        0.013       15.953        6.693        0.176      341.679       16.558      860.199
09/02/2014  07:26:00       29.536       29.256        8.018       26.482       14.605       14.286      701.302      213.315      204.077        0.146        0.056       41.573       15.205        0.134      341.664       16.532      860.188
09/02/2014  07:27:00       60.330       51.904        1.647       14.191       11.172       12.401      201.375      124.812      153.796        0.341        0.024       79.585        5.411        0.005      341.538       16.320      860.191
09/02/2014  07:28:00       54.665       43.449       -3.074       27.461       15.756       19.489      754.106      248.259      379.839        0.313        0.069       69.829       11.731        0.028      341.599       16.422      860.196
09/02/2014  07:29:00       36.490       29.773        3.477       17.657       17.340       19.632      311.754      300.660      385.420        0.161        0.050       47.095       12.417        0.070      341.695       16.584      860.226
09/02/2014  07:30:00       12.366       18.418        6.697       15.198       12.200       10.947      230.984      148.835      119.839        0.052        0.025       22.184        9.088        0.168      341.787       16.743      860.237
09/02/2014  07:31:00        8.830       13.331       29.424       14.944       14.193       15.333      223.337      201.429      235.112        0.089        0.033       15.990       10.179        0.405      342.084       17.245      860.236
09/02/2014  07:32:00       36.627       22.084       23.525       27.298       12.585       18.295      745.199      158.370      334.702        0.181        0.062       42.769        9.492        0.049      341.908       16.948      860.232
09/02/2014  07:33:00       46.299       27.510        3.760       11.405       13.604       12.962      130.074      185.063      168.016        0.170        0.024       53.855        7.521        0.020      341.766       16.708      860.245
09/02/2014  07:34:00        3.141       28.022      -11.046       17.514       17.882       11.921      306.723      319.757      142.113        0.084        0.038       28.198        9.289        0.109      341.846       16.843      860.263
09/02/2014  07:35:00        1.305       52.487      -10.854        9.626        8.819        9.331       92.665       77.780       87.062        0.157        0.013       52.503        3.726        0.005      341.708       16.606      860.277
09/02/2014  07:36:00       -7.742       39.071       -7.115       10.638       18.988       10.372      113.162      360.545      107.569        0.111        0.029       39.831        6.547        0.027      341.840       16.832      860.274
09/02/2014  07:37:00        3.045       21.908        7.380       11.442       21.002        9.568      130.915      441.073       91.545        0.060        0.033       22.118        8.442        0.146      342.083       17.245      860.269
09/02/2014  07:38:00        8.084       38.752        3.485       12.300       19.844       14.622      151.282      393.789      213.817        0.117        0.038       39.586       11.836        0.089      341.984       17.077      860.268
09/02/2014  07:39:00      -10.198       17.091       -1.391       11.832       14.511       14.372      140.000      210.560      206.561        0.048        0.028       19.902        8.919        0.201      342.117       17.303      860.269
09/02/2014  07:40:00        7.611       14.323       15.874       12.532       10.957       11.757      157.050      120.059      138.238        0.047        0.021       16.220       10.156        0.392      342.358       17.712      860.270
09/02/2014  07:41:00       35.984       42.347       19.195       21.280       20.509       16.375      452.825      420.620      268.144        0.230        0.057       55.571       11.321        0.042      342.049       17.188      860.274
09/02/2014  07:42:00       32.919       25.413        1.045       22.896       15.028       14.755      524.221      225.845      217.696        0.135        0.048       41.587        7.778        0.035      342.069       17.220      860.264
09/02/2014  07:43:00       69.502       47.903       12.776       23.335       19.019       15.410      544.532      361.731      237.472        0.422        0.057       84.411       11.560        0.019      341.992       17.091      860.243
09/02/2014  07:44:00       38.043       33.410        6.333       14.800       15.695       14.992      219.042      246.341      224.774        0.165        0.035       50.631       13.308        0.069      341.941       17.005      860.240
09/02/2014  07:45:00        1.633        9.085       13.375       12.738       12.673       14.577      162.245      160.605      212.483        0.040        0.027        9.231       10.450        1.282      342.579       18.088      860.240
09/02/2014  07:46:00       49.519       25.628        6.880       18.861       15.725       14.679      355.743      247.284      215.477        0.199        0.041       55.758       13.152        0.056      342.202       17.447      860.239
09/02/2014  07:47:00       37.150       33.953       16.877       22.705       22.790       22.888      515.529      519.396      523.842        0.219        0.078       50.328       19.563        0.151      342.300       17.613      860.238
09/02/2014  07:48:00       50.750       36.820       16.295       18.087       17.960       23.363      327.156      322.570      545.833        0.270        0.060       62.700        9.819        0.025      342.149       17.356      860.240
09/02/2014  07:49:00       44.635       24.565       15.083       28.987       15.349       22.205      840.260      235.596      493.062        0.220        0.078       50.949       18.211        0.128      342.325       17.655      860.239
09/02/2014  07:50:00        7.751        7.760       27.395       13.489       26.968       15.680      181.959      727.285      245.863        0.101        0.058       10.968       15.739        2.059      342.522       17.990      860.246
09/02/2014  07:51:00       23.409      -57.558        8.833       29.060       26.970       24.419      844.468      727.400      596.277        0.305        0.108       62.136       20.176        0.105      342.522       17.992      860.249
09/02/2014  07:52:00       37.139        5.309       23.254       33.052       32.635       29.881     1092.409     1065.070      892.865        0.250        0.153       37.516       30.169        0.647      342.493       17.941      860.252
09/02/2014  07:53:00        5.851        7.173       14.632       15.218       16.542       10.917      231.578      273.653      119.189        0.046        0.031        9.256        5.373        0.337      342.672       18.247      860.253
09/02/2014  07:54:00       21.417       38.688        4.997       23.320       17.622       21.489      543.821      310.552      461.781        0.165        0.066       44.221       13.039        0.087      342.497       17.949      860.259
09/02/2014  07:55:00       53.185       27.393        4.901       26.170       21.286       21.348      684.848      453.084      455.735        0.260        0.080       59.825       12.246        0.042      342.318       17.644      860.262
09/02/2014  07:56:00       66.425       27.688        3.257       21.880       12.996       14.422      478.737      168.893      207.982        0.302        0.043       71.965        3.485        0.002      342.245       17.520      860.265
09/02/2014  07:57:00       25.781       28.825        4.724       27.110       16.861       21.566      734.973      284.299      465.111        0.150        0.074       38.672       13.377        0.120      342.390       17.765      860.269
09/02/2014  07:58:00       38.748       25.962       13.803       31.297       19.082       21.537      979.523      364.122      463.834        0.209        0.090       46.642        9.802        0.044      342.610       18.140      860.258
09/02/2014  07:59:00       63.873       42.011       -4.303       17.636       20.535       16.391      311.042      421.689      268.651        0.343        0.050       76.450        5.779        0.006      342.219       17.473      860.263
09/02/2014  08:00:00       45.532       40.801        7.213       20.420       15.482       21.892      416.967      239.680      479.242        0.246        0.057       61.139        9.671        0.025      342.278       17.575      860.265
09/02/2014  08:01:00       51.772       20.429       -2.955       21.176       18.249       23.091      448.425      333.021      533.201        0.221        0.066       55.657       14.981        0.072      342.428       17.831      860.270
09/02/2014  08:02:00       33.708       10.281       -2.144       14.375       14.708       15.018      206.627      216.336      225.532        0.095        0.032       35.241        7.739        0.048      342.348       17.692      860.274
09/02/2014  08:03:00       29.691       37.386        7.708       35.385       19.067       15.012     1252.077      363.535      225.357        0.209        0.092       47.742        8.333        0.030      342.467       17.896      860.278
09/02/2014  08:04:00       30.078       26.822        9.557       24.957       14.904       21.279      622.862      222.143      452.789        0.151        0.065       40.300       14.784        0.135      342.503       17.959      860.282
09/02/2014  08:05:00       11.058       15.537       15.467       18.844       11.026       15.428      355.084      121.577      238.023        0.066        0.036       19.071       10.693        0.314      342.642       18.195      860.286
09/02/2014  08:06:00        7.843       29.839        0.600       10.780       15.844       16.770      116.203      251.045      281.236        0.080        0.032       30.853       12.498        0.164      342.544       18.028      860.290
09/02/2014  08:07:00       19.082       35.269       12.832       21.001       11.582       15.192      441.054      134.149      230.793        0.129        0.040       40.100       15.128        0.142      342.597       18.119      860.294
09/02/2014  08:08:00       19.175       38.262        9.030       18.977       16.420       21.149      360.111      269.618      447.286        0.149        0.054       42.798       15.317        0.128      342.681       18.262      860.292
09/02/2014  08:09:00       15.103       11.912        3.012       11.125        9.288       13.980      123.768       86.270      195.431        0.039        0.020       19.235        8.286        0.186      342.582       18.091      860.301
09/02/2014  08:10:00       -0.086       14.018        9.184       14.331       12.745       12.773      205.384      162.426      163.139        0.041        0.027       14.019        8.319        0.352      342.941       18.703      860.304
09/02/2014  08:11:00        2.378       22.569       -3.554       11.161        7.397       12.036      124.567       54.709      144.861        0.043        0.016       22.694        7.590        0.112      342.638       18.188      860.312
09/02/2014  08:12:00       21.558       20.905        6.721       13.427        9.937       16.793      180.291       98.735      282.005        0.075        0.028       30.029        8.034        0.072      342.746       18.372      860.311
09/02/2014  08:13:00       18.506       26.335        7.504       15.731       11.447       13.793      247.456      131.031      190.239        0.083        0.028       32.187        5.473        0.029      342.792       18.449      860.292
09/02/2014  08:14:00       32.071       40.021       20.563       20.207       16.550       19.983      408.343      273.912      399.329        0.207        0.054       51.286       13.875        0.073      342.857       18.560      860.294
09/02/2014  08:15:00       54.590       32.786       26.785       23.234       22.954       21.479      539.842      526.864      461.346        0.315        0.076       63.679       13.612        0.046      342.869       18.580      860.290
09/02/2014  08:16:00       50.809       47.891       15.060       23.110       14.877       15.983      534.092      221.312      255.442        0.306        0.051       69.822       15.657        0.050      342.644       18.199      860.279
09/02/2014  08:17:00       33.876       42.654       13.049       27.934       18.719       15.818      780.324      350.415      250.193        0.226        0.069       54.470       12.541        0.053      342.928       18.682      860.281
09/02/2014  08:18:00       22.458       37.470       -2.338       37.754       22.995       19.249     1425.327      528.774      370.529        0.212        0.116       43.685       13.983        0.102      343.063       18.911      860.276
09/02/2014  08:19:00        3.510       39.814        5.954       23.925       22.989       25.027      572.385      528.493      626.351        0.168        0.086       39.968        3.214        0.006      343.213       19.166      860.282
09/02/2014  08:20:00        6.185       33.657        8.965       19.686       28.874       16.399      387.534      833.716      268.942        0.137        0.075       34.220       16.932        0.245      343.327       19.361      860.288
09/02/2014  08:21:00       -1.350       42.032       -8.642       13.243       15.121       16.718      175.379      228.636      279.481        0.126        0.034       42.053        9.502        0.051      343.083       18.946      860.287
09/02/2014  08:22:00       -1.561       24.457       -0.272       14.419       17.148       15.003      207.899      294.069      225.088        0.066        0.036       24.506        9.746        0.158      343.280       19.282      860.290
09/02/2014  08:23:00      -20.657       17.261        5.126       20.188       17.706       14.387      407.555      313.487      206.983        0.084        0.046       26.919        7.751        0.083      343.174       19.100      860.300
09/02/2014  08:24:00       24.090       16.169       28.065       20.298       15.437       17.066      411.992      238.314      291.244        0.129        0.047       29.013       14.396        0.246      343.469       19.603      860.308
09/02/2014  08:25:00       33.312       35.985        3.153       13.561       18.907       23.805      183.912      357.474      566.688        0.176        0.055       49.037       12.123        0.061      343.077       18.936      860.308
09/02/2014  08:26:00       23.190       33.958       -1.478       15.509       12.612       22.020      240.537      159.071      484.881        0.129        0.044       41.121       17.448        0.180      342.929       18.684      860.301
09/02/2014  08:27:00        2.279       15.861      -11.890       12.527       15.614       12.483      156.918      243.809      155.822        0.048        0.028       16.023        8.436        0.277      343.170       19.092      860.300
09/02/2014  08:28:00       10.706       13.137       10.922       13.147       16.921       17.392      172.847      286.336      302.478        0.058        0.038       16.947       12.184        0.517      343.443       19.559      860.294
09/02/2014  08:29:00       26.870       70.624       -7.830       20.288       22.035       17.194      411.615      485.561      295.626        0.348        0.060       75.563        9.647        0.016      343.086       18.949      860.287
09/02/2014  08:30:00       46.365       26.585       -2.800       28.191       35.585       22.937      794.709     1266.322      526.106        0.273        0.129       53.446       12.828        0.058      343.170       19.094      860.282
09/02/2014  08:31:00       26.832       26.405       13.792       21.244       18.656       17.485      451.323      348.029      305.739        0.136        0.055       37.645        9.147        0.059      343.428       19.533      860.281
09/02/2014  08:32:00       60.186       56.211       20.897       24.743       23.821       21.130      612.225      567.440      446.474        0.442        0.081       82.353        8.320        0.010      343.444       19.560      860.279
09/02/2014  08:33:00       94.697       62.362       -6.458       30.525       22.020       21.362      931.767      484.891      456.356        0.739        0.094      113.387        9.894        0.008      343.442       19.557      860.276
09/02/2014  08:34:00      116.401       73.357        6.485       36.409       24.152       24.321     1325.641      583.303      591.530        1.074        0.125      137.588       18.441        0.018      343.299       19.313      860.271
09/02/2014  08:35:00       99.046       72.715        3.262       26.049       20.269       25.090      678.574      410.823      629.520        0.841        0.086      122.872        8.158        0.004      343.118       19.005      860.278
09/02/2014  08:36:00      109.770       72.013       16.132       40.668       30.081       39.272     1653.881      904.840     1542.309        1.080        0.205      131.284       15.563        0.014      343.389       19.466      860.277
09/02/2014  08:37:00      118.134       80.417       11.568       30.391       27.584       34.435      923.631      760.854     1185.791        1.171        0.144      142.908       23.022        0.026      343.151       19.061      860.290
09/02/2014  08:38:00       88.657       55.036       -0.147       31.129       20.818       20.213      969.031      433.377      408.549        0.635        0.091      104.350        9.599        0.008      343.203       19.150      860.301
09/02/2014  08:39:00       56.256       26.887       17.723       50.926       29.458       30.551     2593.427      867.746      933.362        0.430        0.220       62.351       22.440        0.130      343.383       19.456      860.302
09/02/2014  08:40:00       13.190       34.222       40.234       31.377       35.988       24.431      984.505     1295.126      596.897        0.292        0.144       36.676       17.424        0.226      343.882       20.306      860.302
09/02/2014  08:41:00       66.280       46.236        9.958       36.899       25.020       26.969     1361.540      625.982      727.310        0.467        0.136       80.813       19.883        0.061      343.643       19.900      860.297
09/02/2014  08:42:00       43.274       35.703       25.221       36.013       25.020       24.443     1296.965      626.000      597.482        0.315        0.126       56.102       18.654        0.111      343.859       20.268      860.296
09/02/2014  08:43:00       59.469       52.770       44.332       41.021       32.331       26.295     1682.700     1045.270      691.425        0.585        0.171       79.506       23.759        0.089      343.783       20.138      860.287
09/02/2014  08:44:00       53.347       76.999       46.283       52.825       30.025       36.067     2790.512      901.471     1300.828        0.795        0.250       93.673       29.589        0.100      343.792       20.153      860.269
09/02/2014  08:45:00       54.314       60.707       52.527       30.141       30.166       30.192      908.497      910.017      911.559        0.606        0.137       81.457       23.253        0.081      343.699       19.996      860.269
09/02/2014  08:46:00        0.826       33.324       59.672       30.839       34.117       21.029      951.072     1164.004      442.212        0.361        0.128       33.334       16.736        0.252      344.126       20.725      860.273
09/02/2014  08:47:00       32.950        0.663       31.647       31.431       67.062       30.115      987.926     4497.246      906.940        0.424        0.320       32.957       35.582        1.166      343.809       20.182      860.271
09/02/2014  08:48:00        6.001       -2.478       47.070       25.730       81.283       44.462      662.023     6606.904     1976.866        0.575        0.462        6.493       57.063       77.244      343.993       20.496      860.274
09/02/2014  08:49:00       43.223       79.841       71.427       35.444       31.654       22.099     1256.248     1001.992      488.349        0.805        0.137       90.790       11.982        0.017      343.688       19.976      860.270
09/02/2014  08:50:00       36.290       41.005       53.432       44.476       45.734       28.951     1978.125     2091.563      838.165        0.538        0.245       54.757       25.095        0.210      344.176       20.810      860.247
09/02/2014  08:51:00       79.428       72.456       63.604       51.995       42.286       43.348     2703.480     1788.146     1879.015        1.099        0.319      107.511       37.186        0.120      343.840       20.235      860.230
09/02/2014  08:52:00       46.412       41.811       12.706       22.910       23.422       25.934      524.870      548.580      672.565        0.290        0.087       62.468       13.504        0.047      343.713       20.018      860.232
09/02/2014  08:53:00       21.332       38.849       66.790       36.348       60.188       30.704     1321.203     3622.543      942.725        0.615        0.294       44.320       33.443        0.569      344.083       20.650      860.226
09/02/2014  08:54:00        2.727      -32.189       35.143       27.159       51.889       28.833      737.629     2692.436      831.353        0.327        0.213       32.304       29.073        0.810      344.428       21.240      860.236
09/02/2014  08:55:00       26.589      -47.259       27.607       36.880       46.720       35.166     1360.151     2182.799     1236.635        0.424        0.239       54.226       31.335        0.334      344.252       20.940      860.257
09/02/2014  08:56:00        0.245       -6.912       55.805       28.623       62.449       27.682      819.250     3899.817      766.313        0.432        0.274        6.916       32.230       21.715      344.304       21.028      860.257
09/02/2014  08:57:00       22.873       38.982       63.728       33.440       40.358       21.182     1118.264     1628.779      448.667        0.465        0.160       45.197       24.501        0.294      344.223       20.891      860.260
09/02/2014  08:58:00       60.263       13.727       31.108       24.699       40.541       28.418      610.026     1643.580      807.583        0.392        0.153       61.807        9.236        0.022      344.034       20.567      860.257
09/02/2014  08:59:00       39.542       52.204       42.848       25.755       23.767       19.821      663.343      564.860      392.874        0.387        0.081       65.489       13.548        0.043      344.389       21.173      860.245
09/02/2014  09:00:00       36.267       59.579       59.577       39.271       26.813       19.075     1542.179      718.926      363.859        0.552        0.131       69.750       14.748        0.045      344.391       21.177      860.234
09/02/2014  09:01:00       24.184       58.591       45.779       25.992       24.901       21.616      675.598      620.077      467.231        0.394        0.088       63.386       13.166        0.043      344.418       21.223      860.229
09/02/2014  09:02:00        5.279       22.088       52.830       22.558       37.395       20.005      508.855     1398.417      400.211        0.281        0.115       22.710       18.786        0.684      344.615       21.559      860.232
09/02/2014  09:03:00       22.579      -13.265       42.915       36.881       43.232       37.822     1360.245     1869.002     1430.474        0.359        0.233       26.187       20.297        0.601      344.714       21.729      860.232
09/02/2014  09:04:00       35.520      -52.128       10.330       40.758       61.451       47.000     1661.232     3776.220     2208.975        0.586        0.382       63.079       38.156        0.366      344.544       21.438      860.228
09/02/2014  09:05:00       51.766      -37.247       22.368       48.610       67.114       39.770     2362.895     4504.251     1581.623        0.651        0.422       63.774       47.930        0.565      344.396       21.185      860.239
09/02/2014  09:06:00       19.744       33.290       40.847       35.095       33.264       27.295     1231.650     1106.496      745.008        0.312        0.154       38.705       21.474        0.308      344.752       21.792      860.224
09/02/2014  09:07:00       -3.078      -27.127       26.733       27.522       70.501       32.481      757.452     4970.419     1054.984        0.412        0.339       27.301       24.585        0.811      344.791       21.863      860.209
09/02/2014  09:08:00       19.385      -67.285       26.187       32.938       49.539       28.336     1084.934     2454.111      802.930        0.496        0.217       70.022       24.204        0.119      344.619       21.566      860.211
09/02/2014  09:09:00       72.891       14.249       29.075       46.758       68.544       37.754     2186.329     4698.276     1425.332        0.733        0.415       74.271       37.210        0.251      344.261       20.953      860.204
09/02/2014  09:10:00       40.579       68.310        5.424       31.801       18.718       23.621     1011.292      350.372      557.945        0.413        0.096       79.454        7.926        0.010      344.365       21.130      860.202
09/02/2014  09:11:00       31.988       44.699       29.228       35.038       28.871       21.799     1227.676      833.515      475.203        0.321        0.127       54.966       14.841        0.073      344.958       22.147      860.194
09/02/2014  09:12:00        6.005      -16.617       47.571       27.866       28.235       21.760      776.530      797.200      473.491        0.231        0.102       17.668       13.521        0.586      345.052       22.307      860.185
09/02/2014  09:13:00       -3.448        2.207       48.372       18.208       32.366       15.269      331.526     1047.566      233.147        0.198        0.081        4.094       14.172       11.983      345.242       22.633      860.184
09/02/2014  09:14:00      -23.577       -9.723       20.332       27.060       22.645       25.842      732.267      512.811      667.830        0.149        0.096       25.503       17.513        0.472      344.822       21.913      860.173
09/02/2014  09:15:00      -26.151        5.615       35.665       19.218       24.392       20.948      369.350      594.957      438.798        0.169        0.070       26.747       17.250        0.416      345.171       22.511      860.162
09/02/2014  09:16:00        1.868       -9.357       37.731       44.927       40.671       27.895     2018.427     1654.126      778.127        0.298        0.223        9.542       14.212        2.218      345.109       22.405      860.150
09/02/2014  09:17:00      -10.302       18.108       67.729       26.940       68.688       47.301      725.775     4718.092     2237.387        0.635        0.384       20.833       52.348        6.314      345.203       22.569      860.147
09/02/2014  09:18:00       16.266      -40.101       31.592       38.872       88.165       53.909     1511.058     7773.080     2906.191        0.753        0.610       43.275       64.896        2.249      345.046       22.296      860.143
09/02/2014  09:19:00       -1.263      -10.421       59.597       18.981       40.166       24.492      360.277     1613.332      599.843        0.312        0.129       10.497       23.608        5.058      345.232       22.617      860.147
09/02/2014  09:20:00       20.396      -51.508       19.446       35.836       93.165       37.807     1284.244     8679.631     1429.396        0.742        0.570       55.399       49.736        0.806      344.783       21.847      860.139
09/02/2014  09:21:00        5.841       -0.452       41.300       32.319       42.771       28.281     1044.514     1829.341      799.843        0.271        0.184        5.858       29.050       24.589      345.247       22.643      860.132
09/02/2014  09:22:00      -10.903      -30.382       40.345       33.280       45.279       27.227     1107.538     2050.200      741.302        0.328        0.195       32.280       29.994        0.863      345.086       22.365      860.130
09/02/2014  09:23:00       72.702       66.018       48.934       44.872       31.326       37.528     2013.473      981.330     1408.371        0.822        0.220       98.203        9.905        0.010      344.682       21.676      860.124
09/02/2014  09:24:00       67.097       58.392       66.909       43.099       28.988       21.653     1857.495      840.322      468.862        0.778        0.158       88.947       13.488        0.023      344.519       21.397      860.133
09/02/2014  09:25:00       69.854       80.873       60.403       39.308       29.587       21.326     1545.093      875.412      454.817        0.897        0.144      106.865       17.675        0.027      344.439       21.259      860.131
09/02/2014  09:26:00       45.670       43.473       51.207       29.355       38.910       21.323      861.704     1513.965      454.682        0.471        0.142       63.053       11.505        0.033      344.625       21.577      860.137
09/02/2014  09:27:00       41.143       35.342       51.310       26.415       30.028       18.279      697.732      901.700      334.132        0.375        0.097       54.238        9.604        0.031      344.948       22.129      860.133
09/02/2014  09:28:00       26.058      -13.694       40.626       31.063       51.912       26.599      964.901     2694.883      707.517        0.344        0.218       29.437       25.239        0.735      345.251       22.648      860.132
09/02/2014  09:29:00      -13.151      -48.182       15.833       51.616       43.687       28.313     2664.208     1908.531      801.647        0.406        0.269       49.944       25.626        0.263      344.972       22.171      860.134
09/02/2014  09:30:00       45.558      -33.976       21.177       50.947       48.356       37.174     2595.599     2338.265     1381.916        0.500        0.316       56.832       34.817        0.375      344.908       22.061      860.122
09/02/2014  09:31:00       10.595       16.848       69.384       32.725       27.670       17.942     1070.933      765.652      321.904        0.368        0.108       19.902       18.346        0.850      345.386       22.882      860.121
09/02/2014  09:32:00       30.567       36.822       39.327       24.079       25.574       21.315      579.794      654.050      454.329        0.276        0.084       47.856        5.559        0.013      344.912       22.068      860.106
09/02/2014  09:33:00       28.009       53.111       30.457       33.067       32.981       32.861     1093.400     1087.718     1079.875        0.390        0.163       60.044       26.225        0.191      345.026       22.264      860.109
09/02/2014  09:34:00       40.656        9.774       23.465       32.485       23.085       25.491     1055.301      532.920      649.815        0.227        0.112       41.814       18.457        0.195      345.079       22.354      860.099
09/02/2014  09:35:00       28.407      -27.125        0.051       37.393       44.547       34.986     1398.245     1984.478     1223.999        0.307        0.230       39.277       27.701        0.497      345.083       22.360      860.089
09/02/2014  09:36:00       -9.658      -34.610       -5.951       21.194       23.372       26.262      449.179      546.271      689.716        0.151        0.084       35.932       18.492        0.265      345.027       22.265      860.090
09/02/2014  09:37:00      -32.425        3.709      -12.914       33.236       23.923       18.421     1104.611      572.303      339.330        0.162        0.101       32.636       13.311        0.166      344.965       22.159      860.089
09/02/2014  09:38:00      -33.663       27.660       29.942       21.710       19.047       24.493      471.339      362.804      599.894        0.211        0.072       43.569       19.031        0.191      345.165       22.503      860.091
09/02/2014  09:39:00      -22.531       15.477       25.937       33.112       17.294       14.888     1096.376      299.087      221.660        0.152        0.081       27.334       14.153        0.268      345.166       22.504      860.079
09/02/2014  09:40:00        5.027       13.568       40.941       28.136       18.333       17.504      791.617      336.088      306.389        0.166        0.072       14.469       13.755        0.904      345.850       23.676      860.080
09/02/2014  09:41:00       -0.820      -16.083       28.078       40.223       43.079       32.246     1617.893     1855.801     1039.794        0.278        0.226       16.103       33.771        4.398      345.521       23.112      860.074
09/02/2014  09:42:00       33.511        1.066       25.030       37.456       43.405       39.442     1402.951     1884.009     1555.695        0.330        0.242       33.528       34.231        1.042      345.609       23.263      860.065
09/02/2014  09:43:00       25.030       -1.683       38.182       41.679       44.201       33.429     1737.120     1953.696     1117.477        0.345        0.240       25.086       31.810        1.608      345.840       23.660      860.064
09/02/2014  09:44:00       20.844        5.076       26.813       40.451       29.618       30.717     1636.285      877.197      943.505        0.232        0.173       21.453       22.722        1.122      345.260       22.665      860.055
09/02/2014  09:45:00       27.252      -52.613       31.610       44.207       87.659       41.975     1954.301     7684.134     1761.864        0.795        0.570       59.252       56.033        0.894      345.450       22.990      860.044
09/02/2014  09:46:00       64.184      -83.548      -12.409       30.365       32.076       30.603      922.005     1028.859      936.540        0.707        0.144      105.356       27.073        0.066      345.010       22.236      860.048
09/02/2014  09:47:00       23.649      -62.566       -2.984       18.966       39.129       26.737      359.727     1531.118      714.888        0.354        0.130       66.887       13.009        0.038      345.069       22.337      860.056
09/02/2014  09:48:00       14.357       37.074       46.833       22.329       19.655       12.889      498.573      386.312      166.132        0.241        0.053       39.757        5.724        0.021      345.203       22.568      860.038
09/02/2014  09:49:00      -11.116       28.505       34.680       18.635       25.387       17.987      347.267      644.502      323.544        0.173        0.066       30.595       10.656        0.121      345.996       23.927      860.040
09/02/2014  09:50:00      -27.530       24.145       23.129       21.681       20.694       22.982      470.045      428.250      528.155        0.165        0.071       36.619       16.824        0.211      345.620       23.281      860.031
09/02/2014  09:51:00      -38.019       11.378       -5.552       13.020       12.322        7.765      169.517      151.833       60.289        0.099        0.019       39.685        4.943        0.016      344.956       22.143      860.032
09/02/2014  09:52:00      -35.799      -12.045       -4.255       21.892       27.638       14.884      479.250      763.868      221.535        0.145        0.073       37.771       12.814        0.115      345.069       22.337      860.028
09/02/2014  09:53:00      -51.179      -49.358        1.096       29.771       27.212       26.233      886.295      740.472      688.191        0.369        0.116       71.102       25.609        0.130      345.079       22.353      860.017
09/02/2014  09:54:00      -73.212      -62.967       -5.908       26.405       32.704       18.975      697.235     1069.531      360.052        0.574        0.106       96.565       17.182        0.032      344.967       22.162      860.007
09/02/2014  09:55:00      -54.742      -24.700        0.200       38.605       26.636       20.394     1490.358      709.476      415.899        0.311        0.131       60.057       19.619        0.107      345.197       22.557      859.990
09/02/2014  09:56:00      -58.171        1.189       -7.156       20.938       18.887       12.135      438.406      356.737      147.268        0.219        0.047       58.183        3.319        0.003      345.130       22.441      859.994
09/02/2014  09:57:00      -76.886       22.483       -8.726       13.181       16.977       11.303      173.739      288.207      127.748        0.354        0.029       80.106        9.925        0.015      345.100       22.390      859.983
09/02/2014  09:58:00      -44.783       18.774       -6.117       10.390        7.317        6.829      107.948       53.535       46.628        0.130        0.010       48.559        5.134        0.011      345.078       22.351      859.984
09/02/2014  09:59:00      -46.576       13.060      -12.991       18.216       19.271        9.137      331.841      371.373       83.487        0.165        0.039       48.372        8.960        0.034      345.156       22.486      859.979
09/02/2014  10:00:00      -35.722       -4.907      -11.137       19.045       13.291       17.096      362.719      176.660      292.275        0.113        0.042       36.058       10.489        0.085      345.278       22.694      859.981
09/02/2014  10:01:00      -13.202       18.456       27.626       33.996       27.013       19.065     1155.741      729.716      363.466        0.176        0.112       22.692       19.085        0.707      345.984       23.906      859.986
09/02/2014  10:02:00      -11.405       22.755       61.079       14.643       32.541       28.673      214.412     1058.891      822.148        0.324        0.105       25.453       27.065        1.131      346.575       24.921      859.973
09/02/2014  10:03:00       50.895      -37.622       38.786       55.887       66.298       53.526     3123.359     4395.444     2865.085        0.794        0.519       63.291       52.074        0.677      346.039       24.000      859.956
09/02/2014  10:04:00       78.091      -20.973       28.594       72.491       58.456       51.952     5254.930     3417.099     2699.055        0.936        0.569       80.858       41.350        0.262      345.627       23.293      859.948
09/02/2014  10:05:00        9.577      -10.593        6.681       35.711       55.957       36.014     1275.244     3131.145     1297.033        0.297        0.285       14.280       24.115        2.852      345.735       23.479      859.934
09/02/2014  10:06:00       56.924       40.492       12.417       47.286       42.784       32.169     2235.922     1830.497     1034.833        0.507        0.255       69.856       15.539        0.049      346.109       24.122      859.917
09/02/2014  10:07:00       21.326       42.222       21.760       40.248       45.731       26.152     1619.870     2091.344      683.953        0.355        0.220       47.303       28.061        0.352      346.704       25.145      859.902
09/02/2014  10:08:00       16.143       10.658       16.896       53.304       29.713       19.088     2841.347      882.842      364.345        0.237        0.204       19.344       12.802        0.438      346.239       24.344      859.890
09/02/2014  10:09:00       30.647       28.429       23.944       36.987       24.046       26.856     1368.038      578.197      721.239        0.249        0.133       41.803       11.101        0.071      346.374       24.576      859.881
09/02/2014  10:10:00       29.870       26.928       13.071       21.116       13.552       19.707      445.902      183.661      388.380        0.140        0.051       40.216        6.898        0.029      345.817       23.620      859.865
09/02/2014  10:11:00       -4.671       50.558       14.428       29.909       50.923       27.476      894.528     2593.112      754.954        0.351        0.212       50.773       26.379        0.270      346.332       24.503      859.845
09/02/2014  10:12:00       -9.777       68.988       -0.531       32.543       34.746       25.507     1059.065     1207.287      650.598        0.389        0.146       69.678       21.914        0.099      346.298       24.444      859.836
09/02/2014  10:13:00      100.351       57.895        9.071       40.576       30.738       34.823     1646.387      944.828     1212.617        0.865        0.190      115.854       23.625        0.042      345.965       23.873      859.818
09/02/2014  10:14:00       63.067       23.644        4.768       47.968       33.211       30.493     2300.905     1102.976      929.849        0.445        0.217       67.353       16.792        0.062      346.497       24.788      859.806
09/02/2014  10:15:00       28.142       15.336       20.286       43.314       36.954       31.267     1876.127     1365.584      977.630        0.283        0.211       32.050       24.430        0.581      346.590       24.948      859.784
09/02/2014  10:16:00       29.615       31.780       -8.245       49.757       19.589       17.642     2475.758      383.725      311.255        0.256        0.159       43.440       16.375        0.142      345.767       23.531      859.773
09/02/2014  10:17:00       36.170       47.248       34.440       72.627       37.699       27.658     5274.697     1421.204      764.959        0.609        0.373       59.503       15.600        0.069      346.266       24.391      859.763
09/02/2014  10:18:00       80.462       51.634        9.195       51.360       28.077       30.681     2637.859      788.343      941.306        0.680        0.218       95.604       22.949        0.058      346.009       23.948      859.752
09/02/2014  10:19:00       75.199       53.124        6.219       21.452       24.973       20.954      460.186      623.670      439.081        0.502        0.076       92.071        8.600        0.009      346.033       23.989      859.740
09/02/2014  10:20:00       28.694        3.760       28.454       35.110       54.043       24.432     1232.692     2920.700      596.933        0.320        0.238       28.939       11.755        0.165      346.536       24.856      859.731
09/02/2014  10:21:00       -2.383      -10.387       40.513       20.600       42.373       30.430      424.378     1795.489      925.988        0.245        0.157       10.657       30.070        7.961      346.499       24.791      859.718
09/02/2014  10:22:00       14.149       40.647       38.752       35.210       36.916       29.748     1239.733     1362.790      884.915        0.342        0.174       43.039       21.384        0.247      346.548       24.876      859.703
09/02/2014  10:23:00      105.454       50.720       23.897       54.899       50.053       38.233     3013.852     2505.277     1461.728        1.062        0.349      117.017       29.023        0.062      346.156       24.201      859.700
09/02/2014  10:24:00       79.819       45.154      -13.519       50.104       39.435       28.978     2510.447     1555.095      839.729        0.675        0.245       91.706       25.223        0.076      345.977       23.894      859.682
09/02/2014  10:25:00       70.382       49.269        3.097       43.575       30.442       31.912     1898.782      926.701     1018.393        0.562        0.192       85.913       11.783        0.019      346.304       24.457      859.661
09/02/2014  10:26:00       -1.262       29.734       27.830       23.842       34.664       31.735      568.422     1201.563     1007.093        0.222        0.139       29.760       17.443        0.344      347.053       25.746      859.642
09/02/2014  10:27:00       69.496       40.750        9.888       56.183       40.359       36.123     3156.532     1628.831     1304.848        0.634        0.305       80.563       21.216        0.069      346.751       25.224      859.611
09/02/2014  10:28:00       85.800       81.533       58.410       65.205       47.419       38.831     4251.707     2248.537     1507.850        1.271        0.400      118.361       36.677        0.096      346.465       24.732      859.603
09/02/2014  10:29:00        5.877       38.997       58.800       28.404       37.453       26.888      806.784     1402.750      722.957        0.397        0.147       39.437       17.588        0.199      347.017       25.681      859.591
09/02/2014  10:30:00       28.320      -90.448      -22.372       92.146       61.650       29.313     8490.855     3800.668      859.278        1.131        0.658       94.778       40.637        0.184      346.423       24.661      859.588
09/02/2014  10:31:00       26.688       -3.552       59.354       39.367       50.772       30.814     1549.758     2577.746      949.517        0.466        0.254       26.923       27.377        1.034      346.906       25.490      859.588
09/02/2014  10:32:00       63.647      -66.557       17.913       41.316       47.223       34.269     1707.048     2229.973     1174.373        0.696        0.256       92.091       27.368        0.088      346.360       24.550      859.588
09/02/2014  10:33:00       69.489       47.058       37.544       33.113       52.903       35.906     1096.458     2798.774     1289.256        0.682        0.259       83.923       26.115        0.097      346.505       24.800      859.584
09/02/2014  10:34:00       49.381       69.899       39.909       68.627       45.398       67.646     4709.631     2061.022     4575.965        1.013        0.567       85.583       55.176        0.416      346.769       25.255      859.569
09/02/2014  10:35:00       78.413       61.581       14.851       42.138       39.048       41.750     1775.620     1524.775     1743.072        0.760        0.252       99.704       31.848        0.102      346.637       25.028      859.577
09/02/2014  10:36:00       30.948       41.024      -21.187       34.979       32.553       24.450     1223.511     1059.669      597.821        0.298        0.144       51.389       18.362        0.128      346.328       24.496      859.578
09/02/2014  10:37:00       -6.021       24.405      -26.581       22.343       21.487       13.201      499.232      461.674      174.271        0.124        0.057       25.136        9.074        0.130      346.338       24.514      859.576
09/02/2014  10:38:00        5.363       28.097        0.354       21.672       27.801       25.333      469.684      772.915      641.757        0.135        0.094       28.604       20.177        0.498      346.743       25.211      859.565
09/02/2014  10:39:00       62.561       69.002       24.941       75.891       36.026       35.817     5759.386     1297.844     1282.873        0.882        0.417       93.141       34.708        0.139      346.990       25.636      859.549
09/02/2014  10:40:00       75.463       76.081        8.928       69.548       45.173       40.164     4836.987     2040.566     1613.184        1.003        0.425      107.159       30.749        0.082      346.825       25.352      859.533
09/02/2014  10:41:00      120.606       72.932       19.908       42.413       39.039       35.847     1798.865     1524.056     1285.009        1.243        0.230      140.942       22.406        0.025      346.412       24.641      859.524
09/02/2014  10:42:00       61.489       41.290       28.216       48.884       30.062       41.014     2389.658      903.706     1682.165        0.563        0.249       74.066       27.788        0.141      346.924       25.523      859.507
09/02/2014  10:43:00       82.100       52.604       14.551       20.662       29.521       32.246      426.901      871.512     1039.810        0.603        0.117       97.507       14.701        0.023      346.530       24.844      859.494
09/02/2014  10:44:00       70.046       72.108       15.277       22.033       26.702       35.286      485.456      712.996     1245.098        0.639        0.122      100.528        4.467        0.002      346.504       24.799      859.474
09/02/2014  10:45:00       13.813      -12.961       34.303       38.010       81.059       48.970     1444.743     6570.519     2398.042        0.597        0.521       18.941       54.104        8.159      347.058       25.753      859.464
09/02/2014  10:46:00       26.402       24.327       53.946       34.698       56.644       21.329     1203.948     3208.523      454.934        0.453        0.243       35.901       15.247        0.180      347.206       26.006      859.437
09/02/2014  10:47:00       62.302      -84.501       18.532       52.567       45.890       48.904     2763.316     2105.925     2391.598        0.931        0.363      104.985       37.762        0.129      346.607       24.975      859.428
09/02/2014  10:48:00       30.271      -13.695       31.168       31.610       52.082       31.630      999.206     2712.517     1000.475        0.339        0.236       33.225       25.664        0.597      347.069       25.772      859.420
09/02/2014  10:49:00      117.112       79.298        5.593       51.921       41.420       40.354     2695.755     1715.620     1628.474        1.304        0.302      141.433       16.894        0.014      346.701       25.138      859.414
09/02/2014  10:50:00       48.349       68.799        5.849       43.441       42.630       36.011     1887.160     1817.296     1296.773        0.605        0.250       84.089       28.781        0.117      347.063       25.761      859.388
09/02/2014  10:51:00       47.593       42.679       19.110       36.831       28.253       26.006     1356.549      798.243      676.306        0.364        0.142       63.927       16.891        0.070      347.330       26.221      859.391
09/02/2014  10:52:00       40.034       21.360       18.410       32.402       20.956       28.276     1049.911      439.140      799.538        0.234        0.114       45.375       16.399        0.131      347.258       26.097      859.385
09/02/2014  10:53:00       24.962       29.881       29.107       21.255       28.449       23.521      451.772      809.337      553.260        0.209        0.091       38.935       12.768        0.108      347.093       25.812      859.376
09/02/2014  10:54:00        5.662       11.463       36.999       30.362       36.095       23.848      921.833     1302.816      568.729        0.216        0.140       12.785       10.144        0.630      347.542       26.588      859.375
09/02/2014  10:55:00       44.418       67.022       48.200       47.144       41.515       39.072     2222.577     1723.509     1526.636        0.713        0.274       80.405       21.074        0.069      347.610       26.705      859.371
09/02/2014  10:56:00       42.650       38.877       48.400       62.720       65.369       49.842     3933.814     4273.080     2484.234        0.818        0.535       57.710       40.201        0.485      347.394       26.332      859.367
09/02/2014  10:57:00      100.350       51.471       -2.839       38.549       35.070       29.764     1486.063     1229.886      885.878        0.816        0.180      112.780       10.229        0.008      346.919       25.513      859.371
09/02/2014  10:58:00       19.031       17.147       25.269       29.899       21.732       24.329      893.928      472.290      591.895        0.163        0.098       25.617       19.709        0.592      347.690       26.841      859.374
09/02/2014  10:59:00       43.939      -21.687       35.571       60.555       82.879       42.706     3666.898     6869.000     1823.760        0.801        0.618       49.000       57.521        1.378      347.435       26.403      859.367
09/02/2014  11:00:00       50.703      -74.497        7.621       65.123       91.398       58.501     4240.958     8353.665     3422.416        1.209        0.801       90.114       62.482        0.481      347.420       26.376      859.361
09/02/2014  11:01:00       14.599      -24.709       42.676       41.791       44.834       36.677     1746.455     2010.103     1345.201        0.387        0.255       28.700       20.921        0.531      347.887       27.183      859.353
09/02/2014  11:02:00       -6.842      -76.805        1.606       43.031       62.090       29.237     1851.671     3855.216      854.792        0.625        0.328       77.109       27.190        0.124      347.403       26.349      859.348
09/02/2014  11:03:00       36.812      -71.961       25.056       45.742       77.166       52.273     2092.360     5954.588     2732.465        0.897        0.539       80.830       61.970        0.588      347.572       26.639      859.338
09/02/2014  11:04:00       69.175      -72.843       17.065       70.640       70.324       46.791     4989.966     4945.524     2189.359        1.125        0.606      100.455       41.635        0.172      347.413       26.365      859.330
09/02/2014  11:05:00       58.892      -42.139       -3.706       55.202       47.156       37.146     3047.267     2223.661     1379.859        0.595        0.333       72.415       29.185        0.162      347.078       25.788      859.318
09/02/2014  11:06:00       30.162       13.007       31.177       46.456       51.018       32.720     2158.193     2602.807     1070.588        0.394        0.292       32.847       31.521        0.921      347.698       26.856      859.304
09/02/2014  11:07:00       28.734       56.767       74.128       68.532       51.542       35.412     4696.578     2656.600     1254.032        0.907        0.430       63.625       35.927        0.319      348.012       27.398      859.284
09/02/2014  11:08:00      -25.705      -31.216       24.242       35.233       52.500       35.921     1241.354     2756.302     1290.319        0.375        0.264       40.437       30.032        0.552      347.889       27.186      859.287
09/02/2014  11:09:00       -6.094      -31.451       35.601       45.538       45.906       42.469     2073.689     2107.326     1803.616        0.414        0.299       32.036       28.219        0.776      348.049       27.462      859.269
09/02/2014  11:10:00      -43.335      -30.950       -1.187       26.988       31.224       25.199      728.371      974.953      634.974        0.259        0.117       53.253       14.760        0.077      347.768       26.977      859.271
09/02/2014  11:11:00      -34.976      -35.945       12.495       48.035       50.973       35.464     2307.318     2598.228     1257.685        0.442        0.308       50.153       26.784        0.285      347.784       27.004      859.264
09/02/2014  11:12:00       -5.563        1.770       39.814       23.773       41.436       23.878      565.175     1716.967      570.172        0.224        0.143        5.838       19.618       11.293      348.273       27.851      859.259
09/02/2014  11:13:00       24.205       19.398       66.413       45.926       61.920       42.014     2109.217     3834.085     1765.165        0.654        0.385       31.019       44.613        2.069      348.119       27.584      859.253
09/02/2014  11:14:00       59.452      -74.746       24.068       53.284       79.246       33.188     2839.194     6279.942     1101.411        0.996        0.511       95.507       46.089        0.233      347.543       26.589      859.250
09/02/2014  11:15:00       48.901       58.234       21.025       32.301       36.284       37.428     1043.326     1316.555     1400.863        0.499        0.188       76.043       18.666        0.060      347.851       27.121      859.241
09/02/2014  11:16:00       13.125       -8.311       35.287       33.489       52.795       30.732     1121.505     2787.312      944.461        0.317        0.243       15.535       12.136        0.610      348.267       27.839      859.241
09/02/2014  11:17:00        8.280     -102.970        2.833       25.364       29.001       35.386      643.329      841.085     1252.147        0.671        0.137      103.302       19.042        0.034      347.564       26.625      859.224
09/02/2014  11:18:00      -34.169     -105.960       -5.691       47.925       40.836       33.258     2296.788     1667.585     1106.072        0.875        0.254      111.333       19.127        0.030      347.813       27.055      859.206
09/02/2014  11:19:00       12.888     -111.890       11.656       47.340       56.693       43.719     2241.093     3214.097     1911.381        1.009        0.368      112.630       36.767        0.107      347.897       27.199      859.185
09/02/2014  11:20:00      105.500      -63.255       23.008       61.417       52.823       37.590     3772.025     2790.246     1413.021        1.182        0.399      123.010       33.923        0.076      347.670       26.806      859.173
09/02/2014  11:21:00       34.741      -14.090       23.469       40.453       65.147       34.091     1636.461     4244.152     1162.218        0.450        0.352       37.489       37.386        0.995      347.834       27.091      859.167
09/02/2014  11:22:00       22.691     -103.481       -9.404       38.585       41.685       27.774     1488.839     1737.670      771.376        0.765        0.200      105.940       18.341        0.030      347.974       27.332      859.128
09/02/2014  11:23:00       24.130      -42.056        8.645       31.069       42.159       25.281      965.274     1777.345      639.115        0.290        0.169       48.486       20.042        0.171      348.207       27.736      859.114
09/02/2014  11:24:00       15.515      -15.266       23.189       51.013       61.265       51.690     2602.342     3753.446     2671.811        0.502        0.451       21.766       47.217        4.706      348.290       27.880      859.092
09/02/2014  11:25:00       31.358       11.497       67.497       57.675       80.790       50.167     3326.361     6527.078     2516.741        0.902        0.619       33.400       48.707        2.127      348.296       27.888      859.081
09/02/2014  11:26:00      110.186      -71.028       28.930       66.929      127.539       76.093     4479.512    16266.237     5790.090        2.227        1.327      131.095       95.213        0.528      347.925       27.245      859.075
09/02/2014  11:27:00       61.937     -110.475       -7.147       54.312       64.380       38.595     2949.826     4144.766     1489.575        1.234        0.429      126.653       43.854        0.120      347.993       27.365      859.071
09/02/2014  11:28:00      -16.197      -77.727        5.369       45.934       41.089       32.739     2109.909     1688.313     1071.816        0.560        0.244       79.397       13.024        0.027      348.053       27.467      859.062
09/02/2014  11:29:00        2.963       -4.293       42.429       28.416       39.282       32.217      807.445     1543.066     1037.948        0.261        0.169        5.216       16.466        9.965      348.789       28.743      859.052
09/02/2014  11:30:00       51.393      -76.116       10.159       36.035       40.007       27.627     1298.535     1600.530      763.240        0.610        0.183       91.842       19.139        0.043      347.805       27.040      859.046
09/02/2014  11:31:00       24.674      -40.138       16.206       48.068       58.304       29.000     2310.539     3399.332      840.978        0.452        0.328       47.116       28.837        0.375      348.510       28.259      859.020
09/02/2014  11:32:00       51.870      -78.596       23.286       52.482       87.175       58.585     2754.395     7599.563     3432.220        1.160        0.689       94.169       59.501        0.399      348.127       27.597      859.001
09/02/2014  11:33:00       61.481      -78.129       20.859       82.035      117.868       69.560     6729.816    13892.812     4838.569        1.789        1.273       99.419       82.685        0.692      348.595       28.404      858.986
09/02/2014  11:34:00      134.234     -120.347       10.305       90.108      100.995       76.241     8119.477    10199.991     5812.731        2.837        1.207      180.284       68.854        0.146      348.280       27.859      858.960
09/02/2014  11:35:00       33.105       42.224       82.398       62.510       62.095       61.152     3907.525     3855.812     3739.601        1.058        0.575       53.655       53.250        0.985      348.745       28.666      858.980
09/02/2014  11:36:00       68.724      -64.356        4.627       76.204      114.355       55.704     5807.109    13077.069     3102.910        1.543        1.099       94.152       69.001        0.537      348.271       27.844      858.976
09/02/2014  11:37:00       82.839     -168.511       -5.555       67.830      106.602       38.750     4600.847    11363.900     1501.595        2.637        0.873      187.772       41.367        0.049      348.139       27.617      858.957
09/02/2014  11:38:00       39.484       17.601       71.448       68.709       83.002       68.157     4720.929     6889.371     4645.415        1.161        0.813       43.229       55.371        1.641      348.741       28.659      858.947
09/02/2014  11:39:00       41.570       17.265       60.015       59.977       61.687       44.315     3597.262     3805.265     1963.827        0.750        0.468       45.013       42.869        0.907      348.540       28.312      858.939
09/02/2014  11:40:00       80.576       38.742       69.639       81.971       63.119       60.992     6719.292     3984.060     3720.036        1.363        0.721       89.407       61.491        0.473      348.357       27.993      858.929
09/02/2014  11:41:00        8.735      -24.642       43.861       42.643       95.220       42.370     1818.425     9066.767     1795.189        0.764        0.634       26.145       35.813        1.876      348.611       28.434      858.908
09/02/2014  11:42:00       33.512       33.295       65.928       74.528       66.374       40.487     5554.384     4405.515     1639.164        0.909        0.580       47.240       39.667        0.705      348.790       28.744      858.885
09/02/2014  11:43:00       76.983      -31.292       47.007       79.726      112.717       77.048     6356.231    12705.213     5936.463        1.705        1.250       83.100       81.104        0.953      348.677       28.547      858.886
09/02/2014  11:44:00       77.763      118.470      110.924       90.958       68.976       63.648     8273.344     4757.727     4051.095        2.473        0.854      141.712       53.854        0.144      348.565       28.353      858.864
09/02/2014  11:45:00       34.732       87.917      114.990       61.529       85.016       56.619     3785.864     7227.756     3205.669        1.819        0.711       94.529       52.356        0.307      348.801       28.761      858.830
09/02/2014  11:46:00      133.689      130.799      112.776       91.431       72.827       62.905     8359.568     5303.803     3957.090        3.266        0.881      187.032       42.553        0.052      348.541       28.308      858.820
09/02/2014  11:47:00      110.738       85.728       75.823      100.618       79.783       59.583    10124.031     6365.328     3550.125        2.270        1.002      140.044       51.532        0.135      348.348       27.975      858.803
09/02/2014  11:48:00       75.304        3.649       75.630      107.703      124.336       61.562    11600.032    15459.499     3789.914        2.112        1.542       75.393       71.918        0.910      349.035       29.168      858.779
09/02/2014  11:49:00       89.078       35.161       69.919       84.252      110.912       78.511     7098.416    12301.431     6163.910        1.981        1.278       95.766       84.328        0.775      348.662       28.520      858.777
09/02/2014  11:50:00       72.367      -62.029       50.343       97.593      195.976      100.277     9524.349    38406.477    10055.473        3.479        2.899       95.313      140.030        2.158      348.685       28.559      858.764
09/02/2014  11:51:00       84.952      -63.549       33.502       64.185       75.975       59.832     4119.696     5772.245     3579.810        1.292        0.674      106.091       57.547        0.294      348.994       29.096      858.731
09/02/2014  11:52:00       48.561      -35.449       57.083       55.137       82.979       52.614     3040.035     6885.571     2768.191        0.978        0.635       60.124       46.685        0.603      349.172       29.404      858.714
09/02/2014  11:53:00      161.963     -168.457       14.548      117.926      124.568       81.299    13906.641    15517.169     6609.538        4.542        1.802      233.687       85.368        0.133      348.834       28.817      858.697
09/02/2014  11:54:00      135.186      -61.199       65.192      114.459      133.545       87.749    13100.852    17834.159     7699.933        3.245        1.932      148.394       84.683        0.326      349.062       29.213      858.696
09/02/2014  11:55:00      155.291     -104.487       27.729      122.242      150.714       77.277    14943.055    22714.836     5971.790        3.971        2.181      187.171       89.889        0.231      348.927       28.977      858.692
09/02/2014  11:56:00      185.052     -143.464       22.040      114.423      125.288       73.614    13092.712    15696.993     5418.986        4.475        1.710      234.150       71.874        0.094      348.764       28.697      858.679
09/02/2014  11:57:00      167.520      -13.202       49.642      101.261      163.663       75.965    10253.862    26785.599     5770.686        3.675        2.141      168.040       80.916        0.232      348.731       28.638      858.678
09/02/2014  11:58:00       84.195       42.520       59.391       78.014       99.021       59.197     6086.198     9805.061     3504.302        1.591        0.970       94.322       53.331        0.320      348.857       28.858      858.685
09/02/2014  11:59:00       96.902     -122.048       11.599       94.408       92.037       70.953     8912.838     8470.881     5034.258        2.341        1.121      155.839       72.800        0.218      349.154       29.372      858.682
09/02/2014  12:00:00       88.329      -89.220       44.815       96.495      136.525       82.954     9311.228    18638.961     6881.432        2.629        1.742      125.548       93.241        0.552      348.809       28.774      858.694
09/02/2014  12:01:00       54.817      -86.426       22.712       97.211      108.752       69.539     9450.059    11827.083     4835.666        1.855        1.306      102.345       79.169        0.598      348.798       28.756      858.698
09/02/2014  12:02:00      -64.255      -71.475        5.707       53.923       51.534       29.652     2907.738     2655.723      879.218        0.785        0.322       96.111        7.990        0.007      348.630       28.466      858.687
09/02/2014  12:03:00      -55.715      -33.619        3.104       60.014       49.329       37.051     3601.673     2433.302     1372.782        0.582        0.370       65.072       18.842        0.084      348.797       28.756      858.677
09/02/2014  12:04:00       40.480     -114.967       -1.086       80.214       92.498       58.999     6434.246     8555.871     3480.893        1.666        0.924      121.886       38.151        0.098      348.653       28.503      858.670
09/02/2014  12:05:00       57.269      -97.691        3.723       53.461       69.114       41.367     2858.050     4776.715     1711.194        1.109        0.467      113.239       37.130        0.108      348.745       28.665      858.659
09/02/2014  12:06:00      -12.478      -57.728       -9.054       32.206       44.580       28.894     1037.232     1987.370      834.873        0.371        0.193       59.062       13.771        0.054      348.747       28.668      858.644
09/02/2014  12:07:00      -65.190      -89.485        2.581       81.628       90.263       48.250     6663.058     8147.483     2328.069        1.470        0.857      110.713       53.434        0.233      348.856       28.857      858.635
09/02/2014  12:08:00       48.857      -84.240       16.617       71.527       75.792       46.559     5116.114     5744.405     2167.787        1.139        0.651       97.382       42.281        0.189      349.079       29.243      858.616
09/02/2014  12:09:00       71.853      -10.459       44.507      101.816       96.792       65.625    10366.424     9368.771     4306.640        1.564        1.202       72.611       71.977        0.983      349.409       29.816      858.593
09/02/2014  12:10:00      123.995     -143.249      -42.941       94.233      119.780       74.699     8879.851    14347.268     5579.874        3.327        1.440      189.460       75.282        0.158      348.808       28.773      858.562
09/02/2014  12:11:00       36.176     -103.286        2.216       84.319       83.786       71.779     7109.692     7020.072     5152.204        1.563        0.964      109.438       49.450        0.204      348.893       28.920      858.550
09/02/2014  12:12:00      -70.532      -17.822      -14.545       79.008       63.146       49.955     6242.264     3987.445     2495.508        0.911        0.636       72.748       43.931        0.365      349.117       29.310      858.557
09/02/2014  12:13:00     -167.065     -145.766        5.582      128.200       79.954       58.717    16435.185     6392.694     3447.726        3.773        1.314      221.717       65.078        0.086      348.928       28.979      858.547
09/02/2014  12:14:00     -168.472     -116.678      -15.779       65.657       79.555       41.958     4310.824     6328.951     1760.498        2.732        0.620      204.931       37.369        0.033      348.637       28.475      858.537
09/02/2014  12:15:00      -75.256     -120.229       15.678       67.820       90.371       34.773     4599.578     8166.842     1209.186        1.717        0.699      141.840       34.089        0.058      348.718       28.617      858.529
09/02/2014  12:16:00     -119.451     -155.916       -9.947       71.580       56.410       39.104     5123.629     3182.091     1529.159        2.425        0.492      196.414       36.232        0.034      348.570       28.359      858.552
09/02/2014  12:17:00     -132.616      -95.781      -23.876      104.650       47.573       20.428    10951.718     2263.237      417.314        2.048        0.682      163.588       26.093        0.025      348.527       28.285      858.565
09/02/2014  12:18:00       10.219      -10.307       25.295       44.676       25.351       27.218     1995.952      642.688      740.821        0.211        0.169       14.514       22.377        2.377      349.171       29.405      858.543
09/02/2014  12:19:00       58.968       -7.427       20.802       55.779       66.508       44.936     3111.333     4423.258     2019.215        0.676        0.478       59.434       51.134        0.740      349.060       29.211      858.517
09/02/2014  12:20:00       49.207      -53.861      -11.762       90.720       78.879       36.962     8230.125     6221.910     1366.200        1.064        0.791       72.954       32.322        0.196      348.589       28.395      858.512
09/02/2014  12:21:00      115.808       63.326       42.759       38.600       34.361       36.478     1489.973     1180.676     1330.665        1.162        0.200      131.991       21.174        0.026      348.709       28.604      858.486
09/02/2014  12:22:00       54.591       46.959       51.142       67.861       48.049       36.407     4605.086     2308.681     1325.501        0.802        0.412       72.009       23.417        0.106      349.098       29.275      858.448
09/02/2014  12:23:00      -31.724      -85.495       -8.832       81.252       60.486       34.271     6601.855     3658.541     1174.532        0.991        0.572       91.191       28.010        0.094      349.339       29.695      858.430
09/02/2014  12:24:00       51.753      -21.787       43.190       65.644      106.587       69.250     4309.094    11360.744     4795.577        1.274        1.023       56.152       75.799        1.822      349.380       29.767      858.434
09/02/2014  12:25:00        2.458      -96.079        0.097       52.238       82.662       26.028     2728.824     6833.015      677.473        0.974        0.512       96.110       33.586        0.122      348.977       29.066      858.453
09/02/2014  12:26:00       30.180      -56.661       23.465       42.236       89.480       54.763     1783.844     8006.642     2998.977        0.873        0.639       64.197       58.670        0.835      349.338       29.692      858.446
09/02/2014  12:27:00      -34.281      -33.964       14.406       61.274       62.915       34.632     3754.458     3958.338     1199.373        0.572        0.446       48.256       40.669        0.710      349.459       29.902      858.425
09/02/2014  12:28:00     -113.221     -116.392      -12.794       83.677       70.101       32.464     7001.889     4914.151     1053.930        1.975        0.648      162.376       34.369        0.045      348.960       29.035      858.435
09/02/2014  12:29:00      -31.787      -68.036        5.685       44.083       50.718       32.874     1943.354     2572.287     1080.717        0.563        0.280       75.095       25.735        0.117      349.228       29.503      858.425
09/02/2014  12:30:00       11.895       -7.238       -9.624       60.545       56.892       49.228     3665.740     3236.703     2423.389        0.480        0.466       13.924       33.481        5.782      349.332       29.683      858.382
09/02/2014  12:31:00      -37.003       13.804        8.022       27.120       25.889       35.523      735.519      670.261     1261.892        0.215        0.133       39.494       27.807        0.496      349.536       30.036      858.375
09/02/2014  12:32:00      -51.319       11.061      -12.004       22.618       24.057       17.728      511.581      578.762      314.269        0.215        0.070       52.498       11.518        0.048      349.097       29.276      858.362
09/02/2014  12:33:00       -4.676       13.923       35.334       40.769       36.557       27.811     1662.134     1336.448      773.438        0.262        0.189       14.688       24.477        2.777      349.878       30.628      858.362
09/02/2014  12:34:00       56.559      -61.611       -2.797       45.695       54.126       36.916     2088.052     2929.644     1362.760        0.669        0.319       83.636       35.838        0.184      349.482       29.941      858.343
09/02/2014  12:35:00      -55.214     -128.476        2.244       72.018      111.371       41.863     5186.552    12403.603     1752.521        1.945        0.967      139.838       41.249        0.087      349.348       29.708      858.327
09/02/2014  12:36:00       12.480      -26.089       25.059       87.875       70.443       49.289     7721.946     4962.161     2429.372        0.829        0.756       28.920       43.410        2.253      349.794       30.485      858.294
09/02/2014  12:37:00       96.455      -14.826       67.693      103.369      135.886       92.928    10685.107    18465.121     8635.580        2.594        1.889       97.588      108.115        1.227      349.515       29.999      858.239
09/02/2014  12:38:00       92.742       94.139      106.106       63.932       74.833       48.186     4087.296     5599.964     2321.892        2.036        0.600      132.149       43.289        0.107      349.320       29.661      858.205
09/02/2014  12:39:00       77.797       89.242       83.084       60.138       84.116       52.151     3616.624     7075.534     2719.693        1.716        0.671      118.392       49.276        0.173      349.289       29.606      858.191
09/02/2014  12:40:00       62.360      -12.963       34.674       50.878       68.167       44.122     2588.604     4646.696     1946.720        0.722        0.459       63.693       44.370        0.485      349.307       29.638      858.196
09/02/2014  12:41:00       37.320       27.370       46.601       55.771       59.164       39.790     3110.366     3500.389     1583.239        0.625        0.410       46.281       36.956        0.638      349.794       30.483      858.169
09/02/2014  12:42:00       56.811        0.940       55.842       68.547       57.832       54.663     4698.631     3344.497     2988.093        0.869        0.552       56.819       40.512        0.508      349.828       30.543      858.162
09/02/2014  12:43:00       70.261      -98.084        6.956       71.838       78.364       55.814     5160.671     6140.915     3115.209        1.451        0.721      120.653       57.352        0.226      349.788       30.471      858.151
09/02/2014  12:44:00      131.737     -125.685       -7.348       82.217       82.760       54.678     6759.656     6849.232     2989.678        2.490        0.830      182.075       30.562        0.028      349.570       30.093      858.126
09/02/2014  12:45:00       97.033     -125.266       10.297       86.389      101.772       61.815     7463.025    10357.631     3821.051        2.342        1.082      158.451       52.878        0.111      349.707       30.332      858.107
09/02/2014  12:46:00      158.120     -211.736      -34.648      106.032      110.055       72.785    11242.730    12112.024     5297.639        4.984        1.433      264.261       67.635        0.066      349.356       29.723      858.100
09/02/2014  12:47:00       67.627     -144.338      -11.869       85.922       82.457       50.208     7382.557     6799.203     2520.855        2.112        0.835      159.396       32.695        0.042      349.458       29.900      858.113
09/02/2014  12:48:00       67.646        8.634       57.553       89.362       89.996       85.089     7985.490     8099.314     7240.153        1.564        1.166       68.195       62.757        0.847      349.654       30.240      858.085
09/02/2014  12:49:00       59.011      -21.025       15.780       59.525       95.289       47.978     3543.245     9079.995     2301.877        0.955        0.746       62.645       35.074        0.313      349.420       29.835      858.048
09/02/2014  12:50:00       27.012      -45.095       19.231       38.351       90.091       44.876     1470.771     8116.357     2013.875        0.736        0.580       52.566       40.190        0.585      349.836       30.557      858.026
09/02/2014  12:51:00       79.287      -83.390       -3.939       77.776       91.061       49.771     6049.165     8292.075     2477.146        1.503        0.841      115.066       52.577        0.209      349.824       30.535      857.985
09/02/2014  12:52:00       71.873     -125.628        2.867       41.158       70.300       35.849     1693.949     4942.145     1285.154        1.444        0.396      144.735       37.562        0.067      349.478       29.936      857.969
09/02/2014  12:53:00       55.252     -118.797        6.437       43.799       68.759       52.340     1918.312     4727.867     2739.526        1.329        0.469      131.017       47.337        0.131      349.680       30.286      857.974
09/02/2014  12:54:00       43.497        8.737       78.563      106.422      110.418       82.717    11325.676    12192.131     6842.125        1.924        1.518       44.365       96.934        4.774      350.018       30.872      857.937
09/02/2014  12:55:00       59.616     -101.272       -0.706      105.718      110.825       64.025    11176.335    12282.219     4099.204        2.068        1.378      117.516       57.239        0.237      349.919       30.700      857.868
09/02/2014  12:56:00        3.886        3.550       64.176       72.150       73.866       51.773     5205.656     5456.170     2680.450        0.874        0.667        5.263       31.298       35.367      350.201       31.190      857.828
09/02/2014  12:57:00      116.225     -197.343       -6.128       92.880       93.726       64.806     8626.643     8784.590     4199.870        3.705        1.081      229.025       56.778        0.061      349.815       30.516      857.816
09/02/2014  12:58:00     -113.960     -158.498       -0.388       87.185       88.518       49.822     7601.234     7835.512     2482.237        2.801        0.896      195.214       46.203        0.056      349.755       30.414      857.827
09/02/2014  12:59:00     -105.521      -84.766       -4.145       54.989       90.000       46.887     3023.803     8099.943     2198.381        1.583        0.666      135.351       44.822        0.110      349.554       30.064      857.831
09/02/2014  13:00:00     -157.274     -126.075        6.041      104.729       63.367       45.405    10968.099     4015.343     2061.581        2.885        0.852      201.569       31.550        0.024      349.437       29.863      857.824
09/02/2014  13:01:00     -270.858      -98.387      -20.750       86.132       86.933       43.090     7418.643     7557.379     1856.755        5.015        0.842      288.174       35.180        0.015      349.429       29.848      857.805
09/02/2014  13:02:00     -245.760      -44.658      -19.679      147.121       83.440       49.007    21644.533     6962.268     2401.695        4.689        1.550      249.785       56.623        0.051      349.507       29.983      857.792
09/02/2014  13:03:00     -197.730        0.820      -13.269      113.398       81.634       36.289    12859.179     6664.100     1316.879        3.005        1.042      197.732       39.905        0.041      349.755       30.414      857.759
09/02/2014  13:04:00     -329.634       19.348       -3.136      174.001      145.725       82.158    30276.337    21235.734     6749.913        8.364        2.913      330.202       93.974        0.081      350.007       30.849      857.713
09/02/2014  13:05:00     -305.457     -201.918      -11.265      142.352      118.773       73.360    20264.082    14107.107     5381.709        8.697        1.988      366.162       82.924        0.051      349.806       30.501      857.735
09/02/2014  13:06:00     -188.043     -196.903        0.796      105.978      134.596       58.872    11231.233    18115.997     3465.942        5.347        1.641      272.270       62.677        0.053      349.708       30.332      857.797
09/02/2014  13:07:00     -121.596     -135.775      -13.043       75.858       78.394       38.904     5754.375     6145.645     1513.492        2.340        0.671      182.264       31.096        0.029      349.688       30.299      857.821
09/02/2014  13:08:00      -11.429       -9.731       51.432       61.373      104.983       48.930     3766.694    11021.521     2394.163        1.002        0.859       15.010       62.344       17.251      350.079       30.980      857.801
09/02/2014  13:09:00      -12.285      -10.463       45.771       36.991       58.685       27.872     1368.337     3443.894      776.869        0.397        0.279       16.137       16.025        0.986      350.213       31.211      857.773
09/02/2014  13:10:00      -84.654      -81.427       -2.702       96.692      100.435       45.710     9349.266    10087.278     2089.377        1.766        1.076      117.459       42.815        0.133      349.997       30.834      857.796
09/02/2014  13:11:00     -131.806      -70.197        1.463       64.148       59.100       34.065     4114.959     3492.788     1160.403        1.553        0.438      149.334       29.962        0.040      349.974       30.795      857.781
09/02/2014  13:12:00     -225.630     -246.743      -23.323      107.252       93.742       40.417    11502.937     8787.636     1633.512        6.713        1.096      334.352       40.075        0.014      349.628       30.190      857.777
09/02/2014  13:13:00        9.889      -83.647       25.761      116.690       82.447       62.594    13616.525     6797.458     3917.986        1.604        1.217       84.230       48.750        0.335      350.196       31.181      857.761
09/02/2014  13:14:00       39.808      -27.312       45.313       59.640      100.034       57.189     3556.957    10006.785     3270.599        1.061        0.842       48.276       65.993        1.869      349.885       30.642      857.710
09/02/2014  13:15:00       30.569        5.100       57.867       53.771       84.503       47.022     2891.314     7140.812     2211.064        0.827        0.612       30.992       47.533        2.352      350.236       31.252      857.639
09/02/2014  13:16:00       57.145      -61.587       35.076       61.768      104.247       55.917     3815.273    10867.410     3126.716        1.305        0.890       84.015       58.718        0.488      349.827       30.541      857.600
09/02/2014  13:17:00       97.055      106.201       96.138       79.337       68.107       58.196     6294.384     4638.523     3386.775        2.213        0.716      143.869       47.315        0.108      349.973       30.793      857.594
09/02/2014  13:18:00       54.712       22.507       -2.896       59.058       41.018       19.503     3487.835     1682.480      380.357        0.453        0.278       59.160       21.702        0.135      350.118       31.045      857.620
09/02/2014  13:19:00      -64.349      -61.431      -15.250       66.393       68.289       27.998     4408.066     4663.452      783.864        0.900        0.493       88.964       24.042        0.073      349.775       30.450      857.637
09/02/2014  13:20:00      -54.595      -23.377        3.005       49.650       50.304       30.206     2465.145     2530.459      912.400        0.472        0.295       59.390       24.331        0.168      350.228       31.238      857.631
09/02/2014  13:21:00      -57.001     -122.244       -8.748       71.509       94.690       46.238     5113.588     8966.222     2137.995        1.724        0.811      134.881       35.778        0.070      349.979       30.803      857.632
09/02/2014  13:22:00      -38.391      -77.709        0.628       39.508       70.008       36.551     1560.863     4901.111     1335.948        0.765        0.390       86.675       28.265        0.106      350.056       30.938      857.644
09/02/2014  13:23:00     -118.901      -47.614       -0.192       80.800       67.241       39.550     6528.706     4521.293     1564.235        1.451        0.631      128.080       31.964        0.062      350.237       31.251      857.619
09/02/2014  13:24:00      -28.592       12.578       13.654       43.620       46.863       33.234     1902.711     2196.128     1104.521        0.318        0.260       31.236       14.595        0.218      350.545       31.788      857.593
09/02/2014  13:25:00     -100.694      -30.269        0.130      112.299       61.693       36.139    12611.177     3806.080     1306.042        1.439        0.886      105.145       32.195        0.094      350.514       31.734      857.589
09/02/2014  13:26:00     -105.921      -76.444       20.931       80.502       87.322       52.311     6480.593     7625.186     2736.397        1.717        0.842      130.625       50.823        0.151      350.331       31.415      857.619
09/02/2014  13:27:00      -15.650      -61.289      -11.904       70.036       63.367       39.397     4905.100     4015.327     1552.110        0.731        0.524       63.256       32.093        0.257      350.211       31.208      857.605
09/02/2014  13:28:00      -40.579       -9.942       12.796       60.059       59.145       34.184     3607.029     3498.080     1168.557        0.509        0.414       41.779       33.712        0.651      350.533       31.769      857.597
09/02/2014  13:29:00     -362.959      -74.780      -24.361      158.851      121.415       54.311    25233.769    14741.538     2949.654        9.042        2.146      370.583       60.972        0.027      349.999       30.837      857.595
09/02/2014  13:30:00     -187.128     -110.227      -14.184       97.982       87.223       46.201     9600.485     7607.849     2134.561        3.335        0.967      217.179       37.875        0.030      349.983       30.809      857.583
09/02/2014  13:31:00     -100.543      -38.251       -2.926       69.116       68.552       36.210     4777.023     4699.440     1311.132        1.118        0.539      107.574       40.012        0.138      350.174       31.144      857.519
09/02/2014  13:32:00     -299.961      -80.683       -3.393      220.093      113.791       73.652    48441.070    12948.285     5424.545        8.164        3.341      310.622       90.110        0.084      350.250       31.273      857.483
09/02/2014  13:33:00       -7.843     -144.434       -4.408       55.639       75.090       34.211     3095.671     5638.576     1170.408        1.542        0.495      144.647       31.876        0.049      349.856       30.592      857.450
09/02/2014  13:34:00     -225.302     -235.399        9.337      217.158      134.450       65.289    47157.430    18076.916     4262.664        8.787        3.475      325.843       67.855        0.043      350.263       31.296      857.445
09/02/2014  13:35:00     -276.257     -192.274        9.578      205.270      142.665       85.562    42135.570    20353.418     7320.891        9.158        3.490      336.582       93.706        0.078      350.423       31.574      857.436
09/02/2014  13:36:00     -267.272     -192.556      -19.236      205.339      142.622       81.368    42164.140    20340.956     6620.766        8.899        3.456      329.412       78.769        0.057      350.392       31.521      857.463
09/02/2014  13:37:00     -391.782     -289.192      -16.268      209.640      161.097       99.058    43949.052    25952.252     9812.436       15.854        3.986      486.955      100.212        0.042      350.137       31.076      857.468
09/02/2014  13:38:00     -370.005      -55.114       -6.340      153.604      153.628       68.449    23594.082    23601.698     4685.240        9.592        2.594      374.087       70.600        0.036      350.093       31.000      857.461
09/02/2014  13:39:00     -237.344     -125.459       -7.695      123.071      153.733       56.661    15146.494    23633.876     3210.465        5.705        2.100      268.463       57.584        0.046      350.192       31.173      857.453
09/02/2014  13:40:00     -112.298     -137.611       10.482       80.145      114.498       46.148     6423.251    13109.884     2129.629        2.666        1.083      177.616       60.183        0.115      350.068       30.959      857.397
09/02/2014  13:41:00     -241.517      -92.227       -5.302      118.858      117.972       54.097    14127.223    13917.487     2926.460        4.891        1.549      258.528       52.800        0.042      350.107       31.025      857.400
09/02/2014  13:42:00     -337.433     -295.481      -11.023      218.084      155.705       92.180    47560.816    24243.991     8497.218       14.078        4.015      448.520      103.360        0.053      350.113       31.034      857.413
09/02/2014  13:43:00     -317.554     -115.965       -5.331      195.140      158.595       76.222    38079.466    25152.352     5809.748        9.167        3.452      338.066       89.388        0.070      350.054       30.932      857.397
09/02/2014  13:44:00     -272.895      -99.836      -12.646      144.570      110.942       62.348    20900.421    12308.033     3887.302        6.084        1.855      290.584       60.066        0.043      350.103       31.019      857.386
09/02/2014  13:45:00     -221.996     -145.639       -9.889      184.966      110.778       61.565    34212.243    12271.858     3790.227        6.042        2.514      265.505       78.217        0.087      350.283       31.330      857.373
09/02/2014  13:46:00     -168.225      -82.115        4.276      146.607      118.114       68.279    21493.531    13950.976     4661.988        3.758        2.005      187.197       86.603        0.214      350.581       31.850      857.349
09/02/2014  13:47:00     -203.383     -244.603        8.725      166.976      188.156       70.762    27880.887    35402.620     5007.262        8.477        3.415      318.112       78.711        0.061      350.410       31.552      857.326
09/02/2014  13:48:00     -331.768     -155.271      -21.234      175.264      117.084       62.018    30717.606    13708.616     3846.243        9.144        2.414      366.304       60.962        0.028      350.100       31.010      857.311
09/02/2014  13:49:00     -223.367     -163.668      -10.120      133.184      148.000       69.006    17738.062    21904.086     4761.895        6.058        2.220      276.911       67.205        0.059      350.277       31.320      857.299
09/02/2014  13:50:00     -225.211     -131.964        0.007      145.908      116.991       71.363    21289.049    13686.869     5092.644        5.409        2.003      261.026       74.069        0.081      350.400       31.535      857.259
09/02/2014  13:51:00     -437.520     -315.469       -9.425      140.899      145.957       86.556    19852.441    21303.309     7492.024       16.983        2.432      539.393       70.563        0.017      350.092       30.998      857.255
09/02/2014  13:52:00     -264.447     -168.017        2.263      195.876      136.093       72.177    38367.424    18521.370     5209.472        8.012        3.105      313.308       81.246        0.067      350.168       31.130      857.213
09/02/2014  13:53:00     -135.151     -183.843       12.877      124.993      113.672       64.653    15623.203    12921.377     4179.999        4.247        1.636      228.176       73.070        0.103      350.332       31.416      857.215
09/02/2014  13:54:00     -197.037     -113.832        2.042      155.976       97.341       57.159    24328.622     9475.256     3267.176        4.442        1.854      227.555       47.781        0.044      350.467       31.651      857.188
09/02/2014  13:55:00     -296.089     -245.613      -19.222      171.123      146.749       72.455    29282.957    21535.197     5249.667       10.220        2.803      384.700       77.795        0.041      350.451       31.622      857.201
09/02/2014  13:56:00     -332.544     -120.103       -7.735      210.829      156.891       77.126    44448.729    24614.718     5948.388       10.003        3.751      353.568       86.864        0.060      350.450       31.619      857.227
09/02/2014  13:57:00     -539.101     -214.261      -32.569      193.758      167.059       91.432    37542.236    27908.614     8359.875       20.569        3.691      580.119       89.548        0.024      350.247       31.267      857.244
09/02/2014  13:58:00     -356.471      -44.120       -1.725      187.377      128.031       84.988    35110.126    16391.820     7222.931        9.386        2.936      359.191       87.961        0.060      350.413       31.557      857.246
09/02/2014  13:59:00     -356.735     -153.402      -22.493      227.451      173.341       80.475    51733.916    30047.122     6476.224       11.976        4.413      388.319      103.163        0.071      350.334       31.420      857.250
09/02/2014  14:00:00     -186.962     -146.058       -6.530      147.753      140.494       48.436    21831.091    19738.590     2346.023        5.011        2.196      237.251       47.694        0.040      350.125       31.055      857.256
09/02/2014  14:01:00     -247.168     -166.512       -4.138      132.698      100.041       60.063    17608.735    10008.184     3607.525        6.002        1.561      298.024       66.709        0.050      350.133       31.070      857.230
09/02/2014  14:02:00     -235.905     -175.128       -5.239      167.286      120.410       57.503    27984.604    14498.496     3306.633        6.606        2.289      293.804       62.685        0.046      350.190       31.165      857.187
09/02/2014  14:03:00     -374.698     -295.086        7.927      245.948      150.406      106.356    60490.311    22622.041    11311.508       16.096        4.721      476.943      116.315        0.059      350.240       31.255      857.166
09/02/2014  14:04:00     -283.495      -59.422       -3.452      206.763      181.753       91.629    42751.072    33034.199     8395.930        8.403        4.209      289.656       93.029        0.103      350.475       31.664      857.170
09/02/2014  14:05:00     -429.427     -250.680      -45.952      173.812      178.391       74.636    30210.462    31823.430     5570.488       15.847        3.380      497.240       85.564        0.030      350.343       31.434      857.190
09/02/2014  14:06:00     -388.654      -95.233      -24.143      158.296      136.909       71.913    25057.532    18744.124     5171.526       10.483        2.449      400.152       72.403        0.033      350.373       31.487      857.150
09/02/2014  14:07:00      -89.240      -92.595       29.050      123.302      105.937       67.747    15203.400    11222.750     4589.646        2.419        1.551      128.598       71.149        0.306      350.632       31.939      857.141
09/02/2014  14:08:00     -311.036      -42.107      -10.571      122.656      141.753       61.129    15044.511    20094.007     3736.695        6.874        1.944      313.873       60.898        0.038      350.780       32.195      857.126
09/02/2014  14:09:00     -465.601     -318.120       -7.782      254.721      185.941       89.301    64882.806    34574.136     7974.587       21.272        5.372      563.901       88.141        0.024      350.418       31.565      857.143
09/02/2014  14:10:00     -413.818     -261.752      -13.575      197.109      164.775       90.867    38852.079    27150.707     8256.736       15.709        3.713      489.652       87.216        0.032      350.039       30.906      857.180
09/02/2014  14:11:00     -449.501     -198.625      -18.621      140.239      129.564       70.852    19666.989    16786.859     5019.940       14.165        2.074      491.430       72.816        0.022      350.087       30.988      857.176
09/02/2014  14:12:00     -282.890     -171.509      -19.833      154.006      131.474       70.242    23717.866    17285.519     4933.879        7.788        2.297      330.821       83.514        0.064      350.269       31.305      857.132
09/02/2014  14:13:00     -204.516     -208.568       11.423      157.585      127.254       89.326    24832.946    16193.665     7979.128        6.722        2.450      292.108       91.012        0.097      350.379       31.496      857.094
09/02/2014  14:14:00     -158.576     -145.073       10.560       97.056      115.121       57.729     9419.959    13252.916     3332.694        3.615        1.300      214.924       43.070        0.040      350.330       31.411      857.080
09/02/2014  14:15:00     -219.308     -129.028       32.073      178.854      151.392       82.442    31988.859    22919.388     6796.725        6.373        3.085      254.449       79.998        0.099      350.544       31.784      857.082
09/02/2014  14:16:00     -330.626     -430.290      -14.524      187.730      245.533       96.841    35242.648    60286.500     9378.163       19.977        5.245      542.644       75.926        0.020      350.243       31.260      857.038
09/02/2014  14:17:00     -450.141     -315.183      -11.989      228.177      200.756      109.352    52064.920    40303.096    11957.943       20.320        5.216      549.516      109.999        0.040      350.352       31.449      857.080
09/02/2014  14:18:00     -374.921     -268.098      -15.524      159.602      137.820       71.401    25472.800    18994.236     5098.113       13.111        2.478      460.915       55.074        0.014      350.295       31.351      857.071
09/02/2014  14:19:00     -443.582     -289.683      -28.350      267.958      168.674      107.638    71801.495    28451.015    11586.027       19.664        5.592      529.793      129.378        0.060      350.379       31.497      857.067
09/02/2014  14:20:00     -286.889     -244.872       -2.574      211.158      160.128      101.817    44587.737    25641.114    10366.704       11.142        4.030      377.184      114.621        0.092      350.368       31.478      857.052
09/02/2014  14:21:00     -215.905      -40.906       19.017      130.516      111.895       79.956    17034.326    12520.485     6392.982        4.229        1.797      219.746       86.319        0.154      350.563       31.817      857.031
09/02/2014  14:22:00     -224.318      -85.392       22.677      148.769      140.052       75.320    22132.132    19614.449     5673.165        5.276        2.371      240.021       64.909        0.073      350.733       32.114      857.061
09/02/2014  14:23:00     -324.326     -232.589      -21.921      156.829      122.507       70.523    24595.389    15007.980     4973.526       10.216        2.229      399.105       72.351        0.033      350.197       31.180      857.040
09/02/2014  14:24:00     -171.800     -170.193        5.299      137.382      172.762       67.488    18873.933    29846.788     4554.588        5.588        2.664      241.828       63.733        0.069      350.478       31.669      857.023
09/02/2014  14:25:00     -416.633     -196.699       -8.096      241.199      218.919       87.052    58176.766    47925.671     7578.007       16.299        5.684      460.732      106.448        0.053      350.363       31.470      857.005
09/02/2014  14:26:00     -298.924     -210.839        8.530      186.636      148.780       94.131    34832.941    22135.347     8860.669        9.984        3.291      365.798       86.322        0.056      350.220       31.219      857.005
09/02/2014  14:27:00     -510.949     -346.363       -9.788      219.534      183.466      108.926    48195.195    33659.944    11864.811       23.741        4.686      617.282      107.373        0.030      350.211       31.206      856.987
09/02/2014  14:28:00     -444.455     -265.735       -9.331      275.498      165.703      110.054    75898.908    27457.334    12111.818       19.183        5.773      517.837      138.864        0.072      350.157       31.111      856.972
09/02/2014  14:29:00     -378.034     -165.565        2.763      261.468      151.687       89.499    68365.340    23008.947     8010.088       13.484        4.969      412.700      101.091        0.060      350.282       31.329      856.959
09/02/2014  14:30:00     -478.318     -226.157      -18.944      191.371      182.497       97.176    36622.689    33305.139     9443.087       17.982        3.969      529.089      102.570        0.038      350.319       31.394      856.971
09/02/2014  14:31:00     -453.618     -235.219       -7.988      200.090      176.619       88.121    40036.202    31194.209     7765.319       17.006        3.950      510.977       97.256        0.036      350.195       31.176      856.994
09/02/2014  14:32:00     -263.778     -172.354       -4.782      131.019      107.941       78.155    17165.868    11651.187     6108.166        6.711        1.746      315.095       76.050        0.058      350.209       31.202      856.977
09/02/2014  14:33:00     -151.297      -96.925        1.822      110.909       93.080       61.372    12300.830     8663.899     3766.537        2.850        1.237      179.681       58.158        0.105      350.460       31.638      856.957
09/02/2014  14:34:00     -163.056     -150.145        6.774      142.604      148.762       71.819    20335.830    22130.130     5157.983        4.839        2.381      221.655       71.863        0.105      350.590       31.863      856.960
09/02/2014  14:35:00     -258.104     -208.007       -2.641      171.943      104.639       70.680    29564.511    10949.368     4995.693        7.769        2.275      331.488       79.652        0.058      350.211       31.205      856.952
09/02/2014  14:36:00     -219.685     -146.579       -3.327      147.497      105.608       63.372    21755.509    11153.136     4016.063        5.333        1.846      264.097       66.088        0.063      350.345       31.440      856.888
09/02/2014  14:37:00     -238.623     -136.306        0.555      160.800      106.940       58.958    25856.708    11436.208     3476.080        5.814        2.038      274.809       67.410        0.060      350.497       31.702      856.866
09/02/2014  14:38:00     -273.000     -193.120        0.235      190.222      167.265       89.680    36184.326    27977.701     8042.420        9.200        3.610      334.402       99.338        0.088      350.470       31.655      856.830
09/02/2014  14:39:00     -418.588     -121.851       -4.423      216.158      165.151       80.854    46724.253    27274.730     6537.313       13.529        4.027      435.963       94.982        0.047      350.575       31.837      856.829
09/02/2014  14:40:00     -313.036     -239.243       -4.948      193.125      145.894       84.109    37297.178    21285.201     7074.352       11.044        3.283      393.991       89.167        0.051      350.488       31.686      856.818
09/02/2014  14:41:00     -462.125     -353.878       -3.226      230.180      212.681       99.618    52982.927    45233.382     9923.699       22.345        5.407      582.056      115.325        0.039      350.340       31.428      856.833
09/02/2014  14:42:00     -507.467     -319.505      -14.399      225.876      150.875       97.052    51020.017    22763.187     9419.047       22.149        4.160      599.672      109.380        0.033      350.004       30.844      856.854
09/02/2014  14:43:00     -432.044     -270.872      -12.661      183.669      165.789       98.766    33734.304    27486.023     9754.637       16.557        3.549      509.935      116.585        0.052      350.158       31.113      856.829
09/02/2014  14:44:00     -359.863     -256.211      -21.222      133.138      114.352       71.282    17725.809    13076.390     5081.058       11.573        1.794      441.753       66.639        0.023      350.384       31.506      856.815
09/02/2014  14:45:00     -115.247     -287.805        0.876       96.536      140.091       55.578     9319.238    19625.361     3088.904        6.407        1.602      310.022       44.241        0.020      350.332       31.415      856.814
09/02/2014  14:46:00     -242.241     -155.419       -0.992      119.830      121.980       57.291    14359.214    14879.222     3282.224        5.767        1.626      287.812       55.873        0.038      350.336       31.422      856.791
09/02/2014  14:47:00     -213.441     -259.539      -10.636      136.718      153.481       69.889    18691.947    23556.428     4884.412        8.007        2.357      336.032       62.459        0.035      350.162       31.120      856.767
09/02/2014  14:48:00     -173.643     -326.429        8.526      114.264      131.636       67.655    13056.175    17327.907     4577.170        8.586        1.748      369.740       50.664        0.019      350.197       31.178      856.706
09/02/2014  14:49:00     -163.649     -340.841      -13.216      182.638      160.655       79.277    33356.673    25810.117     6284.846       10.428        3.273      378.092       82.094        0.047      350.278       31.320      856.680
09/02/2014  14:50:00     -341.619     -213.819       -2.645      207.635      134.116       85.488    43112.090    17987.033     7308.166       11.540        3.420      403.016       95.466        0.056      350.611       31.900      856.704
09/02/2014  14:51:00     -289.695     -193.475       15.326      217.986      135.126       73.607    47517.904    18259.054     5417.982        9.638        3.560      348.362      103.386        0.088      350.266       31.300      856.733
09/02/2014  14:52:00      -77.977      -91.503       24.508      111.896       83.696       57.622    12520.659     7004.964     3320.279        1.895        1.142      120.222       46.635        0.150      350.423       31.576      856.694
09/02/2014  14:53:00      -50.208        4.946       27.035       87.799      100.619       70.505     7708.713    10124.180     4970.972        1.304        1.140       50.451       63.651        1.592      350.678       32.020      856.636
09/02/2014  14:54:00     -174.489       18.689       -9.652      112.050       77.693       47.857    12555.120     6036.261     2290.277        2.588        1.044      175.487       56.297        0.103      350.765       32.170      856.624
09/02/2014  14:55:00     -304.960      -22.258      -22.198      126.352      116.263       53.895    15964.748    13517.150     2904.629        6.318        1.619      305.771       50.045        0.027      350.474       31.661      856.602
09/02/2014  14:56:00     -268.390      -11.579      -12.804      109.425      101.657       56.929    11973.856    10334.242     3240.896        4.894        1.277      268.639       58.998        0.048      350.645       31.958      856.581
09/02/2014  14:57:00      -93.439     -109.974       -0.681      106.135       84.228       66.274    11264.611     7094.409     4392.247        2.178        1.138      144.309       61.188        0.180      350.756       32.155      856.581
09/02/2014  14:58:00     -134.657     -166.398        6.448      150.068      112.151       62.159    22520.423    12577.951     3863.703        4.240        1.948      214.058       66.060        0.095      350.466       31.648      856.558
09/02/2014  14:59:00     -282.611     -168.636        2.990      170.879      139.681       65.498    29199.694    19510.847     4289.952        8.065        2.650      329.100       82.946        0.064      350.672       32.007      856.546
09/02/2014  15:00:00     -249.460     -202.701        4.617      155.936      135.407       76.293    24316.114    18335.153     5820.603        7.590        2.424      321.431       75.925        0.056      350.428       31.582      856.516
09/02/2014  15:01:00     -396.550     -214.903      -15.425      239.234      135.968       86.211    57232.800    18487.414     7432.270       14.340        4.158      451.038      108.671        0.058      350.503       31.713      856.461
09/02/2014  15:02:00     -348.381     -231.282       -9.703      224.613      146.296       93.723    50451.114    21402.452     8784.011       12.778        4.032      418.164       94.228        0.051      350.483       31.677      856.499
09/02/2014  15:03:00     -423.135     -268.105      -22.850      188.066      160.339       92.156    35368.758    25708.559     8492.817       16.049        3.479      500.922       89.469        0.032      350.218       31.217      856.506
09/02/2014  15:04:00     -279.858     -254.395      -24.102      146.118      122.557       73.387    21350.515    15020.242     5385.588        9.268        2.088      378.203       83.750        0.049      350.277       31.319      856.496
09/02/2014  15:05:00     -327.563     -220.360       -4.574      214.405      149.484       87.651    45969.718    22345.333     7682.640       11.592        3.800      394.787      107.102        0.074      350.303       31.365      856.479
09/02/2014  15:06:00     -300.121     -158.247      -25.860      175.830      141.639       80.873    30916.175    20061.604     6540.402        8.664        2.876      339.285       94.792        0.078      350.636       31.944      856.487
09/02/2014  15:07:00     -339.740     -202.064      -23.403      189.193      123.822       83.637    35793.912    15331.915     6995.214       10.745        2.906      395.288       86.881        0.048      350.621       31.918      856.483
09/02/2014  15:08:00     -274.893      -82.100      -17.284      172.962      114.595       55.594    29915.720    13132.047     3090.733        6.436        2.307      286.891       67.792        0.056      350.584       31.854      856.478
09/02/2014  15:09:00     -213.234      -96.953        7.133      201.450      118.659       70.433    40582.178    14079.986     4960.773        5.726        2.981      234.240       95.022        0.165      350.477       31.667      856.459
09/02/2014  15:10:00     -335.580     -179.308      -13.316      134.776      142.487       63.569    18164.571    20302.625     4040.988        9.372        2.125      380.480       69.091        0.033      350.369       31.479      856.456
09/02/2014  15:11:00     -331.577     -149.165        5.270      169.825      120.884       76.113    28840.464    14612.900     5793.241        9.072        2.462      363.584       77.117        0.045      350.527       31.755      856.451
09/02/2014  15:12:00     -208.355      -55.569       36.324      196.830      142.810       75.922    38742.030    20394.839     5764.179        5.635        3.245      215.638       80.550        0.140      350.738       32.123      856.410
09/02/2014  15:13:00     -255.519     -117.809        3.309      177.433      173.772       71.875    31482.558    30196.800     5166.071        7.300        3.342      281.370       79.591        0.080      350.665       31.994      856.404
09/02/2014  15:14:00     -393.226     -168.680       -0.763      232.616      196.698      102.294    54110.216    38690.026    10464.015       14.315        5.163      427.878      117.702        0.076      350.621       31.917      856.420
09/02/2014  15:15:00     -382.344     -292.308       -4.124      223.035      135.145       93.209    49744.625    18264.286     8687.912       15.416        3.835      481.280      106.715        0.049      350.221       31.221      856.438
09/02/2014  15:16:00     -442.351     -194.285       -4.721      259.717      190.076       94.647    67452.819    36129.062     8958.115       17.297        5.627      483.136      119.062        0.061      350.181       31.152      856.413
09/02/2014  15:17:00     -429.550     -215.075      -17.948      218.073      225.305       92.958    47555.826    50762.270     8641.235       16.900        5.348      480.385      108.157        0.051      350.211       31.205      856.386
09/02/2014  15:18:00     -538.501     -239.213      -25.432      258.663      210.242      114.453    66906.729    44201.571    13099.561       23.601        6.210      589.242      125.114        0.045      350.328       31.409      856.381
09/02/2014  15:19:00     -504.021     -108.583      -28.040      204.076      194.770       92.843    41646.988    37935.382     8619.752       17.739        4.410      515.584       99.787        0.037      350.341       31.430      856.417
09/02/2014  15:20:00     -312.808     -188.731       -5.144      177.931      161.741       66.636    31659.300    26160.019     4440.386        9.786        3.113      365.333       72.795        0.040      350.454       31.626      856.397
09/02/2014  15:21:00     -232.895     -120.356       -9.867      133.717      112.959       64.794    17880.163    12759.841     4198.263        5.182        1.742      262.156       63.592        0.059      350.528       31.756      856.405
09/02/2014  15:22:00      -77.106      -36.687        2.549       70.721      114.374       41.100     5001.424    13081.341     1689.189        1.353        0.989       85.389       41.221        0.233      350.589       31.865      856.359
09/02/2014  15:23:00     -239.564      -60.060       -4.543      150.861      125.602       54.814    22759.108    15775.945     3004.560        5.127        2.077      246.978       59.004        0.057      350.763       32.166      856.322
09/02/2014  15:24:00     -255.490      -54.134       -9.285      241.290      110.697      103.887    58220.787    12253.744    10792.433        7.476        4.063      261.162      127.064        0.237      350.568       31.824      856.279
09/02/2014  15:25:00     -261.740     -266.905       -9.238      224.609      188.732       84.204    50449.284    35619.936     7090.375       11.648        4.658      373.827      110.140        0.087      350.543       31.783      856.317
09/02/2014  15:26:00     -461.018     -269.904      -17.096      295.687      182.145       98.536    87430.866    33176.845     9709.373       20.797        6.516      534.215      123.844        0.054      350.255       31.280      856.298
09/02/2014  15:27:00     -459.041     -160.928      -20.326      226.600      150.095       91.137    51347.491    22528.369     8306.002       15.959        4.109      486.432      103.574        0.045      350.229       31.236      856.311
09/02/2014  15:28:00     -369.031     -199.086      -23.514      206.279      136.415       83.551    42551.072    18609.098     6980.763       12.224        3.407      419.308       86.056        0.042      350.387       31.510      856.260
09/02/2014  15:29:00     -310.200      -48.454       -2.285      171.995      127.451       95.856    29582.307    16243.672     9188.432        7.678        2.751      313.962      102.843        0.107      350.560       31.812      856.293
09/02/2014  15:30:00     -321.536     -269.922       -4.101      234.492      194.420      112.318    54986.610    37799.266    12615.282       14.081        5.270      419.813      137.128        0.107      350.468       31.652      856.276
09/02/2014  15:31:00     -559.296     -246.830       -0.418      254.886      257.711      105.970    64967.038    66415.096    11229.582       25.815        7.131      611.340      119.700        0.038      350.327       31.407      856.273
09/02/2014  15:32:00     -461.914     -155.853      -24.374      297.122      202.263      112.020    88281.428    40910.375    12548.383       18.997        7.087      487.498      139.204        0.082      350.274       31.314      856.252
09/02/2014  15:33:00     -377.926     -249.620       -9.088      254.100      164.738      109.492    64566.792    27138.493    11988.472       15.444        5.185      452.922      134.360        0.088      350.227       31.233      856.249
09/02/2014  15:34:00     -311.787     -106.033       -2.813      189.425      139.707       80.610    35881.929    19517.947     6497.942        8.517        3.095      329.324       97.674        0.088      350.361       31.467      856.248
09/02/2014  15:35:00     -243.271     -112.319       -1.901      126.057      112.079       57.613    15890.350    12561.805     3319.234        5.178        1.589      267.948       59.709        0.050      350.421       31.571      856.247
09/02/2014  15:36:00     -505.298     -243.625      -21.602      326.950      242.311      106.748   106896.249    58714.852    11395.102       24.604        8.850      560.963      144.128        0.066      350.288       31.338      856.251
09/02/2014  15:37:00     -534.125     -255.853      -31.913      305.262      198.745      106.902    93184.970    39499.653    11428.110       24.791        7.206      592.242      130.121        0.048      350.255       31.280      856.204
09/02/2014  15:38:00     -545.207     -384.744      -12.147      283.357      219.964      124.930    80291.148    48384.182    15607.613       29.483        7.214      667.292      147.622        0.049      350.177       31.145      856.201
09/02/2014  15:39:00     -427.946     -207.758      -21.311      211.355      190.870       81.061    44670.787    36431.378     6570.845       15.720        4.384      475.711       60.689        0.016      350.214       31.207      856.213
09/02/2014  15:40:00     -346.133     -213.517        0.740      225.710      128.817       86.168    50944.802    16593.881     7424.910       12.017        3.748      406.691       90.990        0.050      350.386       31.509      856.236
09/02/2014  15:41:00     -325.664     -209.989      -14.238      189.957      137.584       73.752    36083.477    18929.230     5439.361       10.539        3.023      387.495       83.128        0.046      350.397       31.528      856.229
09/02/2014  15:42:00     -368.313     -246.577       18.200      241.351      157.716       96.148    58250.487    24874.215     9244.528       14.456        4.618      443.232      114.739        0.067      350.311       31.378      856.227
09/02/2014  15:43:00     -274.896     -204.455      -11.299      185.377      104.419       54.340    34364.481    10903.236     2952.885        8.285        2.411      342.592       55.496        0.026      350.160       31.114      856.229
09/02/2014  15:44:00     -208.891     -146.173        9.770      214.553      109.005       68.949    46032.824    11881.996     4753.960        6.387        3.133      254.955       77.644        0.093      350.436       31.597      856.196
09/02/2014  15:45:00     -371.731     -187.563       -9.836      198.044      128.250       72.277    39221.435    16448.006     5223.930       11.716        3.045      416.370       85.991        0.043      350.441       31.604      856.185
09/02/2014  15:46:00     -231.637      -25.342       -0.337      124.223      147.726       62.571    15431.377    21823.011     3915.166        4.773        2.058      233.019       73.500        0.099      350.702       32.059      856.180
09/02/2014  15:47:00     -240.202      -64.126        9.303      142.230      126.381       61.765    20229.294    15972.087     3814.864        5.095        2.001      248.614       46.280        0.035      350.562       31.815      856.158
09/02/2014  15:48:00     -358.329     -245.150       -2.914      206.111      149.343       89.899    42481.927    22303.416     8081.757       13.067        3.643      434.164      106.320        0.060      350.448       31.618      856.131
09/02/2014  15:49:00     -311.940     -179.993      -16.316      202.790      184.906       87.640    41123.839    34190.405     7680.686       10.647        4.150      360.144       82.585        0.053      350.457       31.632      856.117
09/02/2014  15:50:00     -508.218     -299.066      -23.060      244.359      238.963      113.130    59711.118    57103.221    12798.478       23.891        6.481      589.682      137.658        0.054      350.271       31.307      856.061
09/02/2014  15:51:00     -412.506     -220.733       -3.926      204.698      224.549       98.833    41901.323    50422.321     9768.033       16.048        5.105      467.851      102.444        0.048      350.325       31.402      856.075
09/02/2014  15:52:00     -358.473     -231.694       -6.726      189.514      165.781       92.559    35915.407    27483.255     8567.115       12.708        3.598      426.831      107.242        0.063      350.473       31.659      856.087
09/02/2014  15:53:00     -301.160     -127.804      -11.337      161.686      108.574       67.584    26142.408    11788.258     4567.535        7.482        2.125      327.156       61.366        0.035      350.609       31.894      856.081
09/02/2014  15:54:00     -332.314     -178.395       -9.966      149.662      122.508       64.805    22398.595    15008.223     4199.704        9.197        2.080      377.170       63.120        0.028      350.553       31.798      856.076
09/02/2014  15:55:00     -218.501     -153.755        2.928      169.234      181.657       73.654    28640.081    32999.192     5424.858        6.921        3.353      267.177       84.224        0.099      350.604       31.888      856.071
09/02/2014  15:56:00     -311.808     -174.917       -6.114      199.053      128.252       75.155    39621.950    16448.677     5648.256        9.478        3.086      357.520       80.705        0.051      350.362       31.467      856.037
09/02/2014  15:57:00     -291.200      -82.785        0.885      173.451      105.164       72.212    30085.395    11059.440     5214.555        6.900        2.318      302.739       72.862        0.058      350.550       31.793      856.040
09/02/2014  15:58:00     -206.454     -247.243       -6.129      166.760      142.788       72.831    27809.050    20388.456     5304.317        7.864        2.675      322.106       68.010        0.045      350.409       31.548      856.042
09/02/2014  15:59:00     -401.627     -333.892      -14.778      140.833      121.244       82.285    19833.802    14700.001     6770.763       15.715        2.065      522.291       69.428        0.018      350.378       31.494      856.027
09/02/2014  16:00:00     -407.595     -274.958      -18.371      231.882      183.513      111.166    53769.326    33676.958    12357.830       17.092        4.990      491.666      105.698        0.046      350.336       31.422      855.995
09/02/2014  16:01:00     -386.992     -268.019      -19.126      184.169      211.071       88.002    33918.385    44551.095     7744.416       15.407        4.311      470.740       90.474        0.037      350.358       31.461      855.984
09/02/2014  16:02:00     -259.725      -60.096      -14.071      185.941       81.163       60.494    34574.027     6587.399     3659.522        5.803        2.241      266.587       77.282        0.084      350.492       31.695      855.978
09/02/2014  16:03:00     -272.895     -117.410       -5.212      175.411       97.579       62.176    30768.973     9521.582     3865.871        6.621        2.208      297.081       82.499        0.077      350.676       32.015      855.986
09/02/2014  16:04:00     -216.733      -53.684        4.134      149.133      129.081       65.893    22240.624    16661.793     4341.922        4.655        2.162      223.283       66.442        0.089      350.531       31.762      855.956
09/02/2014  16:05:00     -115.190      -92.569       19.198      128.350      120.173       65.696    16473.836    14441.444     4315.933        2.871        1.762      147.776       80.133        0.294      350.565       31.820      855.943
09/02/2014  16:06:00     -208.458      -80.451       11.845      113.715      111.349       69.625    12931.003    12398.695     4847.615        4.012        1.509      223.444       59.896        0.072      350.761       32.161      855.942
09/02/2014  16:07:00     -372.291     -167.611      -13.961      221.143      149.157       79.815    48904.245    22247.752     6370.399       12.219        3.876      408.282       89.189        0.048      350.540       31.776      855.953
09/02/2014  16:08:00     -138.079      -82.755       18.973      120.033      112.252       65.978    14407.883    12600.453     4353.078        2.881        1.568      160.979       51.924        0.104      350.473       31.662      855.960
09/02/2014  16:09:00     -237.374     -160.302      -25.415      119.844      131.655       58.433    14362.508    17333.088     3414.408        5.889        1.756      286.432       51.187        0.032      350.274       31.313      855.958
09/02/2014  16:10:00     -267.267     -116.810       -5.794      142.269      111.056       69.305    20240.593    12333.540     4803.179        6.124        1.869      291.678       63.604        0.048      350.535       31.767      855.961
09/02/2014  16:11:00     -349.166     -188.745        3.879      231.497      239.598       94.993    53591.027    57407.120     9023.592       13.877        6.001      396.916      102.790        0.067      350.316       31.389      855.954
09/02/2014  16:12:00     -293.253     -234.504      -18.141      195.517      152.172       86.611    38226.788    23156.205     7501.393       10.509        3.444      375.485       86.014        0.052      350.328       31.407      855.965
09/02/2014  16:13:00     -422.861     -182.816      -21.627      198.419      180.811       86.147    39370.160    32692.449     7421.256       14.608        3.974      460.688      100.362        0.047      350.385       31.507      855.954
09/02/2014  16:14:00     -407.813     -283.043      -20.813      231.657      204.394       99.868    53664.783    41776.717     9973.619       17.612        5.271      496.412      121.673        0.060      350.317       31.390      856.009
09/02/2014  16:15:00     -369.580     -122.050      -16.631      189.515      168.244       78.377    35915.917    28306.175     6142.944       11.105        3.518      389.212       79.314        0.042      350.375       31.490      855.879
09/02/2014  16:16:00     -329.241     -160.747      -10.847      190.451      113.256       77.199    36271.624    12827.001     5959.694        9.470        2.753      366.387       75.711        0.043      350.461       31.639      855.919
09/02/2014  16:17:00     -298.590     -119.202       18.951      169.707      122.154       72.854    28800.320    14921.561     5307.725        7.637        2.451      321.504       72.669        0.051      350.535       31.768      855.933
09/02/2014  16:18:00     -314.705     -265.155        1.815      197.674      149.615      101.558    39075.159    22384.780    10314.123       12.055        3.589      411.517      105.316        0.065      350.219       31.219      855.959
09/02/2014  16:19:00     -382.570     -110.398      -23.723      132.675      131.849       66.972    17602.676    17384.122     4485.285        9.928        1.974      398.180       63.205        0.025      350.343       31.434      855.893
09/02/2014  16:20:00     -540.902     -257.204      -28.319      234.749      199.226       92.285    55107.236    39691.086     8516.510       23.140        5.166      598.940      105.842        0.031      350.330       31.410      855.916
09/02/2014  16:21:00     -463.177     -136.696       -6.096      192.814      153.286       80.176    37177.100    23496.696     6428.256       15.017        3.355      482.928       81.373        0.028      350.360       31.464      855.907
09/02/2014  16:22:00     -397.658     -139.734       -4.561      241.542      212.189      100.670    58342.535    45024.273    10134.392       14.557        5.675      421.494      100.762        0.057      350.338       31.424      855.982
09/02/2014  16:23:00     -441.188     -293.330       -5.725      260.249      137.383       97.880    67729.463    18874.058     9580.436       18.843        4.809      529.802      112.036        0.045      350.266       31.302      855.937
09/02/2014  16:24:00     -408.264     -278.458       -4.281      235.697      168.884       97.602    55553.059    28521.948     9526.165       16.890        4.680      494.185       99.071        0.040      350.224       31.228      855.920
09/02/2014  16:25:00     -206.134     -226.938       -4.105      136.805      104.780       57.205    18715.592    10978.790     3272.466        6.348        1.648      306.581       52.439        0.029      350.454       31.626      855.957
09/02/2014  16:26:00     -276.784     -265.990      -10.958      146.041      124.943       77.584    21328.033    15610.752     6019.276        9.521        2.148      383.875       76.305        0.040      350.319       31.393      855.941
09/02/2014  16:27:00     -373.056     -239.038       -6.055      220.280      133.118       74.835    48523.092    17720.320     5600.308       13.408        3.592      443.069       93.876        0.045      350.345       31.437      855.915
09/02/2014  16:28:00     -458.450     -263.270      -11.639      219.420      169.097       91.398    48145.276    28593.839     8353.576       18.234        4.255      528.666       95.346        0.033      350.280       31.324      855.925
09/02/2014  16:29:00     -443.549     -290.642      -16.431      241.115      163.920      104.389    58136.618    26869.713    10897.088       18.867        4.795      530.291      116.918        0.049      350.196       31.178      855.980
09/02/2014  16:30:00     -439.428     -205.841      -14.624      206.759      184.197       93.453    42749.238    33928.402     8733.464       16.053        4.271      485.250       96.105        0.039      350.130       31.063      855.920
09/02/2014  16:31:00     -262.381     -204.263      -10.178      196.635      178.498       96.715    38665.449    31861.483     9353.830        9.526        3.994      332.516      106.174        0.102      350.262       31.295      855.883
09/02/2014  16:32:00     -421.850     -336.135      -25.879      195.320      203.087       84.267    38149.717    41244.128     7100.944       18.904        4.325      539.392       83.340        0.024      350.187       31.163      855.953
09/02/2014  16:33:00     -456.860     -321.526       -1.939      203.458      180.522      104.043    41395.091    32588.198    10824.856       19.844        4.240      558.659      105.798        0.036      350.155       31.107      855.943
09/02/2014  16:34:00     -378.848     -159.244       -6.970      200.959      151.138       96.151    40384.707    22842.759     9244.953       12.069        3.624      410.955      103.931        0.064      350.277       31.319      855.906
09/02/2014  16:35:00     -374.130     -210.760       -3.103      205.625      158.544       79.569    42281.654    25136.173     6331.286       12.906        3.687      429.410       88.683        0.043      350.238       31.251      855.906
09/02/2014  16:36:00     -396.234     -139.880        0.897      226.028      138.309       77.327    51088.490    19129.242     5979.408       12.637        3.810      420.200       89.235        0.045      350.259       31.288      855.912
09/02/2014  16:37:00     -386.974     -195.925       -1.797      274.459      130.385       85.832    75327.892    17000.328     7367.197       14.390        4.985      433.745       94.849        0.048      350.319       31.394      855.905
09/02/2014  16:38:00     -424.283     -252.470      -31.724      243.993      161.362       91.655    59532.449    26037.558     8400.690       16.935        4.699      493.718       97.596        0.039      350.123       31.051      855.941
09/02/2014  16:39:00     -192.180     -100.981       16.132      261.070      188.028      109.613    68157.563    35354.582    12014.929        8.144        5.776      217.095      146.061        0.453      350.309       31.374      855.889
09/02/2014  16:40:00     -326.295      -83.946        2.879      191.999      144.424       78.229    36863.792    20858.391     6119.797        8.867        3.192      336.920       87.551        0.068      350.289       31.340      855.892
09/02/2014  16:41:00     -138.067      -32.481       10.526      124.212      119.567       67.867    15428.513    14296.296     4605.970        2.727        1.717      141.836       69.636        0.241      350.381       31.502      855.891
09/02/2014  16:42:00     -185.756      -53.564       11.032      131.684      111.411       67.377    17340.754    12412.474     4539.703        3.589        1.715      193.325       60.625        0.098      350.516       31.737      855.909
09/02/2014  16:43:00     -399.317     -143.097      -19.027      237.920      165.032      101.047    56606.060    27235.459    10210.531       13.715        4.703      424.183      122.855        0.084      350.266       31.301      855.911
09/02/2014  16:44:00     -420.170     -239.119      -24.206      267.821      116.493      108.291    71727.924    13570.560    11726.979       16.565        4.851      483.446      116.392        0.058      350.203       31.190      855.971
09/02/2014  16:45:00     -451.589     -229.500       -6.909      232.883      154.624       94.984    54234.484    23908.653     9022.001       17.189        4.358      506.559      115.767        0.052      350.100       31.013      855.942
09/02/2014  16:46:00     -256.662     -157.150       22.869      184.221      158.511       90.479    33937.310    25125.771     8186.476        7.916        3.362      300.951       92.259        0.094      350.336       31.422      855.924
09/02/2014  16:47:00     -296.132     -157.907        7.571      171.774      153.587       80.019    29506.473    23588.904     6403.005        8.608        2.975      335.602       78.842        0.055      350.188       31.166      855.963
09/02/2014  16:48:00     -353.064     -103.154      -12.306      223.721      168.427       83.924    50051.069    28367.641     7043.182       11.044        4.273      367.824      104.041        0.080      350.239       31.253      855.936
09/02/2014  16:49:00     -260.209     -122.985        1.574      221.663      153.631       98.929    49134.578    23602.481     9786.913        8.266        4.126      287.809      104.006        0.131      350.228       31.235      855.949
09/02/2014  16:50:00     -239.882     -152.061       -3.923      127.752      120.656       65.538    16320.683    14557.860     4295.214        5.792        1.759      284.018       54.358        0.037      350.269       31.305      855.920
09/02/2014  16:51:00     -189.231     -187.148       -2.566      147.726      139.384       78.691    21822.978    19427.856     6192.256        5.913        2.372      266.145       82.619        0.096      350.241       31.255      855.950
09/02/2014  16:52:00     -326.015     -161.355       -9.452      253.028      182.915       71.866    64023.175    33457.794     5164.725       11.751        5.132      363.760       99.455        0.075      350.189       31.167      855.975
09/02/2014  16:53:00     -328.923      -88.051      -17.546      147.318       90.942       57.450    21702.699     8270.516     3300.461        7.476        1.664      340.504       45.287        0.018      350.250       31.272      855.976
09/02/2014  16:54:00     -263.179     -161.885       -3.678      127.619      102.001       71.612    16286.493    10404.114     5128.222        6.364        1.591      308.982       59.584        0.037      350.257       31.286      856.006
09/02/2014  16:55:00     -265.834     -285.800        3.581      197.697      154.456      109.356    39084.205    23856.552    11958.625       11.362        3.745      390.320       99.553        0.065      350.161       31.117      856.012
09/02/2014  16:56:00     -283.116     -158.460       21.501      239.410      216.376      124.800    57316.953    46818.371    15575.114       11.269        5.986      324.445      138.974        0.183      350.124       31.053      856.045
09/02/2014  16:57:00     -315.535     -163.515       -3.245      207.674      168.488       95.914    43128.465    28388.213     9199.546       10.350        4.036      355.386       94.644        0.071      350.151       31.100      855.954
09/02/2014  16:58:00     -340.084      -88.108       20.964      275.490      189.696       97.881    75894.522    35984.507     9580.773       12.264        6.073      351.312      122.898        0.122      350.238       31.253      855.950
09/02/2014  16:59:00     -481.279     -211.944      -10.561      251.936      192.645       89.583    63471.896    37112.280     8025.049       19.261        5.430      525.880      102.630        0.038      350.068       30.956      855.952
09/02/2014  17:00:00     -302.120     -208.080       -1.873      226.284      135.398       84.799    51204.334    18332.631     7190.885       10.564        3.836      366.843       84.467        0.053      350.178       31.147      855.975
09/02/2014  17:01:00     -363.449     -205.024        5.217      164.550      184.258       86.529    27076.780    33950.862     7487.302       12.132        3.426      417.289       89.224        0.046      350.100       31.013      856.013
09/02/2014  17:02:00     -351.462     -151.561      -11.579      190.379      148.219       76.485    36244.109    21968.917     5849.981       10.533        3.203      382.748       87.415        0.052      350.099       31.010      855.979
09/02/2014  17:03:00     -430.927     -144.975      -22.176      226.057      160.166       79.318    51101.737    25653.218     6291.366       14.511        4.152      454.660       93.595        0.042      350.032       30.893      855.979
09/02/2014  17:04:00      -59.732        2.080       22.502      146.171       76.993       52.509    21365.822     5927.866     2757.235        1.706        1.503       59.768       39.406        0.435      350.326       31.408      855.969
09/02/2014  17:05:00     -228.205     -279.347       12.909      214.808      240.109       86.275    46142.529    57652.171     7443.332       12.074        5.562      360.711       92.966        0.066      350.254       31.280      856.003
09/02/2014  17:06:00     -198.674     -157.549       12.107      147.407      132.937       75.651    21728.829    17672.287     5723.127        5.477        2.256      253.561       71.535        0.080      350.123       31.052      855.969
09/02/2014  17:07:00     -256.518     -163.555       -5.024      181.725       90.679       58.511    33024.014     8222.627     3423.526        6.861        2.234      304.223       63.181        0.043      350.167       31.128      855.976
09/02/2014  17:08:00     -349.661     -257.039       -3.040      265.487      164.930       98.245    70483.201    27201.831     9651.988       14.782        5.367      433.972      108.293        0.062      349.987       30.816      856.038
09/02/2014  17:09:00     -470.935     -305.340      -25.116      251.061      249.661      105.088    63031.857    62330.690    11043.575       22.600        6.820      561.260      127.450        0.052      349.905       30.672      856.029
09/02/2014  17:10:00     -491.255     -256.091      -15.664      253.515      196.328      107.630    64269.902    38544.639    11584.170       21.076        5.720      553.998      112.251        0.041      349.871       30.613      855.999
09/02/2014  17:11:00     -305.832     -207.949       -0.079      184.278      162.826       86.306    33958.394    26512.220     7448.708       10.233        3.396      369.832       94.321        0.065      349.971       30.787      856.065
09/02/2014  17:12:00     -456.798     -252.725      -11.573      163.329      181.780       83.230    26676.395    33044.036     6927.213       16.964        3.332      522.048       71.603        0.019      349.870       30.611      856.058
09/02/2014  17:13:00     -433.075     -265.986      -31.777      221.100      208.567       95.158    48885.400    43500.217     9055.119       18.036        5.072      508.234      102.702        0.041      349.908       30.680      856.012
09/02/2014  17:14:00     -336.778     -241.388        9.347      232.982      171.559       98.176    54280.754    29432.590     9638.448       13.254        4.668      414.352      114.875        0.077      349.961       30.770      856.020
09/02/2014  17:15:00     -441.858     -306.565      -19.242      225.544      187.290       95.707    50869.893    35077.460     9159.851       19.233        4.755      537.792      118.807        0.049      349.856       30.588      856.023
09/02/2014  17:16:00     -371.934     -234.017       15.197      258.426      170.420      108.281    66783.949    29042.889    11724.806       15.042        5.378      439.430      122.814        0.078      349.860       30.594      856.012
09/02/2014  17:17:00     -477.408     -375.315      -27.759      239.285      238.379      104.834    57257.324    56824.783    10990.090       24.729        6.254      607.273      118.986        0.038      349.849       30.577      855.993
09/02/2014  17:18:00     -286.160     -200.745       -2.237      165.605      144.448       80.214    27425.050    20865.211     6434.291        8.845        2.736      349.551       85.001        0.059      349.920       30.701      856.003
09/02/2014  17:19:00     -341.160     -124.289        3.833      162.041      148.992       93.572    26257.220    22198.626     8755.710        9.452        2.861      363.094       96.334        0.070      349.933       30.721      856.006
09/02/2014  17:20:00     -318.537     -158.484        5.909      279.896      165.867      110.375    78341.718    27511.995    12182.642       12.230        5.902      355.785      131.744        0.137      349.969       30.784      856.007
09/02/2014  17:21:00     -322.056     -200.454      -15.490      187.415      172.447       75.437    35124.233    29738.038     5690.793       10.733        3.528      379.344       87.094        0.053      349.976       30.798      856.004
09/02/2014  17:22:00     -352.122     -213.066       -0.829      234.759      174.033       92.589    55111.805    30287.446     8572.811       13.166        4.699      411.566      105.957        0.066      349.934       30.724      856.016
09/02/2014  17:23:00     -464.373     -231.450      -23.808      204.828      170.043       98.280    41954.624    28914.554     9658.974       17.514        4.026      518.856      104.378        0.040      349.822       30.527      856.008
09/02/2014  17:24:00     -327.448     -172.010        2.542      175.169      157.012       77.716    30684.318    24652.650     6039.795        9.908        3.069      369.878       84.910        0.053      349.893       30.650      856.002
09/02/2014  17:25:00     -445.934     -232.679       -4.757      283.502      198.856       84.271    80373.560    39543.644     7101.610       18.999        6.351      502.988      110.152        0.048      349.899       30.662      856.024
09/02/2014  17:26:00     -378.385     -227.821       -7.416      216.098      175.682       94.094    46698.410    30864.190     8853.652       14.076        4.321      441.676      120.376        0.074      349.850       30.577      856.024
09/02/2014  17:27:00     -218.554      -44.786        7.149       97.361       94.377       47.512     9479.091     8906.994     2257.343        3.523        1.032      223.095       41.745        0.035      349.979       30.803      856.020
09/02/2014  17:28:00     -197.346     -102.648        3.786      125.067      107.411       70.550    15641.682    11537.106     4977.239        4.082        1.608      222.445       67.452        0.092      350.004       30.845      856.005
09/02/2014  17:29:00     -386.108     -210.861      -22.246      178.754      131.624       71.561    31952.870    17324.788     5121.038       12.421        2.720      439.934       78.609        0.032      349.885       30.640      855.994
09/02/2014  17:30:00     -272.008     -150.986        4.628      211.952      146.044       89.638    44923.474    21328.872     8034.946        8.553        3.714      311.103       95.667        0.095      349.929       30.714      855.975
09/02/2014  17:31:00     -247.413     -158.029       17.860      200.247      182.090       81.375    40098.807    33156.673     6621.936        8.318        3.994      293.575       82.540        0.079      349.834       30.550      855.979
09/02/2014  17:32:00     -242.975     -312.672       17.217      195.575      243.725       89.486    38249.414    59401.900     8007.672       13.136        5.283      395.980       86.508        0.048      349.872       30.615      855.974
09/02/2014  17:33:00     -547.263     -317.164      -38.084      232.837      163.894      103.203    54212.845    26861.301    10650.770       24.661        4.586      632.527      103.295        0.027      349.691       30.301      856.007
09/02/2014  17:34:00     -289.074     -298.985       10.266      270.554      275.357      128.725    73199.579    75821.669    16570.191       16.929        8.280      415.880      156.920        0.142      349.787       30.468      855.948
09/02/2014  17:35:00     -180.632     -197.030        8.224      170.287      104.280       74.801    28997.582    10874.391     5595.235        5.848        2.273      267.299       74.160        0.077      349.859       30.594      855.988
09/02/2014  17:36:00     -439.170     -261.491       -7.176      262.602      187.823       92.785    68959.689    35277.427     8609.057       18.705        5.642      511.124      112.292        0.048      349.744       30.392      856.005
09/02/2014  17:37:00     -356.757     -140.605       13.165      161.341      166.809       85.852    26031.021    27825.114     7370.532       10.421        3.061      383.465       96.540        0.063      349.749       30.400      855.985
09/02/2014  17:38:00     -350.642     -200.274       -8.102      228.310      188.252      102.932    52125.327    35438.796    10595.007       13.062        4.908      403.806      127.580        0.100      349.707       30.328      855.991
09/02/2014  17:39:00     -323.183     -150.586      -10.014      174.005      147.472       79.816    30277.655    21747.953     6370.592        9.280        2.920      356.544       76.487        0.046      349.737       30.380      855.979
09/02/2014  17:40:00     -213.331     -130.715      -11.691      145.097      129.472       68.699    21053.033    16763.017     4719.574        5.263        2.127      250.193       75.884        0.092      349.798       30.487      855.985
09/02/2014  17:41:00     -327.836     -194.168        8.211      221.532      167.766      101.621    49076.316    28145.418    10326.905       11.638        4.377      381.022      105.363        0.076      349.756       30.413      856.002
09/02/2014  17:42:00     -326.441     -182.194       -4.806      126.918      137.204       70.867    16108.058    18825.010     5022.197        8.986        1.998      373.842       67.833        0.033      349.745       30.394      855.978
09/02/2014  17:43:00      -88.156       -1.929       12.917       94.023       56.307       41.528     8840.245     3170.459     1724.566        1.084        0.687       88.178       51.913        0.347      349.904       30.674      855.997
09/02/2014  17:44:00     -373.022     -231.030       -2.873      197.585      178.210       90.308    39039.948    31758.975     8155.480       13.573        3.948      438.772       95.590        0.047      349.817       30.520      855.975
09/02/2014  17:45:00     -444.050     -224.761      -33.073      219.538      157.164       85.522    48196.896    24700.484     7314.014       16.449        4.011      497.692       97.542        0.038      349.739       30.386      855.962
09/02/2014  17:46:00     -298.393     -251.304        2.441      170.446      161.234       84.399    29051.873    25996.481     7123.196       10.717        3.109      390.118       70.227        0.032      349.704       30.322      855.957
09/02/2014  17:47:00     -272.120     -166.726       13.192      168.149      132.090       78.556    28273.975    17447.684     6171.058        7.695        2.595      319.134       83.366        0.068      349.741       30.387      855.958
09/02/2014  17:48:00     -255.050     -146.598        7.257      167.457       95.106       72.935    28042.008     9045.076     5319.509        6.449        2.120      294.179       79.255        0.073      349.725       30.359      855.955
09/02/2014  17:49:00     -239.209     -217.618        6.140      192.476      156.942       80.894    37046.821    24630.780     6543.861        8.641        3.411      323.386       87.256        0.073      349.680       30.282      855.934
09/02/2014  17:50:00     -415.216     -263.849       -2.839      224.385      187.621      103.181    50348.684    35201.614    10646.365       16.909        4.810      491.956      116.513        0.056      349.648       30.226      855.934
09/02/2014  17:51:00     -411.673     -269.033       -2.335      238.691      207.264      113.124    56973.293    42958.166    12796.983       17.727        5.636      491.786      121.678        0.061      349.606       30.154      855.916
09/02/2014  17:52:00     -475.739     -250.942      -35.565      222.900      132.023       93.365    49684.250    17429.973     8717.059       18.318        3.792      537.866      106.142        0.039      349.587       30.121      855.912
09/02/2014  17:53:00     -344.639     -203.635      -13.201      168.820      161.260       80.805    28500.173    26004.789     6529.471       11.071        3.052      400.304       88.314        0.049      349.629       30.194      855.920
09/02/2014  17:54:00     -436.083     -317.164      -26.906      212.424      212.840      101.212    45123.884    45300.912    10243.867       19.606        5.033      539.223       91.186        0.029      349.599       30.142      855.940
09/02/2014  17:55:00     -337.993     -256.743        2.876      183.394      141.972       81.219    33633.328    20156.159     6596.485       12.026        3.019      424.448       79.358        0.035      349.618       30.175      855.895
09/02/2014  17:56:00     -254.099     -147.156       -4.881      153.107      156.782       78.574    23441.707    24580.724     6173.818        7.021        2.710      293.635       83.038        0.080      349.563       30.079      855.886
09/02/2014  17:57:00     -317.709     -124.337        3.913      183.003      176.249       72.022    33490.117    31063.829     5187.167        9.306        3.487      341.173       67.843        0.040      349.577       30.104      855.895
09/02/2014  17:58:00     -170.117     -237.252        1.682      142.037      137.739       69.815    20174.564    18972.015     4874.126        6.462        2.201      291.938       60.540        0.043      349.566       30.086      855.896
09/02/2014  17:59:00     -419.336     -284.245      -24.655      220.699      207.301      103.752    48708.147    42973.682    10764.495       17.983        5.122      506.594      103.583        0.042      349.559       30.072      855.883
09/02/2014  18:00:00     -472.385     -256.540       -2.415      256.607      185.399      101.392    65847.254    34372.688    10280.310       19.971        5.525      537.550      113.973        0.045      349.488       29.949      855.861
09/02/2014  18:01:00     -207.641     -114.541       10.170      157.582       84.427       68.222    24832.095     7127.925     4654.263        4.647        1.831      237.138       80.451        0.115      349.502       29.974      855.895
09/02/2014  18:02:00     -214.986      -51.927       19.279      143.550       82.680       60.707    20606.690     6835.936     3685.323        4.020        1.556      221.168       74.526        0.114      349.664       30.256      855.939
09/02/2014  18:03:00     -288.165     -139.173       -0.777      206.415      195.314      108.301    42607.350    38147.419    11729.072        9.743        4.624      320.013      125.485        0.154      349.505       29.979      855.927
09/02/2014  18:04:00     -372.970     -106.527      -17.124      202.749      216.322       90.668    41107.071    46795.274     8220.671       12.342        4.806      387.885       76.008        0.038      349.522       30.008      855.908
09/02/2014  18:05:00     -243.500     -150.309       13.409      171.982      132.679       84.535    29577.885    17603.619     7146.108        6.819        2.716      286.156       73.775        0.066      349.493       29.957      855.887
09/02/2014  18:06:00     -262.424     -180.303        2.238      223.423      143.086       66.860    49918.051    20473.467     4470.274        8.811        3.743      318.395       87.119        0.075      349.460       29.901      855.884
09/02/2014  18:07:00     -333.222      -59.438      -14.668      204.768      149.002       67.166    41929.955    22201.714     4511.259        9.170        3.432      338.481       71.230        0.044      349.467       29.912      855.905
09/02/2014  18:08:00     -391.243      -56.323       -7.495      195.551      218.890       81.375    38240.273    47912.870     6621.852       12.452        4.639      395.277       91.825        0.054      349.457       29.896      855.867
09/02/2014  18:09:00     -244.282     -121.783        5.068      179.996      141.369       85.328    32398.453    19985.248     7280.788        6.709        2.983      272.956       97.704        0.128      349.461       29.903      855.877
09/02/2014  18:10:00     -124.683      -99.757       11.347      140.765      154.165       66.613    19814.666    23766.717     4437.262        3.681        2.401      159.679       71.563        0.201      349.492       29.958      855.876
09/02/2014  18:11:00     -212.054     -241.231        4.057      201.317      159.756       87.849    40528.678    25522.046     7717.525        8.846        3.688      321.184       96.776        0.091      349.402       29.800      855.848
09/02/2014  18:12:00     -328.622     -308.246      -14.857      176.932      148.795       75.001    31304.883    22140.072     5625.137       13.114        2.954      450.564       64.955        0.021      349.406       29.806      855.849
09/02/2014  18:13:00     -159.739     -131.419        8.181      133.980      111.570       61.835    17950.734    12447.821     3823.620        3.853        1.711      206.851       53.948        0.068      349.443       29.871      855.843
09/02/2014  18:14:00     -302.754     -225.560        1.507      215.644      136.782       86.701    46502.143    18709.442     7517.095       10.762        3.636      377.540      101.144        0.072      349.389       29.777      855.843
09/02/2014  18:15:00     -249.356     -251.963       15.892      211.108      134.040       86.169    44566.799    17966.736     7425.151        9.792        3.498      354.491      106.576        0.090      349.319       29.657      855.851
09/02/2014  18:16:00     -224.873      -98.066       -3.658      168.130      119.759       78.434    28267.620    14342.289     6151.937        5.447        2.438      245.326       89.843        0.134      349.331       29.676      855.842
09/02/2014  18:17:00     -198.086     -154.025       15.532      173.191      190.962       78.040    29995.251    36466.653     6090.248        6.786        3.628      250.922       87.969        0.123      349.319       29.658      855.849
09/02/2014  18:18:00     -451.531     -263.450      -17.386      227.938      203.566       99.001    51955.917    41439.055     9801.231       18.837        5.160      522.767      104.737        0.040      349.225       29.493      855.834
09/02/2014  18:19:00     -294.901     -103.102      -17.060      177.639      116.323       62.021    31555.446    13531.085     3846.646        7.340        2.447      312.405       73.707        0.056      349.278       29.587      855.829
09/02/2014  18:20:00     -293.261     -119.167      -16.612      196.207      108.293       69.856    38497.352    11727.311     4879.793        7.778        2.755      316.548       76.135        0.058      349.281       29.590      855.831
09/02/2014  18:21:00     -205.424      -90.271        5.729      146.341      105.022       59.169    21415.696    11029.712     3500.948        4.316        1.797      224.383       71.297        0.101      349.270       29.571      855.850
09/02/2014  18:22:00     -450.121      -38.442       -9.715      194.763      182.047       89.810    37932.641    33141.055     8065.811       14.164        3.957      451.760       86.033        0.036      349.236       29.513      855.843
09/02/2014  18:23:00     -330.674     -100.303        0.301      205.825      163.047       89.241    42363.987    26584.471     7963.955        9.814        3.846      345.552      102.041        0.087      349.245       29.529      855.824
09/02/2014  18:24:00     -212.298     -108.061       14.759      147.751      147.423       80.043    21830.475    21733.610     6406.889        5.346        2.499      238.218       71.914        0.091      349.251       29.540      855.806
09/02/2014  18:25:00     -347.886     -196.625      -28.913      183.912      173.466       77.132    33823.796    30090.500     5949.414       11.518        3.493      399.607       81.011        0.041      349.200       29.450      855.834
09/02/2014  18:26:00     -336.826     -138.856       -8.919      175.406      180.149       80.743    30767.158    32453.560     6519.353       10.126        3.487      364.325       93.625        0.066      349.196       29.444      855.822
09/02/2014  18:27:00     -146.418      -88.902       13.687      128.726       98.894       67.713    16570.375     9780.058     4584.993        3.023        1.547      171.295       66.406        0.150      349.262       29.559      855.835
09/02/2014  18:28:00     -222.513     -155.366       12.610      127.038      142.744       59.979    16138.777    20375.825     3597.474        5.695        2.006      271.386       47.615        0.031      349.206       29.461      855.843
09/02/2014  18:29:00     -220.245     -116.107       -7.374      134.667      109.099       66.283    18135.209    11902.635     4393.389        4.823        1.722      248.976       65.651        0.070      349.219       29.483      855.838
09/02/2014  18:30:00     -208.547     -134.052       10.931      146.365      144.507       73.069    21422.836    20882.276     5339.089        5.460        2.382      247.915       76.005        0.094      349.210       29.467      855.837
09/02/2014  18:31:00     -298.153     -254.046        4.967      193.296      136.600       79.038    37363.161    18659.648     6246.980       10.785        3.113      391.707       81.721        0.044      349.120       29.312      855.825
09/02/2014  18:32:00     -352.468     -169.633        5.373      187.800      209.284       90.070    35269.019    43799.748     8112.548       12.009        4.359      391.164       87.928        0.051      349.116       29.304      855.808
09/02/2014  18:33:00     -243.297      -55.832      -13.545      126.103      161.604       71.834    15901.935    26115.873     5160.144        5.483        2.359      249.621       63.176        0.064      349.122       29.315      855.819
09/02/2014  18:34:00     -267.622     -182.482      -10.778      172.702      177.864       85.018    29826.033    31635.447     7228.009        8.685        3.434      323.916       96.425        0.089      349.109       29.291      855.788
09/02/2014  18:35:00     -226.418     -186.086        1.202      168.963      147.488       83.642    28548.360    21752.795     6995.956        7.158        2.865      293.075       85.012        0.084      349.120       29.310      855.800
09/02/2014  18:36:00     -261.322     -161.525       -1.649      171.185      136.828       78.871    29304.185    18721.988     6220.635        7.430        2.712      307.212       84.730        0.076      349.070       29.224      855.797
09/02/2014  18:37:00     -217.441     -139.937        2.682      135.661      132.897       66.533    18403.868    17661.575     4426.598        5.367        2.025      258.579       53.573        0.043      349.054       29.195      855.785
09/02/2014  18:38:00     -282.148     -168.915        5.601      199.141      134.081       72.696    39657.021    17977.804     5284.702        8.553        3.146      328.846       96.652        0.086      349.020       29.139      855.772
09/02/2014  18:39:00     -333.422     -105.781        5.274      236.184      161.925       93.197    55782.995    26219.729     8685.748       10.652        4.534      349.800      115.811        0.110      348.973       29.057      855.751
09/02/2014  18:40:00     -285.728     -138.015        4.989      209.610      108.826       76.134    43936.303    11843.151     5796.443        8.113        3.079      317.315       91.649        0.083      348.957       29.032      855.748
09/02/2014  18:41:00     -171.942     -182.445       -8.810      201.984      114.610       93.166    40797.555    13135.509     8679.951        6.276        3.131      250.700       86.991        0.120      348.955       29.027      855.740
09/02/2014  18:42:00     -264.423      -92.277       -7.285      154.130      128.107       60.878    23756.002    16411.430     3706.082        6.117        2.194      280.062       66.486        0.056      348.945       29.008      855.731
09/02/2014  18:43:00     -302.952     -133.540      -21.245      246.726      129.540       87.755    60873.582    16780.683     7700.994        9.769        4.268      331.078      124.012        0.140      348.937       28.995      855.732
09/02/2014  18:44:00     -226.481     -102.603        5.224      174.992      141.011       87.428    30622.133    19884.146     7643.731        5.999        2.908      248.638       93.575        0.142      348.893       28.919      855.709
09/02/2014  18:45:00     -403.356     -166.144        1.370      218.323      176.152       89.837    47665.125    31029.422     8070.611       13.852        4.338      436.234      106.861        0.060      348.893       28.918      855.715
09/02/2014  18:46:00     -372.474     -195.719        8.472      236.747      166.261       90.623    56049.000    27642.645     8212.518       13.449        4.595      420.764      114.956        0.075      348.853       28.848      855.707
09/02/2014  18:47:00     -346.868     -122.333      -16.898      129.462      107.304       62.935    16760.521    11514.215     3960.832        8.390        1.612      367.808       52.778        0.021      348.881       28.897      855.704
09/02/2014  18:48:00     -264.573     -165.441       14.060      197.296      165.730       85.067    38925.850    27466.414     7236.313        8.558        3.681      312.041       87.475        0.079      348.847       28.838      855.692
09/02/2014  18:49:00     -380.060      -21.950       -6.950      194.296      134.512       90.957    37751.024    18093.515     8273.132       10.453        3.206      380.693      105.338        0.077      348.825       28.800      855.698
09/02/2014  18:50:00     -344.297      -58.445       -5.885      205.142      128.982       81.534    42083.107    16636.375     6647.732        9.367        3.268      349.222       90.185        0.067      348.806       28.766      855.713
09/02/2014  18:51:00     -458.122     -207.055      -14.365      232.144      236.240       88.106    53890.711    55809.337     7762.623       18.518        5.873      502.740       97.904        0.038      348.781       28.724      855.693
09/02/2014  18:52:00     -269.205     -132.403       23.892      220.353      174.944       84.945    48555.510    30605.538     7215.598        8.846        4.319      300.003      111.674        0.139      348.783       28.729      855.687
09/02/2014  18:53:00     -315.229     -188.082        4.768      159.881      175.311       88.884    25561.921    30734.003     7900.427        9.947        3.210      367.075       89.530        0.059      348.732       28.641      855.665
09/02/2014  18:54:00     -471.232     -228.421      -15.700      247.964      165.148       84.822    61486.340    27273.817     7194.784       18.520        4.798      523.675       95.665        0.033      348.746       28.665      855.683
09/02/2014  18:55:00     -370.904     -278.233       -2.607      262.943      200.232      100.946    69139.068    40092.899    10190.085       16.718        5.971      463.663      132.630        0.082      348.708       28.599      855.664
09/02/2014  18:56:00     -334.787     -201.413       -3.633      164.465      168.614       83.708    27048.842    28430.824     7007.042       10.756        3.124      390.704       88.386        0.051      348.681       28.551      855.671
09/02/2014  18:57:00     -291.735     -245.731       -7.830      161.156      164.403       98.038    25971.268    27028.465     9611.436       10.407        3.131      381.435       90.095        0.056      348.670       28.533      855.683
09/02/2014  18:58:00     -350.889     -149.677      -17.087      128.736      132.882       62.529    16572.854    17657.674     3909.910        9.197        1.907      381.479       51.505        0.018      348.666       28.524      855.697
09/02/2014  18:59:00     -449.457     -215.765      -36.405      223.514      177.537      106.658    49958.448    31519.214    11375.997       17.135        4.643      498.564       96.318        0.037      348.640       28.480      855.675
09/02/2014  19:00:00     -337.595     -113.607       -7.577      313.250      167.677      108.311    98125.414    28115.684    11731.218       13.243        6.899      356.197      150.523        0.179      348.625       28.453      855.664
09/02/2014  19:01:00     -256.739     -116.553       17.914      216.571      172.446       94.091    46902.833    29737.622     8853.108        8.264        4.275      281.956       95.158        0.114      348.633       28.467      855.660
09/02/2014  19:02:00     -380.137      -80.771      -32.765      217.619      161.662       82.101    47358.171    26134.570     6740.495       11.615        4.012      388.623       81.352        0.044      348.603       28.416      855.670
09/02/2014  19:03:00     -285.846     -108.171       -6.555      186.342      149.739       80.092    34723.398    22421.670     6414.697        7.849        3.178      305.629       93.640        0.094      348.583       28.382      855.681
09/02/2014  19:04:00     -299.262     -203.413       -9.838      205.498      157.420       73.345    42229.437    24780.917     5379.460       10.170        3.619      361.849       89.639        0.061      348.556       28.333      855.688
09/02/2014  19:05:00     -518.328     -172.300      -42.037      197.125      184.055       82.972    38858.412    33876.423     6884.364       18.985        3.981      546.216       76.004        0.019      348.554       28.330      855.694
09/02/2014  19:06:00     -370.533     -115.325       -5.661      192.957      152.240       87.077    37232.436    23177.099     7582.354       10.930        3.400      388.065       94.122        0.059      348.543       28.312      855.691
09/02/2014  19:07:00     -219.008     -122.975       -9.518      142.290      128.687       62.708    20246.504    16560.297     3932.249        5.195        2.037      251.172       53.347        0.045      348.527       28.286      855.746
09/02/2014  19:08:00     -249.714     -153.264        2.656      214.830      130.815       91.640    46151.742    17112.662     8397.870        7.874        3.583      292.997       97.300        0.110      348.491       28.223      855.741
09/02/2014  19:09:00     -328.702     -115.394      -23.670      157.618      120.465       71.663    24843.506    14511.821     5135.591        8.320        2.225      348.369       82.008        0.055      348.480       28.204      855.766
09/02/2014  19:10:00     -223.592     -109.448      -12.980      163.370      105.312       56.911    26689.716    11090.609     3238.849        5.157        2.051      248.942       69.403        0.078      348.467       28.181      855.785
09/02/2014  19:11:00     -131.941      -77.244       18.018      155.427       90.145       64.497    24157.618     8126.064     4159.920        3.006        1.822      152.889       75.346        0.243      348.431       28.120      855.799
09/02/2014  19:12:00     -229.871      -16.917       11.045      111.754       91.802       60.049    12488.993     8427.629     3605.830        3.888        1.226      230.493       59.334        0.066      348.395       28.057      855.847
09/02/2014  19:13:00     -142.485      -81.690        6.546      102.296       85.268       54.926    10464.378     7270.583     3016.847        2.388        1.038      164.241       47.935        0.085      348.391       28.052      855.860
09/02/2014  19:14:00     -211.079      -73.085       -9.948      121.431       87.826       46.500    14745.446     7713.447     2162.240        3.730        1.231      223.374       42.063        0.035      348.384       28.039      855.891
09/02/2014  19:15:00     -384.394      -77.485      -29.590      149.638      196.433       74.301    22391.531    38585.940     5520.572       11.055        3.325      392.126       74.314        0.036      348.378       28.027      855.909
09/02/2014  19:16:00     -387.220      -24.143      -29.309      165.404      193.543       64.919    27358.589    37459.015     4214.507       11.019        3.452      387.972       79.734        0.042      348.364       28.001      855.918
09/02/2014  19:17:00     -266.065      -35.760      -24.073      131.033       88.376       62.257    17169.650     7810.312     3875.968        5.075        1.443      268.457       61.014        0.052      348.311       27.910      855.967
09/02/2014  19:18:00     -184.019      -55.663       -4.923      145.982       88.218       59.315    21310.886     7782.455     3518.215        3.479        1.631      192.254       67.130        0.122      348.264       27.830      855.973
09/02/2014  19:19:00     -247.342        3.895      -19.436      180.875       94.882       65.366    32715.879     9002.567     4272.687        5.377        2.300      247.373       71.045        0.082      348.272       27.842      856.022
09/02/2014  19:20:00     -162.119      -11.570       -9.240       99.643       76.748       60.496     9928.721     5890.321     3659.790        2.299        0.974      162.531       59.362        0.133      348.263       27.829      856.017
09/02/2014  19:21:00     -161.968      -77.783       -8.179      113.281       87.914       49.307    12832.536     7728.926     2431.200        2.767        1.150      179.677       55.399        0.095      348.256       27.816      856.062
09/02/2014  19:22:00     -230.242      -88.030      -17.769       70.313       69.414       40.088     4943.899     4818.235     1607.065        3.622        0.568      246.497       25.136        0.010      348.256       27.815      856.064
09/02/2014  19:23:00     -108.818      -25.119        9.984       88.807       61.447       37.109     7886.717     3775.739     1377.113        1.280        0.652      111.679       38.335        0.118      348.217       27.749      856.101
09/02/2014  19:24:00     -187.599       48.596       -0.412      143.397       93.711       57.246    20562.625     8781.823     3277.064        3.508        1.631      193.791       68.412        0.125      348.189       27.701      856.127
09/02/2014  19:25:00      -98.569      -11.207        0.090       90.546       71.146       45.537     8198.654     5061.709     2073.611        1.258        0.767       99.204       44.539        0.202      348.104       27.556      856.175
09/02/2014  19:26:00        3.451       22.407       23.633       63.034       53.097       36.934     3973.335     2819.309     1364.084        0.461        0.408       22.671       25.702        1.285      347.867       27.147      856.177
09/02/2014  19:27:00      -31.019       17.517       -5.120       37.018       34.637       28.532     1370.359     1199.733      814.088        0.234        0.169       35.623       24.214        0.462      347.887       27.183      856.228
09/02/2014  19:28:00       -8.111      -14.422        6.878       75.858       48.713       30.300     5754.422     2372.961      918.061        0.468        0.452       16.546       40.467        5.981      348.062       27.483      856.242
09/02/2014  19:29:00       80.825       23.770        8.748       36.267       39.159       27.258     1315.321     1533.397      743.000        0.538        0.180       84.248       23.687        0.079      347.987       27.355      856.257
09/02/2014  19:30:00       37.162      -45.554        0.735       94.240       70.199       29.865     8881.261     4927.853      891.932        0.908        0.735       58.789       24.919        0.180      347.975       27.335      856.319
09/02/2014  19:31:00       49.575       43.753       59.041       51.156       44.318       39.458     2616.979     1964.042     1556.923        0.700        0.307       66.121       31.536        0.227      347.791       27.015      856.301
09/02/2014  19:32:00       58.305       44.487       34.600       55.998       62.267       39.141     3135.748     3877.195     1532.015        0.756        0.427       73.339       37.197        0.257      347.847       27.113      856.356
09/02/2014  19:33:00      -12.446      -15.540       -6.474       28.865       25.336       20.847      833.162      641.925      434.591        0.117        0.095       19.910       13.272        0.444      347.885       27.179      856.353
09/02/2014  19:34:00       26.425       17.766       -2.189       40.797       36.942       27.297     1664.391     1364.724      745.106        0.240        0.189       31.842       17.176        0.291      347.799       27.030      856.414
09/02/2014  19:35:00      -23.195       42.833        8.192       61.429       39.408       45.320     3773.571     1553.016     2053.883        0.491        0.369       48.710       43.755        0.807      347.743       26.933      856.480
09/02/2014  19:36:00     -117.414      -68.151      -30.991       85.098      145.460       58.307     7241.621    21158.552     3399.693        2.559        1.590      135.759       58.792        0.188      348.105       27.556      856.521
09/02/2014  19:37:00     -144.294      -81.905      -24.190       52.526       55.080       36.094     2758.987     3033.854     1302.772        1.760        0.355      165.919        8.182        0.002      348.110       27.565      856.495
09/02/2014  19:38:00      -70.307      -14.261      -27.830       61.839       77.022       30.789     3824.022     5932.385      947.947        0.831        0.535       71.739       11.531        0.026      348.051       27.463      856.498
09/02/2014  19:39:00       40.296       48.061       13.902       35.258       28.604       28.363     1243.160      818.164      804.487        0.350        0.143       62.719        4.248        0.005      347.959       27.306      856.529
09/02/2014  19:40:00       53.542        1.339       -1.205       31.172       47.867       25.301      971.683     2291.218      640.158        0.339        0.195       53.559       13.203        0.061      347.921       27.239      856.548
09/02/2014  19:41:00       38.702      -68.126        5.522       53.918       53.564       39.145     2907.135     2869.146     1532.333        0.674        0.365       78.352       32.596        0.173      347.847       27.111      856.560
09/02/2014  19:42:00       36.436      -26.117       19.197       64.830       78.581       46.246     4202.962     6174.896     2138.652        0.744        0.626       44.829       56.087        1.565      347.844       27.107      856.586
09/02/2014  19:43:00       37.392        8.980       14.555       45.025       79.360       26.223     2027.256     6298.037      687.671        0.535        0.451       38.455       23.151        0.362      347.866       27.144      856.606
09/02/2014  19:44:00       -4.364      -73.382        4.740       37.355       47.951       29.572     1395.360     2299.285      874.513        0.500        0.228       73.512       26.293        0.128      347.908       27.219      856.616
09/02/2014  19:45:00      -10.794       37.537       12.058       57.423       56.320       36.993     3297.356     3171.965     1368.448        0.475        0.392       39.058       31.077        0.633      347.932       27.260      856.637
09/02/2014  19:46:00       47.428       25.133       12.312       74.378       50.241       35.315     5532.132     2524.194     1247.139        0.617        0.465       53.676        9.759        0.033      347.877       27.164      856.651
09/02/2014  19:47:00       57.530       19.948       13.496       43.522       27.198       19.612     1894.183      739.743      384.625        0.345        0.151       60.890       20.143        0.109      347.893       27.191      856.651
09/02/2014  19:48:00       76.398       56.234       35.010       61.340       49.261       29.325     3762.582     2426.610      859.946        0.864        0.352       94.863        8.336        0.008      347.871       27.155      856.645
09/02/2014  19:49:00      115.569       93.554        7.124       52.971       45.123       50.372     2805.947     2036.058     2537.372        1.477        0.369      148.690       26.948        0.033      347.969       27.322      856.658
09/02/2014  19:50:00       13.900       58.980       74.774       31.106       36.924       28.013      967.602     1363.362      784.730        0.619        0.156       60.596       21.182        0.122      347.779       26.994      856.663
09/02/2014  19:51:00       -5.208      -25.746       -2.078       33.625       40.657       26.595     1130.631     1653.004      707.280        0.209        0.175       26.267       20.983        0.638      347.685       26.833      856.685
09/02/2014  19:52:00       -5.988      -19.989       -6.172       21.251       18.199       14.767      451.618      331.188      218.057        0.074        0.050       20.867       10.830        0.269      347.746       26.938      856.707
09/02/2014  19:53:00        1.681        2.100        6.680       27.668       20.489       15.067      765.523      419.817      227.025        0.073        0.071        2.690       12.607       21.973      347.646       26.766      856.731
09/02/2014  19:54:00      -80.551       24.248      -11.064       29.948       21.405       17.154      896.873      458.195      294.258        0.442        0.082       84.122       14.295        0.029      347.832       27.085      856.769
09/02/2014  19:55:00      -63.853       29.208       -7.494       19.675       20.234       11.871      387.116      409.416      140.928        0.296        0.047       70.217        5.618        0.006      347.725       26.903      856.807
09/02/2014  19:56:00       52.289       42.500       15.897       47.133       13.856       14.208     2221.492      191.980      201.868        0.370        0.131       67.383       21.212        0.099      347.601       26.689      856.785
09/02/2014  19:57:00      112.312       56.294       32.379       42.990       29.981       33.434     1848.163      898.857     1117.865        1.035        0.193      125.631       25.156        0.040      347.690       26.841      856.728
09/02/2014  19:58:00       42.316       47.714        2.953       52.452       47.792       32.253     2751.194     2284.086     1040.271        0.507        0.304       63.776       19.712        0.096      347.539       26.582      856.761
09/02/2014  19:59:00       61.980       50.589        6.702       23.324       30.527       28.850      543.987      931.869      832.341        0.438        0.115       80.005       20.032        0.063      347.483       26.485      856.777
09/02/2014  20:00:00       45.609       30.662       11.354       12.891       10.953       13.531      166.189      119.970      183.086        0.181        0.023       54.957        5.026        0.008      347.419       26.373      856.769
09/02/2014  20:01:00       52.837       30.671        2.998       19.871       19.045       18.741      394.842      362.705      351.240        0.242        0.055       61.094       16.203        0.070      347.311       26.188      856.777
09/02/2014  20:02:00       98.025       50.092       18.064       39.213       25.400       31.526     1537.672      645.151      993.873        0.781        0.159      110.082       15.418        0.020      347.487       26.493      856.777
09/02/2014  20:03:00       -5.165      -17.209       -8.452       20.533       19.822       12.268      421.584      392.924      150.515        0.068        0.048       17.968        9.987        0.309      347.630       26.739      856.795
09/02/2014  20:04:00      -36.463        1.181       14.306       58.323       30.210       22.114     3401.621      912.622      489.028        0.317        0.240       36.482       24.116        0.437      347.384       26.315      856.806
09/02/2014  20:05:00     -151.715      -23.459       -3.937       43.298       57.539       33.074     1874.703     3310.711     1093.888        1.493        0.314      153.518       21.459        0.020      347.631       26.740      856.831
09/02/2014  20:06:00      -60.617      -83.470        3.216       70.975       49.284       27.284     5037.462     2428.879      744.407        0.943        0.411      103.158       29.827        0.084      347.677       26.819      856.836
09/02/2014  20:07:00      -82.876      -25.839       -1.251       57.596       56.073       28.525     3317.312     3144.182      813.680        0.740        0.364       86.810       17.645        0.041      347.645       26.765      856.850
09/02/2014  20:08:00     -238.749       21.620      -14.544      120.268       68.964       41.027    14464.301     4755.984     1683.252        3.929        1.045      239.726       48.581        0.041      347.619       26.716      856.854
09/02/2014  20:09:00     -247.727        1.268      -17.277      117.409       74.613       51.395    13784.981     5567.131     2641.473        4.183        1.100      247.730       50.865        0.042      347.556       26.608      856.849
09/02/2014  20:10:00     -255.852      -83.247       -2.210      115.891       81.660       45.450    13430.794     6668.281     2065.683        4.728        1.108      269.054       57.672        0.046      347.551       26.600      856.856
09/02/2014  20:11:00     -306.454      -54.902      -34.871      109.882      120.636       45.879    12074.003    14553.073     2104.918        6.343        1.437      311.333       46.360        0.022      347.599       26.680      856.855
09/02/2014  20:12:00     -206.756      -46.238       -1.297      110.717      108.894       53.183    12258.356    11857.923     2828.433        3.591        1.347      211.863       50.156        0.056      347.551       26.601      856.879
09/02/2014  20:13:00     -178.809      -49.764      -26.669       71.220       42.696       35.199     5072.334     1822.946     1238.961        2.165        0.407      185.605       36.213        0.038      347.516       26.541      856.889
09/02/2014  20:14:00     -111.724      -19.659       -0.151       58.448       45.295       26.512     3416.113     2051.657      702.902        0.952        0.309      113.440       28.406        0.063      347.470       26.461      856.900
09/02/2014  20:15:00     -115.767      -24.586      -20.474       65.732       44.084       27.291     4320.743     1943.418      744.823        1.072        0.350      118.349       14.299        0.015      347.522       26.551      856.915
09/02/2014  20:16:00     -259.377      -40.130      -13.641       98.161       87.912       52.305     9635.643     7728.466     2735.808        4.458        1.005      262.463       51.141        0.038      347.557       26.609      856.891
09/02/2014  20:17:00     -157.277     -101.295      -20.777       62.620       67.774       28.461     3921.315     4593.363      810.042        2.237        0.466      187.074       33.981        0.033      347.542       26.587      856.913
09/02/2014  20:18:00     -105.281      -47.100       -1.860       60.266       51.854       29.481     3631.977     2688.877      869.107        1.025        0.359      115.337       29.244        0.064      347.461       26.447      856.907
09/02/2014  20:19:00     -182.251       25.860      -20.160       61.044       53.625       30.217     3726.363     2875.641      913.059        2.090        0.376      184.077       30.585        0.028      347.463       26.447      856.919
09/02/2014  20:20:00      -14.224      -64.799       19.159       70.028       46.284       33.985     4903.940     2142.201     1154.967        0.648        0.410       66.342       33.447        0.254      347.418       26.373      856.919
09/02/2014  20:21:00     -129.956      -47.715        1.129      120.047       65.306       39.273    14411.343     4264.885     1542.343        1.969        1.011      138.439       47.062        0.116      347.337       26.231      856.945
09/02/2014  20:22:00     -246.771      -52.873      -11.520       83.651       49.239       41.235     6997.438     2424.450     1700.286        3.747        0.556      252.372       30.536        0.015      347.450       26.424      856.953
09/02/2014  20:23:00     -107.846       -0.968       -9.354       45.766       35.820       25.090     2094.512     1283.048      629.487        0.786        0.200      107.851       14.880        0.019      347.339       26.237      856.960
09/02/2014  20:24:00     -109.771       42.614       -7.367       48.124       24.639       17.256     2315.950      607.089      297.754        0.857        0.161      117.753        8.636        0.005      347.313       26.191      856.965
09/02/2014  20:25:00      -65.213       11.217       -9.081       34.341       19.265       14.546     1179.330      371.139      211.584        0.311        0.088       66.171       14.878        0.051      347.315       26.194      856.959
09/02/2014  20:26:00      -93.192       22.420       -7.650       36.389       33.511       17.009     1324.179     1123.014      289.298        0.599        0.137       95.851       16.050        0.028      347.218       26.027      856.976
09/02/2014  20:27:00     -109.668       -9.421      -12.367       74.090       54.244       31.286     5489.259     2942.400      978.796        1.084        0.471      110.072       36.930        0.113      347.305       26.177      856.970
09/02/2014  20:28:00     -126.452       -8.197      -12.125       64.616       33.081       20.755     4175.192     1094.361      430.751        1.095        0.285      126.717       29.268        0.053      347.328       26.220      856.965
09/02/2014  20:29:00      -94.863       45.998       -8.367       64.221       28.407       17.412     4124.373      806.938      303.187        0.821        0.262      105.427       21.983        0.043      347.185       25.970      856.962
09/02/2014  20:30:00      -74.663       41.761       -3.931       69.598      104.641       40.253     4843.922    10949.747     1620.310        1.237        0.871       85.549       39.056        0.208      347.199       25.994      856.974
09/02/2014  20:31:00      -63.774        1.800        2.501       37.744       36.180       28.397     1424.628     1308.999      806.388        0.381        0.177       63.800       12.561        0.039      347.139       25.892      856.970
09/02/2014  20:32:00      -70.293      -27.191       -3.300       75.628       21.518       20.492     5719.558      463.009      419.922        0.615        0.330       75.368       27.788        0.136      347.150       25.911      856.978
09/02/2014  20:33:00      -26.627        9.395       -2.587       26.395       17.258       17.494      696.680      297.844      306.035        0.105        0.065       28.236       19.453        0.475      347.049       25.737      856.999
09/02/2014  20:34:00      -99.137       41.289      -19.349       39.633       23.334       14.904     1570.744      544.479      222.127        0.712        0.117      107.392       13.505        0.016      347.279       26.133      857.015
09/02/2014  20:35:00      -77.494       26.798      -16.321       32.991       27.440       16.368     1088.431      752.950      267.898        0.455        0.105       81.996        8.672        0.011      347.233       26.052      857.031
09/02/2014  20:36:00      -34.990        1.701       -3.254       42.745       50.673       16.416     1827.131     2567.761      269.483        0.295        0.233       35.031       20.853        0.354      347.092       25.811      857.049
09/02/2014  20:37:00      -34.690      -21.309       -3.560       25.801       27.797       16.364      665.677      772.678      267.781        0.169        0.085       40.712       13.443        0.109      347.025       25.696      857.043
09/02/2014  20:38:00     -134.116      -54.551        1.998       60.239       37.561       25.595     3628.693     1410.796      655.084        1.333        0.285      144.786       26.612        0.034      347.071       25.775      857.057
09/02/2014  20:39:00     -151.032      -19.449        2.419       70.734       60.557       31.786     5003.357     3667.115     1010.352        1.644        0.484      152.279       28.542        0.035      347.109       25.839      857.056
09/02/2014  20:40:00      -84.318        2.923       11.660       59.511       45.414       26.362     3541.588     2062.450      694.952        0.678        0.315       84.369       24.457        0.084      346.937       25.544      857.070
09/02/2014  20:41:00      -87.788       -1.809       -5.791       42.933       50.909       21.525     1843.234     2591.777      463.334        0.632        0.245       87.806       14.002        0.025      347.099       25.824      857.056
09/02/2014  20:42:00     -124.467        5.409       -7.384       38.395       32.639       20.395     1474.207     1065.305      415.970        0.927        0.148      124.584       19.700        0.025      347.009       25.668      857.066
09/02/2014  20:43:00     -140.643      -60.306       -7.133       62.568       44.213       24.799     3914.697     1954.780      615.009        1.497        0.324      153.027       24.500        0.026      346.953       25.570      857.090
09/02/2014  20:44:00      -22.971       -6.594        8.720       41.475       23.845       22.166     1720.175      568.579      491.320        0.171        0.139       23.898       25.863        1.171      346.835       25.369      857.073
09/02/2014  20:45:00     -174.477      -17.386      -10.265       77.726       61.406       28.245     6041.400     3770.709      797.761        2.073        0.530      175.341       27.899        0.025      346.994       25.639      857.080
09/02/2014  20:46:00     -179.114      -22.073      -11.754       64.610       46.643       26.935     4174.453     2175.578      725.485        1.989        0.354      180.469       24.960        0.019      346.952       25.567      857.100
09/02/2014  20:47:00     -188.206      -35.749       -4.999       77.883       52.798       29.018     6065.705     2787.589      842.059        2.321        0.485      191.571       36.836        0.037      346.905       25.487      857.119
09/02/2014  20:48:00     -199.391       15.937      -11.247       72.138       64.174       27.043     5203.825     4118.321      731.349        2.509        0.503      200.027       34.364        0.030      347.022       25.688      857.126
09/02/2014  20:49:00     -200.559     -107.241       -6.631      160.678       90.669       58.857    25817.276     8220.925     3464.098        4.463        1.875      227.430       66.717        0.086      346.984       25.622      857.104
09/02/2014  20:50:00     -268.636      -59.574      -22.186      118.972       91.197       41.258    14154.412     8316.882     1702.241        5.019        1.209      275.162       45.010        0.027      347.038       25.714      857.143
09/02/2014  20:51:00     -338.213     -148.485      -12.494      127.881       82.824       60.352    16353.586     6859.847     3642.369        8.172        1.343      369.372       57.183        0.024      347.061       25.754      857.153
09/02/2014  20:52:00     -202.067      -50.160       -6.881      102.269       72.728       52.841    10459.019     5289.426     2792.125        3.096        0.927      208.199       44.759        0.046      346.992       25.637      857.169
09/02/2014  20:53:00     -249.033      -63.313       -5.609       87.077       84.532       41.523     7582.358     7145.707     1724.150        4.125        0.823      256.955       33.593        0.017      346.987       25.625      857.176
09/02/2014  20:54:00     -131.988      -64.010       -5.542       75.441       52.954       34.693     5691.298     2804.074     1203.595        1.562        0.485      146.691       32.091        0.048      346.938       25.542      857.188
09/02/2014  20:55:00     -215.455        3.306      -14.710       82.704       63.162       37.800     6840.033     3989.472     1428.837        2.945        0.613      215.480       36.573        0.029      346.954       25.570      857.210
09/02/2014  20:56:00     -195.992       -0.409      -13.250       71.705       62.074       31.114     5141.608     3853.179      968.101        2.427        0.498      195.992       30.834        0.025      346.937       25.540      857.207
09/02/2014  20:57:00     -191.383      -15.559      -13.710       48.823       75.232       33.229     2383.691     5659.891     1104.176        2.310        0.457      192.015       23.616        0.015      346.944       25.552      857.208
09/02/2014  20:58:00     -215.071      -27.327      -24.556       71.096       60.257       39.057     5054.652     3630.949     1525.478        2.891        0.511      216.800       35.410        0.027      346.919       25.510      857.226
09/02/2014  20:59:00     -235.917      -45.224       -9.417       79.972       63.440       38.156     6395.450     4024.581     1455.916        3.483        0.594      240.212       39.567        0.027      346.912       25.497      857.219
09/02/2014  21:00:00     -131.685      -66.498       13.084      129.808       79.722       56.186    16850.161     6355.629     3156.848        2.414        1.318      147.522       71.928        0.238      346.957       25.578      857.234
09/02/2014  21:01:00     -357.563       31.801      -24.997      107.806       79.683       52.859    11622.176     6349.368     2794.049        7.512        1.038      358.974       52.322        0.021      347.003       25.654      857.246
09/02/2014  21:02:00     -238.210      -75.040      -16.213       76.978       60.867       38.261     5925.621     3704.765     1463.885        3.686        0.555      249.750       28.765        0.013      347.012       25.669      857.258
09/02/2014  21:03:00     -244.461       -6.011      -16.159      114.790       71.002       43.930    13176.818     5041.242     1929.874        4.010        1.007      244.535       45.458        0.035      346.944       25.553      857.254
09/02/2014  21:04:00     -181.290      -53.862      -15.500       69.762       58.618       39.623     4866.682     3436.068     1569.985        2.294        0.494      189.122       29.947        0.025      346.974       25.605      857.251
09/02/2014  21:05:00     -259.464      -41.312      -21.593      115.374      118.818       46.549    13311.261    14117.680     2166.815        4.954        1.480      262.733       45.436        0.030      347.017       25.676      857.241
09/02/2014  21:06:00     -307.172       -6.565      -27.847      157.916       71.454       46.418    24937.548     5105.745     2154.595        6.368        1.610      307.242       61.394        0.040      346.981       25.619      857.222
09/02/2014  21:07:00     -291.155      -55.936      -19.537       92.171       83.583       51.518     8495.520     6986.080     2654.145        5.321        0.907      296.480       53.597        0.033      346.980       25.616      857.206
09/02/2014  21:08:00     -372.170      -16.445      -10.484      115.193       86.277       53.769    13269.335     7443.672     2891.093        8.124        1.180      372.533       57.946        0.024      346.958       25.576      857.207
09/02/2014  21:09:00     -243.226      -49.688      -13.311       91.388      108.117       53.892     8351.844    11689.383     2904.388        4.237        1.147      248.250       45.260        0.033      346.948       25.559      857.218
09/02/2014  21:10:00     -237.312       48.324      -16.540       97.360       83.087       38.897     9478.877     6903.463     1512.973        3.841        0.895      242.182       32.698        0.018      346.927       25.522      857.211
09/02/2014  21:11:00     -241.537      -30.575      -22.904      105.952       90.673       43.243    11225.913     8221.523     1869.971        4.055        1.066      243.464       34.018        0.020      346.903       25.482      857.204
09/02/2014  21:12:00     -229.540       -3.230      -14.554      161.118      117.202       67.249    25958.923    13736.194     4522.446        4.856        2.211      229.562       67.423        0.086      346.839       25.372      857.212
09/02/2014  21:13:00     -319.455       -6.618      -28.242      156.615      124.404       59.739    24528.166    15476.294     3568.758        7.322        2.179      319.523       59.175        0.034      346.873       25.431      857.187
09/02/2014  21:14:00     -471.837      -68.029      -38.049      171.475      148.206       73.319    29403.569    21964.963     5375.700       14.271        2.837      476.716       73.458        0.024      346.982       25.619      857.178
09/02/2014  21:15:00     -301.202      -17.516      -19.719      110.384       91.841       61.007    12184.582     8434.695     3721.877        5.787        1.217      301.711       55.109        0.033      346.930       25.528      857.189
09/02/2014  21:16:00     -370.935      -44.456      -28.977      185.191       92.976       53.227    34295.601     8644.488     2833.140        9.308        2.289      373.589       70.054        0.035      346.966       25.591      857.203
09/02/2014  21:17:00     -189.596      -14.890       -4.058       89.579       52.109       41.655     8024.373     2715.301     1735.121        2.433        0.624      190.180       45.026        0.056      346.802       25.309      857.230
09/02/2014  21:18:00     -348.860        8.104      -35.920      106.493       87.469       56.848    11340.673     7650.859     3231.645        7.264        1.111      348.954       54.514        0.024      346.892       25.463      857.233
09/02/2014  21:19:00     -354.344      -25.903      -17.458      144.607       94.184       64.505    20911.230     8870.560     4160.938        8.023        1.697      355.289       56.861        0.026      346.922       25.513      857.228
09/02/2014  21:20:00     -165.520        6.697       -9.903       77.445       85.746       45.644     5997.719     7352.329     2083.353        2.148        0.772      165.655       42.496        0.066      346.839       25.373      857.229
09/02/2014  21:21:00      -84.075       46.627       -5.310       61.208      109.509       34.637     3746.390    11992.297     1199.723        1.310        0.847       96.139       22.713        0.056      346.774       25.262      857.243
09/02/2014  21:22:00     -117.857       -6.174       -1.974       75.905      121.513       46.582     5761.592    14765.487     2169.856        1.831        1.135      118.018       33.269        0.079      346.755       25.230      857.241
09/02/2014  21:23:00      -55.003      -38.917       -9.937      130.276       71.968       35.997    16971.852     5179.401     1295.805        1.404        1.172       67.379       33.738        0.251      346.751       25.223      857.264
09/02/2014  21:24:00     -208.012      -49.657      -11.631      115.265       90.904       45.266    13286.122     8263.475     2049.043        3.473        1.180      213.857       44.222        0.043      346.750       25.220      857.272
09/02/2014  21:25:00     -153.551       24.025      -24.879       57.618       61.312       29.989     3319.800     3759.133      899.326        1.637        0.399      155.419       24.370        0.025      346.772       25.258      857.279
09/02/2014  21:26:00     -274.031     -112.003      -11.593      110.182       98.063       53.027    12139.967     9616.267     2811.908        5.617        1.228      296.036       45.695        0.024      346.749       25.217      857.263
09/02/2014  21:27:00     -143.627       14.112        3.242      121.726       75.652       53.985    14817.144     5723.274     2914.339        2.214        1.173      144.319       55.193        0.146      346.752       25.224      857.266
09/02/2014  21:28:00     -202.290       81.385      -26.063      114.192      104.200       54.497    13039.699    10857.655     2969.911        3.754        1.343      218.047       55.307        0.064      346.768       25.251      857.281
09/02/2014  21:29:00     -353.002      -59.432       -5.408      139.970      145.994       63.480    19591.466    21314.290     4029.719        8.654        2.247      357.970       64.480        0.032      346.856       25.402      857.286
09/02/2014  21:30:00     -244.929      -81.228      -22.839      102.203       92.490       53.123    10445.451     8554.363     2822.036        4.446        1.091      258.046       38.131        0.022      346.860       25.408      857.286
09/02/2014  21:31:00     -112.225      -46.167       -4.245       93.495       73.969       52.550     8741.259     5471.418     2761.452        1.586        0.849      121.350       54.626        0.203      346.724       25.175      857.317
09/02/2014  21:32:00      -99.743       13.621      -15.147       66.924       36.269       31.606     4478.855     1315.441      998.960        0.858        0.340      100.669       29.637        0.087      346.745       25.213      857.343
09/02/2014  21:33:00     -140.986      -39.821       -7.852       77.594       53.625       33.471     6020.762     2875.591     1120.313        1.577        0.501      146.502       29.897        0.042      346.725       25.178      857.351
09/02/2014  21:34:00     -133.219       29.884        1.449       87.590      105.104       49.942     7671.986    11046.951     2494.186        1.992        1.061      136.530       41.141        0.091      346.713       25.157      857.351
09/02/2014  21:35:00     -106.175       37.079      -13.654       43.641       64.936       37.634     1904.575     4216.682     1416.285        1.018        0.377      112.463       23.226        0.043      346.711       25.154      857.360
09/02/2014  21:36:00     -258.725      101.461      -30.445       96.479      151.046       54.376     9308.157    22814.765     2956.757        5.661        1.754      277.909       46.601        0.028      346.842       25.375      857.307
09/02/2014  21:37:00     -145.331       51.236      -14.697       73.986       63.247       40.182     5473.951     4000.137     1614.595        1.752        0.554      154.098       42.424        0.076      346.684       25.107      857.331
09/02/2014  21:38:00     -143.903       83.175      -11.022       60.846       83.349       47.493     3702.225     6947.129     2255.603        2.032        0.645      166.211       38.961        0.055      346.647       25.044      857.328
09/02/2014  21:39:00     -137.382      135.649      -26.386       59.508       72.236       39.250     3541.158     5218.064     1540.527        2.413        0.515      193.066       32.471        0.028      346.644       25.037      857.330
09/02/2014  21:40:00      -99.844      -20.379       -0.043       93.376       66.893       49.997     8719.139     4474.703     2499.654        1.304        0.785      101.903       43.794        0.185      346.564       24.902      857.333
09/02/2014  21:41:00     -175.108      173.593      -33.089       86.786       78.050       40.972     7531.895     6091.796     1678.726        3.859        0.765      246.571       39.141        0.025      346.624       25.000      857.316
09/02/2014  21:42:00     -121.894      100.481      -16.279       73.986       66.184       40.697     5473.955     4380.300     1656.265        1.836        0.576      157.970       27.623        0.031      346.591       24.948      857.317
09/02/2014  21:43:00     -257.470      -85.270      -18.858      113.143       94.852       53.578    12801.401     8996.944     2870.596        4.929        1.233      271.223       32.493        0.014      346.674       25.088      857.318
09/02/2014  21:44:00     -196.356       63.505      -26.774      153.910       69.930       43.442    23688.342     4890.232     1887.188        3.688        1.523      206.370       47.535        0.053      346.693       25.123      857.347
09/02/2014  21:45:00     -290.985      -22.205      -15.347      110.876       71.925       48.032    12293.448     5173.208     2307.062        5.258        0.989      291.831       49.974        0.029      346.669       25.080      857.373
09/02/2014  21:46:00     -139.283      -28.872      -12.459       90.671       90.344       56.714     8221.199     8162.042     3216.506        1.999        0.980      142.244       42.599        0.090      346.589       24.943      857.352
09/02/2014  21:47:00     -102.829      122.767       -8.590       75.558       79.713       52.865     5709.030     6354.192     2794.727        2.029        0.743      160.142       54.068        0.114      346.591       24.948      857.342
09/02/2014  21:48:00     -173.068      146.825      -29.950       54.722      103.228       41.872     2994.490    10656.015     1753.248        3.390        0.770      226.958       35.199        0.024      346.653       25.054      857.374
09/02/2014  21:49:00     -151.376      128.148      -23.468       72.682      120.303       42.791     5282.735    14472.748     1831.075        3.073        1.079      198.335       37.772        0.036      346.658       25.058      857.387
09/02/2014  21:50:00     -138.722       70.390      -24.731       95.406       79.198       44.006     9102.335     6272.317     1936.523        2.106        0.866      155.558       43.488        0.078      346.634       25.021      857.371
09/02/2014  21:51:00     -153.453      -38.672      -14.281      108.180      128.267       75.317    11702.993    16452.342     5672.667        2.953        1.691      158.251       69.914        0.195      346.594       24.951      857.386
09/02/2014  21:52:00     -182.748       80.896      -24.267      122.419      129.848       61.344    14986.372    16860.521     3763.109        3.806        1.781      199.853       55.340        0.077      346.549       24.875      857.381
09/02/2014  21:53:00     -128.444       14.655      -26.711       90.738       81.306       57.098     8233.422     6610.710     3260.211        1.776        0.905      129.277       34.026        0.069      346.541       24.862      857.390
09/02/2014  21:54:00     -198.005      -37.521      -14.312       93.153      104.788       53.513     8677.516    10980.480     2863.599        3.167        1.126      201.529       44.161        0.048      346.524       24.831      857.403
09/02/2014  21:55:00     -302.144      -49.402      -23.987      100.908      103.169       58.382    10182.363    10643.862     3408.412        5.927        1.212      306.156       51.051        0.028      346.605       24.969      857.382
09/02/2014  21:56:00     -252.850     -102.178      -16.352      150.696       87.948       63.175    22709.311     7734.823     3991.104        5.453        1.722      272.715       50.042        0.034      346.614       24.986      857.380
09/02/2014  21:57:00     -265.365      -25.096      -25.444       83.051       86.626       46.746     6897.398     7504.103     2185.191        4.414        0.829      266.549       30.400        0.013      346.568       24.907      857.408
09/02/2014  21:58:00     -165.575      -64.105      -15.113       80.300       55.529       35.615     6448.033     3083.430     1268.412        2.127        0.540      177.552       33.822        0.036      346.502       24.795      857.411
09/02/2014  21:59:00     -232.992      -14.632      -18.257      149.776       76.055       50.152    22432.898     5784.380     2515.222        4.278        1.537      233.451       63.721        0.075      346.515       24.816      857.402
09/02/2014  22:00:00     -128.042      -52.059       -2.719       54.016       50.067       24.249     2917.676     2506.754      587.995        1.256        0.301      138.221       17.726        0.016      346.404       24.626      857.417
09/02/2014  22:01:00     -211.705      -40.148      -12.567       77.711       61.582       26.532     6039.010     3792.307      703.943        2.856        0.527      215.478       20.726        0.009      346.430       24.669      857.417
09/02/2014  22:02:00     -259.189      -65.796      -17.096      132.527       76.320       47.889    17563.324     5824.670     2293.318        4.874        1.284      267.410       50.073        0.035      346.437       24.682      857.422
09/02/2014  22:03:00     -237.126      -13.133      -20.277       77.954       67.687       37.274     6076.866     4581.511     1389.336        3.443        0.602      237.490       27.773        0.014      346.455       24.712      857.398
09/02/2014  22:04:00     -238.601       24.249      -22.801       81.121       67.946       39.297     6580.561     4616.727     1544.232        3.539        0.637      239.830       38.362        0.026      346.508       24.803      857.388
09/02/2014  22:05:00     -235.464      -23.534      -26.319       66.255       92.832       42.469     4389.676     8617.811     1803.635        3.575        0.741      236.637       40.127        0.029      346.484       24.759      857.375
09/02/2014  22:06:00     -268.162      -83.554       -6.985      160.292       82.965       58.868    25693.532     6883.270     3465.427        5.748        1.802      280.878       66.333        0.056      346.472       24.742      857.365
09/02/2014  22:07:00     -264.250      -36.524       -9.364      148.085      119.005       57.957    21929.262    14162.100     3358.964        5.534        1.973      266.762       60.996        0.052      346.486       24.764      857.347
09/02/2014  22:08:00     -239.298      -37.961      -30.536       95.453       67.295       48.087     9111.185     4528.680     2312.312        3.779        0.798      242.290       37.332        0.024      346.502       24.792      857.351
09/02/2014  22:09:00     -322.824     -107.014      -13.254      179.000      122.167       78.030    32041.109    14924.747     6088.718        8.444        2.653      340.099       83.206        0.060      346.460       24.720      857.339
09/02/2014  22:10:00     -294.341      -51.558      -21.278      129.081      105.660       61.540    16661.981    11164.105     3787.221        6.067        1.581      298.822       68.339        0.052      346.435       24.678      857.331
09/02/2014  22:11:00     -380.054      -80.180        3.555      164.809      174.099       84.544    27162.094    30310.350     7147.716       10.774        3.231      388.420       90.487        0.054      346.471       24.740      857.335
09/02/2014  22:12:00     -416.721      -81.223      -14.334      186.370      126.270       74.151    34733.662    15944.100     5498.344       11.831        2.809      424.563       84.810        0.040      346.599       24.958      857.308
09/02/2014  22:13:00     -213.389     -111.261       -8.229      180.919      131.600       63.914    32731.584    17318.570     4084.948        5.605        2.707      240.653       84.555        0.123      346.523       24.830      857.341
09/02/2014  22:14:00     -101.343       58.638        4.157       79.414       60.840       48.415     6306.637     3701.501     2344.053        1.304        0.618      117.085       40.535        0.120      346.392       24.604      857.338
09/02/2014  22:15:00     -133.574      -38.279       18.487      121.781       88.774       55.869    14830.723     7880.875     3121.381        2.274        1.292      138.951       63.999        0.212      346.358       24.546      857.331
09/02/2014  22:16:00     -272.405     -112.823       -3.367      103.301       94.784       53.348    10671.049     8983.993     2845.988        5.472        1.125      294.845       45.487        0.024      346.395       24.608      857.370
09/02/2014  22:17:00     -233.193      -42.980       -5.498      154.344       98.757       65.121    23822.173     9752.889     4240.714        4.703        1.891      237.120       74.189        0.098      346.415       24.643      857.359
09/02/2014  22:18:00     -341.604      -71.005      -30.941      231.726      126.366       70.736    53697.105    15968.460     5003.612        9.867        3.733      348.905       98.478        0.080      346.427       24.665      857.359
09/02/2014  22:19:00     -220.908      -60.381        9.343      154.145      119.423       61.756    23760.743    14261.841     3813.782        4.718        2.092      229.012       74.857        0.107      346.312       24.465      857.402
09/02/2014  22:20:00     -332.470        0.663      -25.972      146.167       91.902       62.877    21364.719     8445.899     3953.466        7.248        1.688      332.471       69.216        0.043      346.430       24.669      857.390
09/02/2014  22:21:00     -408.540      -99.241      -28.194       93.525       91.995       59.489     8746.991     8463.160     3538.891        9.914        1.037      420.421       43.977        0.011      346.465       24.728      857.408
09/02/2014  22:22:00     -271.129      -44.063      -11.893      113.180       88.392       50.279    12809.740     7813.132     2527.972        4.937        1.158      274.686       49.660        0.033      346.423       24.657      857.435
09/02/2014  22:23:00     -259.603      -33.295       -1.848      146.909      109.541       71.730    21582.377    11999.150     5145.183        5.361        1.936      261.729       75.943        0.084      346.303       24.451      857.440
09/02/2014  22:24:00     -289.189       23.943      -24.378      133.906       86.489       55.200    17930.825     7480.403     3047.056        5.662        1.423      290.179       55.406        0.036      346.373       24.568      857.441
09/02/2014  22:25:00     -204.520     -124.933        0.252      153.586      124.235       73.630    23588.664    15434.452     5421.384        5.093        2.222      239.659       79.948        0.111      346.324       24.487      857.442
09/02/2014  22:26:00     -340.315      -40.172      -19.736       92.912       84.749       54.165     8632.605     7182.347     2933.869        6.828        0.937      342.677       48.851        0.020      346.333       24.501      857.455
09/02/2014  22:27:00     -249.626      -29.286      -16.125       99.382      100.323       47.600     9876.695    10064.789     2265.787        4.281        1.110      251.338       45.740        0.033      346.289       24.426      857.459
09/02/2014  22:28:00     -226.047      -55.953      -12.953       63.477       65.553       37.540     4029.392     4297.229     1409.266        3.206        0.487      232.869       32.183        0.019      346.344       24.520      857.456
09/02/2014  22:29:00     -162.006      -45.350      -10.460       88.390       56.873       38.582     7812.793     3234.551     1488.609        2.047        0.627      168.233       43.928        0.068      346.340       24.515      857.454
09/02/2014  22:30:00     -256.814      -19.324      -23.984      135.613       65.808       47.716    18390.927     4330.644     2276.782        4.595        1.250      257.540       62.468        0.059      346.315       24.472      857.450
09/02/2014  22:31:00     -309.882     -132.423      -34.645      159.054      113.362       69.845    25298.327    12850.831     4878.353        7.889        2.151      336.991       74.678        0.049      346.308       24.458      857.435
09/02/2014  22:32:00     -273.561      -68.527      -18.879       99.649       66.723       42.585     9929.955     4451.922     1813.517        4.804        0.810      282.014       44.430        0.025      346.286       24.422      857.492
09/02/2014  22:33:00     -256.797      -79.957       -9.899      108.122       93.183       58.702    11690.413     8683.135     3445.873        4.812        1.191      268.957       55.786        0.043      346.253       24.364      857.472
09/02/2014  22:34:00     -284.768     -111.394      -25.779       89.917       95.414       47.735     8085.057     9103.888     2278.670        5.681        0.973      305.780       43.170        0.020      346.253       24.364      857.435
09/02/2014  22:35:00     -291.369      -66.812      -20.942      105.750      109.802       51.453    11183.107    12056.477     2647.419        5.784        1.294      298.931       35.062        0.014      346.166       24.213      857.469
09/02/2014  22:36:00     -323.026      -71.454       -7.684      147.716      102.489       69.011    21819.915    10504.015     4762.456        7.329        1.854      330.835       79.844        0.058      346.223       24.313      857.491
09/02/2014  22:37:00     -323.038        3.176      -24.762       91.175       81.939       45.077     8312.969     6714.056     2031.912        6.101        0.853      323.054       37.963        0.014      346.215       24.297      857.517
09/02/2014  22:38:00     -286.263      -60.178      -34.252      126.794       84.568       49.187    16076.641     7151.801     2419.372        5.619        1.282      292.519       47.629        0.027      346.193       24.262      857.503
09/02/2014  22:39:00     -355.841      -62.435      -30.921      102.005      108.022       45.619    10405.019    11668.819     2081.126        7.781        1.208      361.277       45.148        0.016      346.163       24.210      857.522
09/02/2014  22:40:00     -341.438      -61.357      -29.036      121.032      105.834       60.464    14648.673    11200.845     3655.942        7.534        1.475      346.907       47.845        0.019      346.177       24.233      857.534
09/02/2014  22:41:00     -255.398      -10.327      -24.590       95.405       91.519       44.975     9102.176     8375.720     2022.738        4.272        0.975      255.606       46.611        0.033      346.134       24.159      857.548
09/02/2014  22:42:00     -154.890      -32.298       -7.265      115.290       71.781       52.639    13291.868     5152.564     2770.826        2.315        1.061      158.221       57.092        0.130      346.073       24.055      857.553
09/02/2014  22:43:00     -134.301      -49.203      -12.095      106.706       64.599       50.528    11386.100     4172.991     2553.058        1.935        0.906      143.030       51.918        0.132      346.078       24.064      857.545
09/02/2014  22:44:00     -158.583      -32.990       -3.155      107.293       88.638       47.930    11511.758     7856.656     2297.292        2.395        1.083      161.978       44.518        0.076      346.011       23.950      857.556
09/02/2014  22:45:00     -321.818     -135.104      -28.402      123.482       87.990       50.328    15247.745     7742.213     2532.874        7.407        1.276      349.027       16.810        0.002      346.100       24.100      857.569
09/02/2014  22:46:00     -207.475      -86.514      -31.540       89.027       66.085       49.395     7925.798     4367.213     2439.874        3.313        0.737      224.790       31.911        0.020      346.059       24.030      857.575
09/02/2014  22:47:00     -265.457      -96.146      -40.510      120.749       74.374       43.931    14580.384     5531.453     1929.923        5.169        1.102      282.332       29.490        0.011      346.067       24.045      857.584
09/02/2014  22:48:00     -189.789       -5.292       -3.060       87.918       91.265       44.314     7729.578     8329.246     1963.756        2.704        0.901      189.863       46.126        0.059      346.008       23.945      857.589
09/02/2014  22:49:00     -179.851        6.518      -29.603       96.967       72.487       51.758     9402.588     5254.316     2678.872        2.530        0.867      179.969       42.472        0.056      346.065       24.041      857.598
09/02/2014  22:50:00     -330.693       -8.176      -27.542      144.131      115.652       70.982    20773.786    13375.333     5038.424        7.468        1.959      330.794       72.116        0.048      346.015       23.954      857.589
09/02/2014  22:51:00     -296.207        2.202      -22.309      126.563      105.212       79.942    16018.260    11069.569     6390.796        6.085        1.674      296.215       69.613        0.055      346.014       23.954      857.589
09/02/2014  22:52:00     -228.048       73.994      -52.775      105.459       87.852       71.125    11121.517     7717.908     5058.794        4.208        1.195      239.752       47.935        0.040      346.010       23.948      857.590
09/02/2014  22:53:00     -231.936      -86.477      -20.880      143.163      106.018       63.327    20495.716    11239.917     4010.262        4.872        1.787      247.533       70.681        0.082      346.015       23.956      857.612
09/02/2014  22:54:00     -281.556      -53.444      -13.022      119.024      109.897       62.349    14166.760    12077.258     3887.400        5.621        1.507      286.584       68.378        0.057      346.041       23.998      857.643
09/02/2014  22:55:00     -240.691       52.279      -45.490       96.606      139.646       58.978     9332.804    19500.953     3478.357        4.752        1.616      246.303       63.193        0.066      346.039       23.996      857.667
09/02/2014  22:56:00     -194.156      -30.057       -9.172      134.990      116.485       63.915    18222.319    13568.798     4085.148        3.727        1.794      196.469       65.925        0.113      346.081       24.069      857.664
09/02/2014  22:57:00     -192.094      -21.419      -41.154       83.555       70.617       54.131     6981.408     4986.762     2930.202        2.697        0.745      193.285       39.010        0.041      346.031       23.984      857.687
09/02/2014  22:58:00     -146.843      -24.845      -24.080       82.125       80.070       68.174     6744.492     6411.146     4647.725        2.028        0.890      148.929       42.619        0.082      346.048       24.015      857.699
09/02/2014  22:59:00     -189.745      -26.261      -39.477      139.455       91.323       59.483    19447.698     8339.823     3538.240        3.478        1.566      191.554       50.746        0.070      346.072       24.054      857.692
09/02/2014  23:00:00     -356.115      -78.054      -29.799      149.183      113.992       64.422    22255.497    12994.268     4150.214        8.659        1.970      364.569       61.408        0.028      346.069       24.047      857.711
09/02/2014  23:01:00     -380.233     -116.865      -14.296      194.959      101.413       66.371    38008.852    10284.525     4405.105       10.556        2.635      397.787       76.590        0.037      346.109       24.116      857.720
09/02/2014  23:02:00     -213.312      -82.725      -28.452      139.877       78.318       58.081    19565.559     6133.768     3373.354        4.111        1.454      228.792       57.356        0.063      346.069       24.047      857.724
09/02/2014  23:03:00     -222.422       -6.594      -23.946      129.030       92.957       65.505    16648.614     8640.992     4290.947        3.983        1.479      222.519       56.539        0.065      346.065       24.042      857.737
09/02/2014  23:04:00     -159.528       36.045      -21.702      121.107       99.259       69.381    14667.020     9852.276     4813.658        2.827        1.467      163.550       54.734        0.112      346.053       24.022      857.719
09/02/2014  23:05:00     -284.238     -121.708      -34.299      109.511      108.990       69.944    11992.680    11878.715     4892.180        6.277        1.438      309.199       41.412        0.018      346.053       24.020      857.707
09/02/2014  23:06:00     -154.618      -50.553      -17.532      108.899       86.728       70.901    11858.944     7521.702     5026.969        2.558        1.220      162.672       49.298        0.092      346.027       23.978      857.728
09/02/2014  23:07:00     -202.842      -24.145      -26.205       95.310       64.702       52.150     9083.983     4186.317     2719.616        2.920        0.799      204.274       45.979        0.051      346.051       24.017      857.737
09/02/2014  23:08:00     -189.098      -24.946       -7.813      122.032      108.792       65.857    14891.709    11835.603     4337.133        3.375        1.553      190.737       66.796        0.123      346.067       24.045      857.736
09/02/2014  23:09:00     -249.388       16.966      -35.821      143.202       81.362       65.092    20506.809     6619.837     4237.004        4.756        1.568      249.965       69.352        0.077      346.136       24.163      857.745
09/02/2014  23:10:00     -191.051       67.966      -17.335       90.193      135.880       60.698     8134.691    18463.361     3684.260        3.585        1.514      202.780       55.720        0.076      346.106       24.110      857.746
09/02/2014  23:11:00     -235.010      121.560      -49.449       97.266      108.001       59.306     9460.717    11664.156     3517.168        4.854        1.232      264.588       45.552        0.030      346.180       24.238      857.761
09/02/2014  23:12:00     -221.431      114.332      -29.470      121.360       87.940       61.654    14728.322     7733.462     3801.188        4.461        1.313      249.206       64.092        0.066      346.241       24.344      857.783
09/02/2014  23:13:00     -175.785       47.880        5.253      125.409       99.788       60.771    15727.357     9957.703     3693.119        3.129        1.469      182.189       49.567        0.074      346.250       24.359      857.785
09/02/2014  23:14:00     -291.471      128.489      -44.044      110.824      108.615       66.510    12281.913    11797.148     4423.593        6.595        1.425      318.535       51.928        0.027      346.384       24.589      857.783
09/02/2014  23:15:00     -184.027       62.788      -23.332      107.201      132.529       53.897    11492.042    17563.946     2904.897        3.515        1.598      194.443       46.716        0.058      346.283       24.417      857.787
09/02/2014  23:16:00     -209.185      -28.832      -14.794      102.273      129.004       54.081    10459.682    16642.070     2924.709        3.741        1.501      211.162       27.478        0.017      346.273       24.398      857.813
09/02/2014  23:17:00     -385.327      167.974      -61.447      136.685      123.575       67.324    18682.904    15270.796     4532.499       10.947        1.924      420.347       67.795        0.026      346.375       24.574      857.794
09/02/2014  23:18:00     -157.474      141.691      -27.826       77.019      107.881       61.661     5931.967    11638.343     3802.077        3.351        1.069      211.836       52.896        0.062      346.293       24.433      857.810
09/02/2014  23:19:00     -171.836      168.803      -14.823       88.036      172.547       65.522     7750.393    29772.480     4293.082        5.002        2.091      240.878       35.553        0.022      346.278       24.407      857.788
09/02/2014  23:20:00     -204.379      -25.486      -18.108       90.599      112.573       52.324     8208.224    12672.586     2737.827        3.318        1.181      205.962       44.177        0.046      346.248       24.356      857.797
09/02/2014  23:21:00     -159.741       53.875      -17.027      142.275      118.774       80.703    20242.297    14107.348     6512.996        3.478        2.043      168.582       79.475        0.222      346.247       24.356      857.799
09/02/2014  23:22:00     -255.675       31.239        4.603      173.628      151.100       85.444    30146.642    22831.097     7300.612        6.331        3.014      257.576       75.864        0.087      346.265       24.385      857.779
09/02/2014  23:23:00     -186.165       68.376      -40.387       92.510      108.929       66.009     8558.170    11865.548     4357.241        3.287        1.239      198.325       56.084        0.080      346.274       24.400      857.774
09/02/2014  23:24:00     -173.611       69.335      -29.163       73.650       62.032       52.939     5424.278     3847.974     2802.543        2.393        0.604      186.944       43.791        0.055      346.235       24.334      857.784
09/02/2014  23:25:00     -186.353      -32.689      -28.381       62.161       69.963       39.928     3864.000     4894.859     1594.238        2.348        0.518      189.198       25.394        0.018      346.196       24.269      857.780
09/02/2014  23:26:00     -216.458     -115.567       -1.761      119.249       83.234       51.493    14220.364     6927.862     2651.499        4.200        1.190      245.377       46.838        0.036      346.161       24.207      857.782
09/02/2014  23:27:00     -218.084      -42.234      -11.050      133.899      102.897       55.750    17928.931    10587.886     3108.089        4.054        1.581      222.136       51.518        0.054      346.216       24.301      857.797
09/02/2014  23:28:00     -224.872       71.549      -24.714      108.433      102.388       54.898    11757.810    10483.336     3013.755        4.077        1.263      235.980       47.672        0.041      346.315       24.472      857.810
09/02/2014  23:29:00     -200.634      105.086      -37.624       74.386       75.081       56.015     5533.239     5637.146     3137.654        3.351        0.715      226.488       40.266        0.032      346.306       24.454      857.807
09/02/2014  23:30:00     -231.609      114.277      -32.443      142.109       78.568       52.627    20194.871     6172.867     2769.563        4.844        1.457      258.267       57.171        0.049      346.400       24.614      857.813
09/02/2014  23:31:00     -128.579      106.498      -20.431       90.376      110.378       53.585     8167.894    12183.222     2871.317        2.575        1.161      166.956       41.416        0.062      346.295       24.437      857.792
09/02/2014  23:32:00     -136.866       88.918      -18.115       65.436       84.460       44.540     4281.847     7133.551     1983.823        2.018        0.670      163.214       32.801        0.040      346.212       24.296      857.813
09/02/2014  23:33:00     -209.507      126.459      -31.668      107.875      117.356       66.759    11637.091    13772.529     4456.823        4.537        1.493      244.714       72.306        0.087      346.321       24.481      857.833
09/02/2014  23:34:00     -341.222       22.465      -50.089      146.965      124.526       65.346    21598.630    15506.848     4270.094        8.040        2.069      341.961       65.133        0.036      346.287       24.423      857.840
09/02/2014  23:35:00     -197.285       34.164      -23.340      161.368      110.909       66.704    26039.486    12300.701     4449.445        4.170        2.139      200.221       73.954        0.136      346.275       24.403      857.848
09/02/2014  23:36:00     -246.770       94.689      -40.683      126.947       85.065       79.000    16115.626     7235.972     6240.945        5.055        1.480      264.313       68.777        0.068      346.343       24.519      857.843
09/02/2014  23:37:00     -226.965      -36.498       -8.374      131.686      115.929       57.605    17341.119    13439.587     3318.391        4.350        1.705      229.881       58.473        0.065      346.280       24.413      857.842
09/02/2014  23:38:00     -379.257     -117.886      -30.472      108.430       94.344       54.456    11757.116     8900.718     2965.495        9.114        1.181      397.156       48.409        0.015      346.267       24.387      857.838
09/02/2014  23:39:00     -213.863      -36.775      -25.685       70.056       90.339       49.623     4907.786     8161.186     2462.450        3.164        0.777      217.002       33.256        0.023      346.213       24.294      857.837
09/02/2014  23:40:00     -239.883      -93.719      -22.640      100.109       75.425       45.510    10021.871     5688.965     2071.126        4.231        0.889      257.541       51.462        0.040      346.171       24.224      857.831
09/02/2014  23:41:00     -300.443      -58.914      -26.719      112.379      105.097       52.093    12628.991    11045.354     2713.722        6.041        1.319      306.164       49.742        0.026      346.148       24.183      857.815
09/02/2014  23:42:00     -263.390      -47.232      -11.192      100.892       94.381       50.708    10179.169     8907.782     2571.271        4.669        1.083      267.592       47.993        0.032      346.102       24.103      857.812
09/02/2014  23:43:00     -239.043     -114.036      -25.391       70.641       69.729       42.449     4990.220     4862.079     1801.923        4.122        0.583      264.851        8.232        0.001      346.095       24.092      857.809
09/02/2014  23:44:00     -325.433      -76.442      -31.257      125.339      100.290       58.505    15709.834    10058.156     3422.825        7.095        1.460      334.291       52.122        0.024      346.113       24.124      857.809
09/02/2014  23:45:00     -405.766      -94.425      -29.694      105.165       99.495       63.359    11059.764     9899.214     4014.387        9.970        1.249      416.608       55.937        0.018      346.025       23.973      857.813
09/02/2014  23:46:00     -372.454      -66.772      -11.926      125.387      115.080       74.163    15721.801    13243.352     5500.101        8.889        1.723      378.392       73.462        0.038      345.936       23.819      857.810
09/02/2014  23:47:00     -211.342       -0.189      -19.419      143.276       89.727       61.460    20528.118     8050.875     3777.312        3.869        1.618      211.342       66.985        0.100      346.111       24.120      857.800
09/02/2014  23:48:00     -260.086       64.098      -29.336      131.471      150.472       73.705    17284.496    22641.849     5432.473        5.898        2.268      267.868       72.596        0.073      346.406       24.628      857.786
09/02/2014  23:49:00     -296.158      -57.298      -11.893      173.195       97.215       63.286    29996.548     9450.692     4005.072        6.728        2.173      301.650       70.233        0.054      346.361       24.549      857.816
09/02/2014  23:50:00     -405.767       -2.069      -39.967      118.647       97.715       62.706    14077.223     9548.201     3932.060        9.690        1.378      405.772       65.542        0.026      346.367       24.561      857.819
09/02/2014  23:51:00     -426.241      -46.171      -35.057      128.137      130.089       67.651    16418.995    16923.045     4576.697       11.147        1.896      428.734       72.102        0.028      346.461       24.722      857.803
09/02/2014  23:52:00     -285.436      -57.488      -25.573       96.459       83.180       44.855     9304.247     6918.876     2011.949        5.183        0.912      291.167       41.580        0.020      346.469       24.735      857.797
09/02/2014  23:53:00     -202.438      -54.060       -4.438       85.239       55.685       49.055     7265.631     3100.764     2406.389        2.835        0.639      209.531       52.705        0.063      346.341       24.516      857.818
09/02/2014  23:54:00     -255.964      -89.630      -12.234      115.883       82.227       44.220    13428.952     6761.337     1955.366        4.792        1.107      271.203       49.039        0.033      346.319       24.478      857.811
09/02/2014  23:55:00     -340.187      -32.754      -12.336      143.354      118.357       64.635    20550.305    14008.487     4177.671        7.784        1.937      341.760       68.499        0.040      346.214       24.295      857.823
09/02/2014  23:56:00     -317.765       28.626      -24.650       88.414       91.443       41.726     7816.976     8361.753     1741.022        6.016        0.896      319.051       21.381        0.004      346.496       24.781      857.803
09/02/2014  23:57:00     -279.672       14.277      -30.480       76.411       51.730       30.212     5838.593     2675.953      912.737        4.439        0.471      280.037       29.643        0.011      346.557       24.885      857.752
09/02/2014  23:58:00     -313.863      -89.130      -12.860      112.904       86.469       45.279    12747.387     7476.845     2050.158        6.444        1.114      326.273       50.644        0.024      346.160       24.203      857.769
09/02/2014  23:59:00     -246.345      -19.651      -12.781      111.606       95.882       53.951    12456.007     9193.350     2910.705        4.289        1.228      247.128       59.598        0.058      346.399       24.615      857.728
